<?xml version="1.0" encoding="UTF-8" standalone="no" ?>
<gpx xmlns="http://www.topografix.com/GPX/1/1" xmlns:xsi="http://www.w3.org/2001/XMLSchema-instance" xsi:schemaLocation="http://www.topografix.com/GPX/1/1 http://www.topografix.com/GPX/1/1/gpx.xsd" version="1.1" creator="VisuGPX - https://www.visugpx.com">
  <metadata>
    <name>Autour de Sabran</name>
    <desc><![CDATA[Circuit VTT autour de Sabran passant par les chemins forestiers (D.F.C.I.) M1, M2, M3, M4 et M5.]]></desc>
  </metadata>
  <trk>
    <name><![CDATA[Autour de Sabran_1]]></name>
    <trkseg>
      <trkpt lat="44.1496" lon="4.55065">
        <ele>292.4</ele>
        <time>2019-07-31T07:58:42Z</time>
      </trkpt>
      <trkpt lat="44.14968" lon="4.55057">
        <ele>292.6</ele>
        <time>2019-07-31T07:58:47Z</time>
      </trkpt>
      <trkpt lat="44.14982" lon="4.55045">
        <ele>293.6</ele>
        <time>2019-07-31T07:58:52Z</time>
      </trkpt>
      <trkpt lat="44.14998" lon="4.55032">
        <ele>292.5</ele>
        <time>2019-07-31T07:58:57Z</time>
      </trkpt>
      <trkpt lat="44.15022" lon="4.55013">
        <ele>291</ele>
        <time>2019-07-31T07:59:02Z</time>
      </trkpt>
      <trkpt lat="44.1505" lon="4.54988">
        <ele>291.1</ele>
        <time>2019-07-31T07:59:07Z</time>
      </trkpt>
      <trkpt lat="44.1506" lon="4.54938">
        <ele>289.4</ele>
        <time>2019-07-31T07:59:12Z</time>
      </trkpt>
      <trkpt lat="44.15072" lon="4.54895">
        <ele>287</ele>
        <time>2019-07-31T07:59:17Z</time>
      </trkpt>
      <trkpt lat="44.1511" lon="4.54885">
        <ele>284.6</ele>
        <time>2019-07-31T07:59:22Z</time>
      </trkpt>
      <trkpt lat="44.15152" lon="4.54877">
        <ele>281.1</ele>
        <time>2019-07-31T07:59:27Z</time>
      </trkpt>
      <trkpt lat="44.15188" lon="4.5486">
        <ele>282.1</ele>
        <time>2019-07-31T07:59:32Z</time>
      </trkpt>
      <trkpt lat="44.15223" lon="4.54833">
        <ele>279.7</ele>
        <time>2019-07-31T07:59:37Z</time>
      </trkpt>
      <trkpt lat="44.15255" lon="4.54797">
        <ele>280.9</ele>
        <time>2019-07-31T07:59:42Z</time>
      </trkpt>
      <trkpt lat="44.1526" lon="4.54747">
        <ele>276.5</ele>
        <time>2019-07-31T07:59:47Z</time>
      </trkpt>
      <trkpt lat="44.1524" lon="4.54697">
        <ele>276.2</ele>
        <time>2019-07-31T07:59:52Z</time>
      </trkpt>
      <trkpt lat="44.15213" lon="4.54645">
        <ele>275.5</ele>
        <time>2019-07-31T07:59:57Z</time>
      </trkpt>
      <trkpt lat="44.15173" lon="4.54632">
        <ele>274.6</ele>
        <time>2019-07-31T08:00:02Z</time>
      </trkpt>
      <trkpt lat="44.15132" lon="4.54648">
        <ele>273.9</ele>
        <time>2019-07-31T08:00:07Z</time>
      </trkpt>
      <trkpt lat="44.15105" lon="4.54692">
        <ele>274.2</ele>
        <time>2019-07-31T08:00:12Z</time>
      </trkpt>
      <trkpt lat="44.1509" lon="4.5474">
        <ele>273.3</ele>
        <time>2019-07-31T08:00:17Z</time>
      </trkpt>
      <trkpt lat="44.15062" lon="4.54765">
        <ele>272.6</ele>
        <time>2019-07-31T08:00:22Z</time>
      </trkpt>
      <trkpt lat="44.15037" lon="4.5473">
        <ele>274.1</ele>
        <time>2019-07-31T08:00:27Z</time>
      </trkpt>
      <trkpt lat="44.15017" lon="4.54678">
        <ele>268.2</ele>
        <time>2019-07-31T08:00:32Z</time>
      </trkpt>
      <trkpt lat="44.14988" lon="4.54637">
        <ele>268.9</ele>
        <time>2019-07-31T08:00:37Z</time>
      </trkpt>
      <trkpt lat="44.14947" lon="4.54623">
        <ele>263.4</ele>
        <time>2019-07-31T08:00:42Z</time>
      </trkpt>
      <trkpt lat="44.14903" lon="4.54643">
        <ele>263.9</ele>
        <time>2019-07-31T08:00:47Z</time>
      </trkpt>
      <trkpt lat="44.1486" lon="4.54658">
        <ele>260.6</ele>
        <time>2019-07-31T08:00:52Z</time>
      </trkpt>
      <trkpt lat="44.14815" lon="4.54655">
        <ele>259.3</ele>
        <time>2019-07-31T08:00:57Z</time>
      </trkpt>
      <trkpt lat="44.14773" lon="4.54668">
        <ele>257.8</ele>
        <time>2019-07-31T08:01:02Z</time>
      </trkpt>
      <trkpt lat="44.14737" lon="4.54663">
        <ele>259</ele>
        <time>2019-07-31T08:01:07Z</time>
      </trkpt>
      <trkpt lat="44.1474" lon="4.54615">
        <ele>255.2</ele>
        <time>2019-07-31T08:01:12Z</time>
      </trkpt>
      <trkpt lat="44.14782" lon="4.54603">
        <ele>254</ele>
        <time>2019-07-31T08:01:17Z</time>
      </trkpt>
      <trkpt lat="44.14827" lon="4.54592">
        <ele>252</ele>
        <time>2019-07-31T08:01:22Z</time>
      </trkpt>
      <trkpt lat="44.14867" lon="4.54567">
        <ele>250.1</ele>
        <time>2019-07-31T08:01:27Z</time>
      </trkpt>
      <trkpt lat="44.149" lon="4.54525">
        <ele>248.8</ele>
        <time>2019-07-31T08:01:32Z</time>
      </trkpt>
      <trkpt lat="44.14927" lon="4.54477">
        <ele>247.3</ele>
        <time>2019-07-31T08:01:37Z</time>
      </trkpt>
      <trkpt lat="44.1494" lon="4.5442">
        <ele>246.9</ele>
        <time>2019-07-31T08:01:42Z</time>
      </trkpt>
      <trkpt lat="44.14942" lon="4.54357">
        <ele>244.3</ele>
        <time>2019-07-31T08:01:47Z</time>
      </trkpt>
      <trkpt lat="44.14927" lon="4.54293">
        <ele>241.7</ele>
        <time>2019-07-31T08:01:52Z</time>
      </trkpt>
      <trkpt lat="44.14902" lon="4.54235">
        <ele>239.7</ele>
        <time>2019-07-31T08:01:57Z</time>
      </trkpt>
      <trkpt lat="44.14892" lon="4.54167">
        <ele>237.2</ele>
        <time>2019-07-31T08:02:02Z</time>
      </trkpt>
      <trkpt lat="44.14877" lon="4.54105">
        <ele>234.2</ele>
        <time>2019-07-31T08:02:07Z</time>
      </trkpt>
      <trkpt lat="44.1485" lon="4.54063">
        <ele>231.9</ele>
        <time>2019-07-31T08:02:12Z</time>
      </trkpt>
      <trkpt lat="44.14862" lon="4.54015">
        <ele>230.5</ele>
        <time>2019-07-31T08:02:17Z</time>
      </trkpt>
      <trkpt lat="44.14892" lon="4.53973">
        <ele>228</ele>
        <time>2019-07-31T08:02:22Z</time>
      </trkpt>
      <trkpt lat="44.14918" lon="4.53927">
        <ele>227</ele>
        <time>2019-07-31T08:02:27Z</time>
      </trkpt>
      <trkpt lat="44.14952" lon="4.53883">
        <ele>225.4</ele>
        <time>2019-07-31T08:02:32Z</time>
      </trkpt>
      <trkpt lat="44.14982" lon="4.53842">
        <ele>225.1</ele>
        <time>2019-07-31T08:02:37Z</time>
      </trkpt>
      <trkpt lat="44.14985" lon="4.53788">
        <ele>222.6</ele>
        <time>2019-07-31T08:02:42Z</time>
      </trkpt>
      <trkpt lat="44.14993" lon="4.53737">
        <ele>220.6</ele>
        <time>2019-07-31T08:02:47Z</time>
      </trkpt>
      <trkpt lat="44.15032" lon="4.5375">
        <ele>221.1</ele>
        <time>2019-07-31T08:02:52Z</time>
      </trkpt>
      <trkpt lat="44.15068" lon="4.53753">
        <ele>220.8</ele>
        <time>2019-07-31T08:02:57Z</time>
      </trkpt>
      <trkpt lat="44.15108" lon="4.53745">
        <ele>218.5</ele>
        <time>2019-07-31T08:03:02Z</time>
      </trkpt>
      <trkpt lat="44.15152" lon="4.53737">
        <ele>215.6</ele>
        <time>2019-07-31T08:03:07Z</time>
      </trkpt>
      <trkpt lat="44.15198" lon="4.53728">
        <ele>213.6</ele>
        <time>2019-07-31T08:03:12Z</time>
      </trkpt>
      <trkpt lat="44.15245" lon="4.53717">
        <ele>210.9</ele>
        <time>2019-07-31T08:03:17Z</time>
      </trkpt>
      <trkpt lat="44.15275" lon="4.53673">
        <ele>208.1</ele>
        <time>2019-07-31T08:03:22Z</time>
      </trkpt>
      <trkpt lat="44.15317" lon="4.53653">
        <ele>205.8</ele>
        <time>2019-07-31T08:03:27Z</time>
      </trkpt>
      <trkpt lat="44.15362" lon="4.53653">
        <ele>204.4</ele>
        <time>2019-07-31T08:03:32Z</time>
      </trkpt>
      <trkpt lat="44.15408" lon="4.5365">
        <ele>202.4</ele>
        <time>2019-07-31T08:03:37Z</time>
      </trkpt>
      <trkpt lat="44.15453" lon="4.53655">
        <ele>201.4</ele>
        <time>2019-07-31T08:03:42Z</time>
      </trkpt>
      <trkpt lat="44.155" lon="4.53663">
        <ele>200.3</ele>
        <time>2019-07-31T08:03:47Z</time>
      </trkpt>
      <trkpt lat="44.15548" lon="4.5367">
        <ele>197.5</ele>
        <time>2019-07-31T08:03:52Z</time>
      </trkpt>
      <trkpt lat="44.15593" lon="4.53672">
        <ele>196.8</ele>
        <time>2019-07-31T08:03:57Z</time>
      </trkpt>
      <trkpt lat="44.15638" lon="4.53673">
        <ele>196</ele>
        <time>2019-07-31T08:04:02Z</time>
      </trkpt>
      <trkpt lat="44.15682" lon="4.5367">
        <ele>196.3</ele>
        <time>2019-07-31T08:04:07Z</time>
      </trkpt>
      <trkpt lat="44.15703" lon="4.53637">
        <ele>196.1</ele>
        <time>2019-07-31T08:04:12Z</time>
      </trkpt>
      <trkpt lat="44.15682" lon="4.53597">
        <ele>194.1</ele>
        <time>2019-07-31T08:04:17Z</time>
      </trkpt>
      <trkpt lat="44.1565" lon="4.53557">
        <ele>192.3</ele>
        <time>2019-07-31T08:04:22Z</time>
      </trkpt>
      <trkpt lat="44.15623" lon="4.5351">
        <ele>190.3</ele>
        <time>2019-07-31T08:04:27Z</time>
      </trkpt>
      <trkpt lat="44.15605" lon="4.53465">
        <ele>188</ele>
        <time>2019-07-31T08:04:32Z</time>
      </trkpt>
      <trkpt lat="44.15602" lon="4.53433">
        <ele>186.6</ele>
        <time>2019-07-31T08:04:37Z</time>
      </trkpt>
      <trkpt lat="44.15592" lon="4.53417">
        <ele>185.6</ele>
        <time>2019-07-31T08:04:42Z</time>
      </trkpt>
      <trkpt lat="44.15585" lon="4.53407">
        <ele>190.3</ele>
        <time>2019-07-31T08:04:47Z</time>
      </trkpt>
      <trkpt lat="44.15575" lon="4.53393">
        <ele>191.2</ele>
        <time>2019-07-31T08:04:52Z</time>
      </trkpt>
      <trkpt lat="44.15558" lon="4.53387">
        <ele>193.6</ele>
        <time>2019-07-31T08:04:57Z</time>
      </trkpt>
      <trkpt lat="44.15543" lon="4.53385">
        <ele>195.2</ele>
        <time>2019-07-31T08:05:02Z</time>
      </trkpt>
      <trkpt lat="44.1553" lon="4.53382">
        <ele>196.9</ele>
        <time>2019-07-31T08:05:07Z</time>
      </trkpt>
      <trkpt lat="44.15517" lon="4.53377">
        <ele>196.4</ele>
        <time>2019-07-31T08:05:12Z</time>
      </trkpt>
      <trkpt lat="44.155" lon="4.53368">
        <ele>196.9</ele>
        <time>2019-07-31T08:05:17Z</time>
      </trkpt>
      <trkpt lat="44.15482" lon="4.53362">
        <ele>197.6</ele>
        <time>2019-07-31T08:05:22Z</time>
      </trkpt>
      <trkpt lat="44.15467" lon="4.5335">
        <ele>197.7</ele>
        <time>2019-07-31T08:05:27Z</time>
      </trkpt>
      <trkpt lat="44.15452" lon="4.53342">
        <ele>200.9</ele>
        <time>2019-07-31T08:05:32Z</time>
      </trkpt>
      <trkpt lat="44.15435" lon="4.53337">
        <ele>200.8</ele>
        <time>2019-07-31T08:05:37Z</time>
      </trkpt>
      <trkpt lat="44.1542" lon="4.53328">
        <ele>203</ele>
        <time>2019-07-31T08:05:42Z</time>
      </trkpt>
      <trkpt lat="44.15405" lon="4.53322">
        <ele>203.9</ele>
        <time>2019-07-31T08:05:47Z</time>
      </trkpt>
      <trkpt lat="44.1539" lon="4.53317">
        <ele>202.8</ele>
        <time>2019-07-31T08:05:52Z</time>
      </trkpt>
      <trkpt lat="44.15375" lon="4.53308">
        <ele>204</ele>
        <time>2019-07-31T08:05:57Z</time>
      </trkpt>
      <trkpt lat="44.1536" lon="4.53302">
        <ele>205.7</ele>
        <time>2019-07-31T08:06:02Z</time>
      </trkpt>
      <trkpt lat="44.15347" lon="4.53295">
        <ele>206.3</ele>
        <time>2019-07-31T08:06:07Z</time>
      </trkpt>
      <trkpt lat="44.15333" lon="4.53287">
        <ele>207.5</ele>
        <time>2019-07-31T08:06:12Z</time>
      </trkpt>
      <trkpt lat="44.15322" lon="4.53277">
        <ele>209.2</ele>
        <time>2019-07-31T08:06:17Z</time>
      </trkpt>
      <trkpt lat="44.15312" lon="4.53267">
        <ele>210.4</ele>
        <time>2019-07-31T08:06:22Z</time>
      </trkpt>
      <trkpt lat="44.153" lon="4.53262">
        <ele>211.9</ele>
        <time>2019-07-31T08:06:27Z</time>
      </trkpt>
      <trkpt lat="44.1529" lon="4.53253">
        <ele>213.3</ele>
        <time>2019-07-31T08:06:32Z</time>
      </trkpt>
      <trkpt lat="44.15278" lon="4.53247">
        <ele>213.6</ele>
        <time>2019-07-31T08:06:37Z</time>
      </trkpt>
      <trkpt lat="44.1527" lon="4.5324">
        <ele>215.1</ele>
        <time>2019-07-31T08:06:42Z</time>
      </trkpt>
      <trkpt lat="44.1526" lon="4.53232">
        <ele>217</ele>
        <time>2019-07-31T08:06:47Z</time>
      </trkpt>
      <trkpt lat="44.15252" lon="4.53227">
        <ele>218.4</ele>
        <time>2019-07-31T08:06:52Z</time>
      </trkpt>
      <trkpt lat="44.15243" lon="4.53218">
        <ele>220.6</ele>
        <time>2019-07-31T08:06:57Z</time>
      </trkpt>
      <trkpt lat="44.15233" lon="4.53213">
        <ele>222.4</ele>
        <time>2019-07-31T08:07:02Z</time>
      </trkpt>
      <trkpt lat="44.15223" lon="4.53212">
        <ele>221.6</ele>
        <time>2019-07-31T08:07:07Z</time>
      </trkpt>
      <trkpt lat="44.15212" lon="4.53213">
        <ele>223.1</ele>
        <time>2019-07-31T08:07:12Z</time>
      </trkpt>
      <trkpt lat="44.15207" lon="4.53223">
        <ele>224.2</ele>
        <time>2019-07-31T08:07:17Z</time>
      </trkpt>
      <trkpt lat="44.15207" lon="4.5324">
        <ele>225</ele>
        <time>2019-07-31T08:07:22Z</time>
      </trkpt>
      <trkpt lat="44.15205" lon="4.53258">
        <ele>226</ele>
        <time>2019-07-31T08:07:27Z</time>
      </trkpt>
      <trkpt lat="44.15197" lon="4.53272">
        <ele>227.4</ele>
        <time>2019-07-31T08:07:32Z</time>
      </trkpt>
      <trkpt lat="44.15187" lon="4.53278">
        <ele>226.6</ele>
        <time>2019-07-31T08:07:37Z</time>
      </trkpt>
      <trkpt lat="44.15177" lon="4.5328">
        <ele>228.3</ele>
        <time>2019-07-31T08:07:42Z</time>
      </trkpt>
      <trkpt lat="44.15167" lon="4.53273">
        <ele>228.9</ele>
        <time>2019-07-31T08:07:47Z</time>
      </trkpt>
      <trkpt lat="44.15158" lon="4.53265">
        <ele>230.1</ele>
        <time>2019-07-31T08:07:52Z</time>
      </trkpt>
      <trkpt lat="44.15152" lon="4.53257">
        <ele>231.8</ele>
        <time>2019-07-31T08:07:57Z</time>
      </trkpt>
      <trkpt lat="44.15143" lon="4.53248">
        <ele>233.3</ele>
        <time>2019-07-31T08:08:02Z</time>
      </trkpt>
      <trkpt lat="44.15133" lon="4.53243">
        <ele>234.7</ele>
        <time>2019-07-31T08:08:07Z</time>
      </trkpt>
      <trkpt lat="44.15122" lon="4.53237">
        <ele>233.8</ele>
        <time>2019-07-31T08:08:12Z</time>
      </trkpt>
      <trkpt lat="44.15113" lon="4.53223">
        <ele>234.5</ele>
        <time>2019-07-31T08:08:17Z</time>
      </trkpt>
      <trkpt lat="44.15113" lon="4.53205">
        <ele>233.8</ele>
        <time>2019-07-31T08:08:22Z</time>
      </trkpt>
      <trkpt lat="44.15115" lon="4.53185">
        <ele>234.8</ele>
        <time>2019-07-31T08:08:27Z</time>
      </trkpt>
      <trkpt lat="44.15118" lon="4.53172">
        <ele>234.8</ele>
        <time>2019-07-31T08:08:32Z</time>
      </trkpt>
      <trkpt lat="44.1512" lon="4.53157">
        <ele>236.3</ele>
        <time>2019-07-31T08:08:37Z</time>
      </trkpt>
      <trkpt lat="44.15113" lon="4.53153">
        <ele>238</ele>
        <time>2019-07-31T08:08:42Z</time>
      </trkpt>
      <trkpt lat="44.15105" lon="4.53157">
        <ele>239</ele>
        <time>2019-07-31T08:08:47Z</time>
      </trkpt>
      <trkpt lat="44.15097" lon="4.53163">
        <ele>241.3</ele>
        <time>2019-07-31T08:08:52Z</time>
      </trkpt>
      <trkpt lat="44.15088" lon="4.53162">
        <ele>240.6</ele>
        <time>2019-07-31T08:08:57Z</time>
      </trkpt>
      <trkpt lat="44.1508" lon="4.53162">
        <ele>243.3</ele>
        <time>2019-07-31T08:09:02Z</time>
      </trkpt>
      <trkpt lat="44.1507" lon="4.5316">
        <ele>243.5</ele>
        <time>2019-07-31T08:09:07Z</time>
      </trkpt>
      <trkpt lat="44.1506" lon="4.53162">
        <ele>244.5</ele>
        <time>2019-07-31T08:09:12Z</time>
      </trkpt>
      <trkpt lat="44.15052" lon="4.5316">
        <ele>246.1</ele>
        <time>2019-07-31T08:09:17Z</time>
      </trkpt>
      <trkpt lat="44.15043" lon="4.53158">
        <ele>247.6</ele>
        <time>2019-07-31T08:09:22Z</time>
      </trkpt>
      <trkpt lat="44.15037" lon="4.53157">
        <ele>247.1</ele>
        <time>2019-07-31T08:09:27Z</time>
      </trkpt>
      <trkpt lat="44.1503" lon="4.53153">
        <ele>248.5</ele>
        <time>2019-07-31T08:09:32Z</time>
      </trkpt>
      <trkpt lat="44.15022" lon="4.53152">
        <ele>249.3</ele>
        <time>2019-07-31T08:09:37Z</time>
      </trkpt>
      <trkpt lat="44.15015" lon="4.53148">
        <ele>250.2</ele>
        <time>2019-07-31T08:09:42Z</time>
      </trkpt>
      <trkpt lat="44.15005" lon="4.53145">
        <ele>252.3</ele>
        <time>2019-07-31T08:09:47Z</time>
      </trkpt>
      <trkpt lat="44.14995" lon="4.53142">
        <ele>252.9</ele>
        <time>2019-07-31T08:09:52Z</time>
      </trkpt>
      <trkpt lat="44.14985" lon="4.53138">
        <ele>254.1</ele>
        <time>2019-07-31T08:09:57Z</time>
      </trkpt>
      <trkpt lat="44.14977" lon="4.53135">
        <ele>254.3</ele>
        <time>2019-07-31T08:10:02Z</time>
      </trkpt>
      <trkpt lat="44.14967" lon="4.53132">
        <ele>256.2</ele>
        <time>2019-07-31T08:10:07Z</time>
      </trkpt>
      <trkpt lat="44.14958" lon="4.53128">
        <ele>258.2</ele>
        <time>2019-07-31T08:10:12Z</time>
      </trkpt>
      <trkpt lat="44.14948" lon="4.53123">
        <ele>257.5</ele>
        <time>2019-07-31T08:10:17Z</time>
      </trkpt>
      <trkpt lat="44.1494" lon="4.5312">
        <ele>259.3</ele>
        <time>2019-07-31T08:10:22Z</time>
      </trkpt>
      <trkpt lat="44.14932" lon="4.53115">
        <ele>260.7</ele>
        <time>2019-07-31T08:10:27Z</time>
      </trkpt>
      <trkpt lat="44.14923" lon="4.53113">
        <ele>262.6</ele>
        <time>2019-07-31T08:10:32Z</time>
      </trkpt>
      <trkpt lat="44.14915" lon="4.53108">
        <ele>261.7</ele>
        <time>2019-07-31T08:10:37Z</time>
      </trkpt>
      <trkpt lat="44.14907" lon="4.53103">
        <ele>264.4</ele>
        <time>2019-07-31T08:10:42Z</time>
      </trkpt>
      <trkpt lat="44.14898" lon="4.53098">
        <ele>264.5</ele>
        <time>2019-07-31T08:10:47Z</time>
      </trkpt>
      <trkpt lat="44.14888" lon="4.53093">
        <ele>266.3</ele>
        <time>2019-07-31T08:10:52Z</time>
      </trkpt>
      <trkpt lat="44.14878" lon="4.53088">
        <ele>267.4</ele>
        <time>2019-07-31T08:10:57Z</time>
      </trkpt>
      <trkpt lat="44.1487" lon="4.53087">
        <ele>268</ele>
        <time>2019-07-31T08:11:02Z</time>
      </trkpt>
      <trkpt lat="44.14862" lon="4.53085">
        <ele>269.2</ele>
        <time>2019-07-31T08:11:07Z</time>
      </trkpt>
      <trkpt lat="44.14852" lon="4.53083">
        <ele>271.2</ele>
        <time>2019-07-31T08:11:12Z</time>
      </trkpt>
      <trkpt lat="44.14843" lon="4.53085">
        <ele>273.1</ele>
        <time>2019-07-31T08:11:17Z</time>
      </trkpt>
      <trkpt lat="44.14835" lon="4.53087">
        <ele>274.6</ele>
        <time>2019-07-31T08:11:22Z</time>
      </trkpt>
      <trkpt lat="44.14827" lon="4.53093">
        <ele>275.6</ele>
        <time>2019-07-31T08:11:27Z</time>
      </trkpt>
      <trkpt lat="44.1482" lon="4.531">
        <ele>276.5</ele>
        <time>2019-07-31T08:11:32Z</time>
      </trkpt>
      <trkpt lat="44.14813" lon="4.53105">
        <ele>279</ele>
        <time>2019-07-31T08:11:37Z</time>
      </trkpt>
      <trkpt lat="44.14805" lon="4.5311">
        <ele>279.7</ele>
        <time>2019-07-31T08:11:42Z</time>
      </trkpt>
      <trkpt lat="44.14797" lon="4.53113">
        <ele>281.4</ele>
        <time>2019-07-31T08:11:47Z</time>
      </trkpt>
      <trkpt lat="44.14792" lon="4.53117">
        <ele>280.7</ele>
        <time>2019-07-31T08:11:52Z</time>
      </trkpt>
      <trkpt lat="44.14782" lon="4.5312">
        <ele>281</ele>
        <time>2019-07-31T08:11:57Z</time>
      </trkpt>
      <trkpt lat="44.14767" lon="4.53123">
        <ele>278.5</ele>
        <time>2019-07-31T08:12:02Z</time>
      </trkpt>
      <trkpt lat="44.14745" lon="4.53127">
        <ele>275.9</ele>
        <time>2019-07-31T08:12:07Z</time>
      </trkpt>
      <trkpt lat="44.14723" lon="4.53132">
        <ele>275.6</ele>
        <time>2019-07-31T08:12:12Z</time>
      </trkpt>
      <trkpt lat="44.14702" lon="4.53133">
        <ele>276.3</ele>
        <time>2019-07-31T08:12:17Z</time>
      </trkpt>
      <trkpt lat="44.14677" lon="4.5314">
        <ele>275.3</ele>
        <time>2019-07-31T08:12:22Z</time>
      </trkpt>
      <trkpt lat="44.14652" lon="4.53142">
        <ele>276.1</ele>
        <time>2019-07-31T08:12:27Z</time>
      </trkpt>
      <trkpt lat="44.14628" lon="4.5315">
        <ele>271.8</ele>
        <time>2019-07-31T08:12:32Z</time>
      </trkpt>
      <trkpt lat="44.14607" lon="4.53163">
        <ele>272</ele>
        <time>2019-07-31T08:12:37Z</time>
      </trkpt>
      <trkpt lat="44.14582" lon="4.5317">
        <ele>271.5</ele>
        <time>2019-07-31T08:12:42Z</time>
      </trkpt>
      <trkpt lat="44.14553" lon="4.53173">
        <ele>273</ele>
        <time>2019-07-31T08:12:47Z</time>
      </trkpt>
      <trkpt lat="44.14525" lon="4.53178">
        <ele>271</ele>
        <time>2019-07-31T08:12:52Z</time>
      </trkpt>
      <trkpt lat="44.14495" lon="4.53183">
        <ele>272.5</ele>
        <time>2019-07-31T08:12:57Z</time>
      </trkpt>
      <trkpt lat="44.14468" lon="4.53188">
        <ele>271.5</ele>
        <time>2019-07-31T08:13:02Z</time>
      </trkpt>
      <trkpt lat="44.14443" lon="4.53193">
        <ele>270.8</ele>
        <time>2019-07-31T08:13:07Z</time>
      </trkpt>
      <trkpt lat="44.14418" lon="4.53195">
        <ele>271.7</ele>
        <time>2019-07-31T08:13:12Z</time>
      </trkpt>
      <trkpt lat="44.14392" lon="4.53198">
        <ele>269.7</ele>
        <time>2019-07-31T08:13:17Z</time>
      </trkpt>
      <trkpt lat="44.14365" lon="4.5319">
        <ele>271.1</ele>
        <time>2019-07-31T08:13:22Z</time>
      </trkpt>
      <trkpt lat="44.1434" lon="4.53172">
        <ele>265.3</ele>
        <time>2019-07-31T08:13:27Z</time>
      </trkpt>
      <trkpt lat="44.1431" lon="4.53178">
        <ele>262</ele>
        <time>2019-07-31T08:13:32Z</time>
      </trkpt>
      <trkpt lat="44.14272" lon="4.53177">
        <ele>260</ele>
        <time>2019-07-31T08:13:37Z</time>
      </trkpt>
      <trkpt lat="44.14242" lon="4.5315">
        <ele>255</ele>
        <time>2019-07-31T08:13:42Z</time>
      </trkpt>
      <trkpt lat="44.14218" lon="4.53142">
        <ele>254.9</ele>
        <time>2019-07-31T08:13:47Z</time>
      </trkpt>
      <trkpt lat="44.14213" lon="4.53165">
        <ele>255.3</ele>
        <time>2019-07-31T08:13:52Z</time>
      </trkpt>
      <trkpt lat="44.14207" lon="4.53168">
        <ele>253</ele>
        <time>2019-07-31T08:13:57Z</time>
      </trkpt>
      <trkpt lat="44.14202" lon="4.53147">
        <ele>253</ele>
        <time>2019-07-31T08:14:02Z</time>
      </trkpt>
      <trkpt lat="44.142" lon="4.53108">
        <ele>250.3</ele>
        <time>2019-07-31T08:14:07Z</time>
      </trkpt>
      <trkpt lat="44.142" lon="4.53065">
        <ele>248.1</ele>
        <time>2019-07-31T08:14:12Z</time>
      </trkpt>
      <trkpt lat="44.14185" lon="4.53033">
        <ele>247</ele>
        <time>2019-07-31T08:14:17Z</time>
      </trkpt>
      <trkpt lat="44.1417" lon="4.53">
        <ele>246.7</ele>
        <time>2019-07-31T08:14:22Z</time>
      </trkpt>
      <trkpt lat="44.1416" lon="4.5296">
        <ele>246.7</ele>
        <time>2019-07-31T08:14:27Z</time>
      </trkpt>
      <trkpt lat="44.14153" lon="4.52918">
        <ele>247.4</ele>
        <time>2019-07-31T08:14:32Z</time>
      </trkpt>
      <trkpt lat="44.14145" lon="4.5288">
        <ele>246.3</ele>
        <time>2019-07-31T08:14:37Z</time>
      </trkpt>
      <trkpt lat="44.14135" lon="4.52845">
        <ele>248.3</ele>
        <time>2019-07-31T08:14:42Z</time>
      </trkpt>
      <trkpt lat="44.14122" lon="4.52817">
        <ele>247.4</ele>
        <time>2019-07-31T08:14:47Z</time>
      </trkpt>
      <trkpt lat="44.14103" lon="4.5279">
        <ele>246.9</ele>
        <time>2019-07-31T08:14:52Z</time>
      </trkpt>
      <trkpt lat="44.1409" lon="4.52755">
        <ele>246.9</ele>
        <time>2019-07-31T08:14:57Z</time>
      </trkpt>
      <trkpt lat="44.14088" lon="4.52725">
        <ele>248.1</ele>
        <time>2019-07-31T08:15:02Z</time>
      </trkpt>
      <trkpt lat="44.14097" lon="4.52698">
        <ele>247.9</ele>
        <time>2019-07-31T08:15:07Z</time>
      </trkpt>
      <trkpt lat="44.14088" lon="4.52687">
        <ele>250.6</ele>
        <time>2019-07-31T08:15:12Z</time>
      </trkpt>
      <trkpt lat="44.14077" lon="4.5268">
        <ele>250.9</ele>
        <time>2019-07-31T08:15:17Z</time>
      </trkpt>
      <trkpt lat="44.14072" lon="4.52663">
        <ele>251.3</ele>
        <time>2019-07-31T08:15:22Z</time>
      </trkpt>
      <trkpt lat="44.14063" lon="4.52643">
        <ele>252.4</ele>
        <time>2019-07-31T08:15:27Z</time>
      </trkpt>
      <trkpt lat="44.14055" lon="4.52625">
        <ele>254</ele>
        <time>2019-07-31T08:15:32Z</time>
      </trkpt>
      <trkpt lat="44.1405" lon="4.52612">
        <ele>255.9</ele>
        <time>2019-07-31T08:15:37Z</time>
      </trkpt>
      <trkpt lat="44.14043" lon="4.52598">
        <ele>256.5</ele>
        <time>2019-07-31T08:15:42Z</time>
      </trkpt>
      <trkpt lat="44.14035" lon="4.5259">
        <ele>257.9</ele>
        <time>2019-07-31T08:15:47Z</time>
      </trkpt>
      <trkpt lat="44.14027" lon="4.52583">
        <ele>259.6</ele>
        <time>2019-07-31T08:15:52Z</time>
      </trkpt>
      <trkpt lat="44.14015" lon="4.52577">
        <ele>260.2</ele>
        <time>2019-07-31T08:15:57Z</time>
      </trkpt>
      <trkpt lat="44.14002" lon="4.5257">
        <ele>261.9</ele>
        <time>2019-07-31T08:16:02Z</time>
      </trkpt>
      <trkpt lat="44.13988" lon="4.52562">
        <ele>262.1</ele>
        <time>2019-07-31T08:16:07Z</time>
      </trkpt>
      <trkpt lat="44.13972" lon="4.52553">
        <ele>260.7</ele>
        <time>2019-07-31T08:16:12Z</time>
      </trkpt>
      <trkpt lat="44.13952" lon="4.5254">
        <ele>260.8</ele>
        <time>2019-07-31T08:16:17Z</time>
      </trkpt>
      <trkpt lat="44.13927" lon="4.52523">
        <ele>259.1</ele>
        <time>2019-07-31T08:16:22Z</time>
      </trkpt>
      <trkpt lat="44.139" lon="4.52505">
        <ele>258.3</ele>
        <time>2019-07-31T08:16:27Z</time>
      </trkpt>
      <trkpt lat="44.13872" lon="4.52493">
        <ele>255.4</ele>
        <time>2019-07-31T08:16:32Z</time>
      </trkpt>
      <trkpt lat="44.1384" lon="4.52493">
        <ele>253.2</ele>
        <time>2019-07-31T08:16:37Z</time>
      </trkpt>
      <trkpt lat="44.13817" lon="4.525">
        <ele>254.2</ele>
        <time>2019-07-31T08:16:42Z</time>
      </trkpt>
      <trkpt lat="44.13798" lon="4.52495">
        <ele>252.2</ele>
        <time>2019-07-31T08:16:47Z</time>
      </trkpt>
      <trkpt lat="44.13777" lon="4.52487">
        <ele>249.1</ele>
        <time>2019-07-31T08:16:52Z</time>
      </trkpt>
      <trkpt lat="44.13748" lon="4.52465">
        <ele>249.1</ele>
        <time>2019-07-31T08:16:57Z</time>
      </trkpt>
      <trkpt lat="44.13718" lon="4.52452">
        <ele>245.4</ele>
        <time>2019-07-31T08:17:02Z</time>
      </trkpt>
      <trkpt lat="44.13693" lon="4.52432">
        <ele>241.1</ele>
        <time>2019-07-31T08:17:07Z</time>
      </trkpt>
      <trkpt lat="44.13673" lon="4.52418">
        <ele>244</ele>
        <time>2019-07-31T08:17:12Z</time>
      </trkpt>
      <trkpt lat="44.13652" lon="4.52415">
        <ele>242.6</ele>
        <time>2019-07-31T08:17:17Z</time>
      </trkpt>
      <trkpt lat="44.1363" lon="4.52415">
        <ele>241.4</ele>
        <time>2019-07-31T08:17:22Z</time>
      </trkpt>
      <trkpt lat="44.13605" lon="4.524">
        <ele>242.8</ele>
        <time>2019-07-31T08:17:27Z</time>
      </trkpt>
      <trkpt lat="44.13583" lon="4.52375">
        <ele>240.7</ele>
        <time>2019-07-31T08:17:32Z</time>
      </trkpt>
      <trkpt lat="44.13557" lon="4.52357">
        <ele>237.9</ele>
        <time>2019-07-31T08:17:37Z</time>
      </trkpt>
      <trkpt lat="44.13542" lon="4.52345">
        <ele>241.1</ele>
        <time>2019-07-31T08:17:42Z</time>
      </trkpt>
      <trkpt lat="44.13528" lon="4.52333">
        <ele>242.4</ele>
        <time>2019-07-31T08:17:47Z</time>
      </trkpt>
      <trkpt lat="44.13515" lon="4.52318">
        <ele>242.5</ele>
        <time>2019-07-31T08:17:52Z</time>
      </trkpt>
      <trkpt lat="44.13505" lon="4.52307">
        <ele>244.1</ele>
        <time>2019-07-31T08:17:57Z</time>
      </trkpt>
      <trkpt lat="44.13497" lon="4.52295">
        <ele>245.6</ele>
        <time>2019-07-31T08:18:02Z</time>
      </trkpt>
      <trkpt lat="44.13487" lon="4.52285">
        <ele>247.5</ele>
        <time>2019-07-31T08:18:07Z</time>
      </trkpt>
      <trkpt lat="44.13478" lon="4.52275">
        <ele>248.1</ele>
        <time>2019-07-31T08:18:12Z</time>
      </trkpt>
      <trkpt lat="44.13468" lon="4.52263">
        <ele>250</ele>
        <time>2019-07-31T08:18:17Z</time>
      </trkpt>
      <trkpt lat="44.1346" lon="4.52253">
        <ele>252.8</ele>
        <time>2019-07-31T08:18:22Z</time>
      </trkpt>
      <trkpt lat="44.13452" lon="4.52243">
        <ele>252.8</ele>
        <time>2019-07-31T08:18:27Z</time>
      </trkpt>
      <trkpt lat="44.13443" lon="4.5223">
        <ele>255.3</ele>
        <time>2019-07-31T08:18:32Z</time>
      </trkpt>
      <trkpt lat="44.13433" lon="4.52217">
        <ele>255.1</ele>
        <time>2019-07-31T08:18:37Z</time>
      </trkpt>
      <trkpt lat="44.13425" lon="4.52205">
        <ele>256.3</ele>
        <time>2019-07-31T08:18:42Z</time>
      </trkpt>
      <trkpt lat="44.13417" lon="4.52193">
        <ele>257.4</ele>
        <time>2019-07-31T08:18:47Z</time>
      </trkpt>
      <trkpt lat="44.1341" lon="4.52183">
        <ele>256.7</ele>
        <time>2019-07-31T08:18:52Z</time>
      </trkpt>
      <trkpt lat="44.134" lon="4.5217">
        <ele>258.5</ele>
        <time>2019-07-31T08:18:57Z</time>
      </trkpt>
      <trkpt lat="44.13388" lon="4.52157">
        <ele>257.3</ele>
        <time>2019-07-31T08:19:02Z</time>
      </trkpt>
      <trkpt lat="44.13388" lon="4.52137">
        <ele>257</ele>
        <time>2019-07-31T08:19:07Z</time>
      </trkpt>
      <trkpt lat="44.13397" lon="4.52118">
        <ele>258.3</ele>
        <time>2019-07-31T08:19:12Z</time>
      </trkpt>
      <trkpt lat="44.1341" lon="4.521">
        <ele>257.4</ele>
        <time>2019-07-31T08:19:17Z</time>
      </trkpt>
      <trkpt lat="44.13422" lon="4.52082">
        <ele>257.9</ele>
        <time>2019-07-31T08:19:22Z</time>
      </trkpt>
      <trkpt lat="44.13438" lon="4.52063">
        <ele>259.2</ele>
        <time>2019-07-31T08:19:27Z</time>
      </trkpt>
      <trkpt lat="44.13457" lon="4.52045">
        <ele>258.3</ele>
        <time>2019-07-31T08:19:32Z</time>
      </trkpt>
      <trkpt lat="44.13473" lon="4.52025">
        <ele>257.5</ele>
        <time>2019-07-31T08:19:37Z</time>
      </trkpt>
      <trkpt lat="44.13485" lon="4.52">
        <ele>256.5</ele>
        <time>2019-07-31T08:19:42Z</time>
      </trkpt>
      <trkpt lat="44.13502" lon="4.5198">
        <ele>256.5</ele>
        <time>2019-07-31T08:19:47Z</time>
      </trkpt>
      <trkpt lat="44.13522" lon="4.51972">
        <ele>257.4</ele>
        <time>2019-07-31T08:19:52Z</time>
      </trkpt>
      <trkpt lat="44.13542" lon="4.51963">
        <ele>258.5</ele>
        <time>2019-07-31T08:19:57Z</time>
      </trkpt>
      <trkpt lat="44.13558" lon="4.5195">
        <ele>259.4</ele>
        <time>2019-07-31T08:20:02Z</time>
      </trkpt>
      <trkpt lat="44.13567" lon="4.51917">
        <ele>255.1</ele>
        <time>2019-07-31T08:20:07Z</time>
      </trkpt>
      <trkpt lat="44.13582" lon="4.51888">
        <ele>256.3</ele>
        <time>2019-07-31T08:20:12Z</time>
      </trkpt>
      <trkpt lat="44.136" lon="4.51882">
        <ele>257.6</ele>
        <time>2019-07-31T08:20:17Z</time>
      </trkpt>
      <trkpt lat="44.13618" lon="4.51882">
        <ele>258.1</ele>
        <time>2019-07-31T08:20:22Z</time>
      </trkpt>
      <trkpt lat="44.13638" lon="4.5188">
        <ele>259.9</ele>
        <time>2019-07-31T08:20:27Z</time>
      </trkpt>
      <trkpt lat="44.13658" lon="4.51883">
        <ele>257.9</ele>
        <time>2019-07-31T08:20:32Z</time>
      </trkpt>
      <trkpt lat="44.13682" lon="4.519">
        <ele>251.9</ele>
        <time>2019-07-31T08:20:37Z</time>
      </trkpt>
      <trkpt lat="44.13705" lon="4.51918">
        <ele>251.1</ele>
        <time>2019-07-31T08:20:42Z</time>
      </trkpt>
      <trkpt lat="44.13727" lon="4.51927">
        <ele>250.1</ele>
        <time>2019-07-31T08:20:47Z</time>
      </trkpt>
      <trkpt lat="44.13748" lon="4.51933">
        <ele>251.3</ele>
        <time>2019-07-31T08:20:52Z</time>
      </trkpt>
      <trkpt lat="44.13768" lon="4.51937">
        <ele>251</ele>
        <time>2019-07-31T08:20:57Z</time>
      </trkpt>
      <trkpt lat="44.13792" lon="4.51932">
        <ele>248</ele>
        <time>2019-07-31T08:21:02Z</time>
      </trkpt>
      <trkpt lat="44.1381" lon="4.5191">
        <ele>250</ele>
        <time>2019-07-31T08:21:07Z</time>
      </trkpt>
      <trkpt lat="44.13827" lon="4.51907">
        <ele>248.5</ele>
        <time>2019-07-31T08:21:12Z</time>
      </trkpt>
      <trkpt lat="44.13842" lon="4.51908">
        <ele>251.3</ele>
        <time>2019-07-31T08:21:17Z</time>
      </trkpt>
      <trkpt lat="44.13852" lon="4.519">
        <ele>250.4</ele>
        <time>2019-07-31T08:21:22Z</time>
      </trkpt>
      <trkpt lat="44.13862" lon="4.51898">
        <ele>253.1</ele>
        <time>2019-07-31T08:21:27Z</time>
      </trkpt>
      <trkpt lat="44.13872" lon="4.51902">
        <ele>254.2</ele>
        <time>2019-07-31T08:21:32Z</time>
      </trkpt>
      <trkpt lat="44.13882" lon="4.51902">
        <ele>254.2</ele>
        <time>2019-07-31T08:21:37Z</time>
      </trkpt>
      <trkpt lat="44.1389" lon="4.51902">
        <ele>257.4</ele>
        <time>2019-07-31T08:21:42Z</time>
      </trkpt>
      <trkpt lat="44.13898" lon="4.519">
        <ele>258.5</ele>
        <time>2019-07-31T08:21:47Z</time>
      </trkpt>
      <trkpt lat="44.13908" lon="4.51898">
        <ele>259.6</ele>
        <time>2019-07-31T08:21:52Z</time>
      </trkpt>
      <trkpt lat="44.13918" lon="4.51897">
        <ele>261</ele>
        <time>2019-07-31T08:21:57Z</time>
      </trkpt>
      <trkpt lat="44.13932" lon="4.51895">
        <ele>261</ele>
        <time>2019-07-31T08:22:02Z</time>
      </trkpt>
      <trkpt lat="44.13945" lon="4.51893">
        <ele>260.1</ele>
        <time>2019-07-31T08:22:07Z</time>
      </trkpt>
      <trkpt lat="44.13957" lon="4.51892">
        <ele>261.8</ele>
        <time>2019-07-31T08:22:12Z</time>
      </trkpt>
      <trkpt lat="44.1397" lon="4.5189">
        <ele>262.9</ele>
        <time>2019-07-31T08:22:17Z</time>
      </trkpt>
      <trkpt lat="44.1398" lon="4.51887">
        <ele>264.4</ele>
        <time>2019-07-31T08:22:22Z</time>
      </trkpt>
      <trkpt lat="44.13992" lon="4.51883">
        <ele>265.2</ele>
        <time>2019-07-31T08:22:27Z</time>
      </trkpt>
      <trkpt lat="44.14003" lon="4.51885">
        <ele>266.1</ele>
        <time>2019-07-31T08:22:32Z</time>
      </trkpt>
      <trkpt lat="44.14015" lon="4.51885">
        <ele>266.7</ele>
        <time>2019-07-31T08:22:37Z</time>
      </trkpt>
      <trkpt lat="44.14028" lon="4.51885">
        <ele>267.9</ele>
        <time>2019-07-31T08:22:42Z</time>
      </trkpt>
      <trkpt lat="44.1404" lon="4.51885">
        <ele>269.3</ele>
        <time>2019-07-31T08:22:47Z</time>
      </trkpt>
      <trkpt lat="44.14052" lon="4.51883">
        <ele>270.5</ele>
        <time>2019-07-31T08:22:52Z</time>
      </trkpt>
      <trkpt lat="44.14063" lon="4.51883">
        <ele>269.7</ele>
        <time>2019-07-31T08:22:57Z</time>
      </trkpt>
      <trkpt lat="44.14077" lon="4.51883">
        <ele>271.3</ele>
        <time>2019-07-31T08:23:02Z</time>
      </trkpt>
      <trkpt lat="44.14088" lon="4.51883">
        <ele>272.8</ele>
        <time>2019-07-31T08:23:07Z</time>
      </trkpt>
      <trkpt lat="44.141" lon="4.51883">
        <ele>272</ele>
        <time>2019-07-31T08:23:12Z</time>
      </trkpt>
      <trkpt lat="44.14113" lon="4.51883">
        <ele>274.5</ele>
        <time>2019-07-31T08:23:17Z</time>
      </trkpt>
      <trkpt lat="44.14125" lon="4.51883">
        <ele>273.5</ele>
        <time>2019-07-31T08:23:22Z</time>
      </trkpt>
      <trkpt lat="44.14137" lon="4.51883">
        <ele>275.8</ele>
        <time>2019-07-31T08:23:27Z</time>
      </trkpt>
      <trkpt lat="44.14147" lon="4.51883">
        <ele>275.8</ele>
        <time>2019-07-31T08:23:32Z</time>
      </trkpt>
      <trkpt lat="44.1416" lon="4.51883">
        <ele>277.4</ele>
        <time>2019-07-31T08:23:37Z</time>
      </trkpt>
      <trkpt lat="44.14172" lon="4.51883">
        <ele>279.3</ele>
        <time>2019-07-31T08:23:42Z</time>
      </trkpt>
      <trkpt lat="44.14183" lon="4.51885">
        <ele>279.6</ele>
        <time>2019-07-31T08:23:47Z</time>
      </trkpt>
      <trkpt lat="44.14197" lon="4.51883">
        <ele>279.6</ele>
        <time>2019-07-31T08:23:52Z</time>
      </trkpt>
      <trkpt lat="44.14212" lon="4.51883">
        <ele>281.3</ele>
        <time>2019-07-31T08:23:57Z</time>
      </trkpt>
      <trkpt lat="44.14227" lon="4.51885">
        <ele>282.3</ele>
        <time>2019-07-31T08:24:02Z</time>
      </trkpt>
      <trkpt lat="44.14242" lon="4.51885">
        <ele>282</ele>
        <time>2019-07-31T08:24:07Z</time>
      </trkpt>
      <trkpt lat="44.14258" lon="4.51887">
        <ele>283.8</ele>
        <time>2019-07-31T08:24:12Z</time>
      </trkpt>
      <trkpt lat="44.14275" lon="4.51887">
        <ele>284.4</ele>
        <time>2019-07-31T08:24:17Z</time>
      </trkpt>
      <trkpt lat="44.14292" lon="4.51888">
        <ele>282.9</ele>
        <time>2019-07-31T08:24:22Z</time>
      </trkpt>
      <trkpt lat="44.1431" lon="4.51887">
        <ele>283.1</ele>
        <time>2019-07-31T08:24:27Z</time>
      </trkpt>
      <trkpt lat="44.14328" lon="4.51887">
        <ele>284.5</ele>
        <time>2019-07-31T08:24:32Z</time>
      </trkpt>
      <trkpt lat="44.14347" lon="4.51888">
        <ele>285.8</ele>
        <time>2019-07-31T08:24:37Z</time>
      </trkpt>
      <trkpt lat="44.14365" lon="4.5189">
        <ele>284.9</ele>
        <time>2019-07-31T08:24:42Z</time>
      </trkpt>
      <trkpt lat="44.14382" lon="4.51892">
        <ele>284.9</ele>
        <time>2019-07-31T08:24:47Z</time>
      </trkpt>
      <trkpt lat="44.14398" lon="4.51895">
        <ele>287.2</ele>
        <time>2019-07-31T08:24:52Z</time>
      </trkpt>
      <trkpt lat="44.14413" lon="4.51895">
        <ele>284.1</ele>
        <time>2019-07-31T08:24:57Z</time>
      </trkpt>
      <trkpt lat="44.14427" lon="4.51893">
        <ele>289.4</ele>
        <time>2019-07-31T08:25:02Z</time>
      </trkpt>
      <trkpt lat="44.1444" lon="4.51893">
        <ele>288.4</ele>
        <time>2019-07-31T08:25:07Z</time>
      </trkpt>
      <trkpt lat="44.14453" lon="4.51892">
        <ele>292.5</ele>
        <time>2019-07-31T08:25:12Z</time>
      </trkpt>
      <trkpt lat="44.14467" lon="4.51893">
        <ele>291</ele>
        <time>2019-07-31T08:25:17Z</time>
      </trkpt>
      <trkpt lat="44.14477" lon="4.51895">
        <ele>292.2</ele>
        <time>2019-07-31T08:25:22Z</time>
      </trkpt>
      <trkpt lat="44.14485" lon="4.51897">
        <ele>293.1</ele>
        <time>2019-07-31T08:25:27Z</time>
      </trkpt>
      <trkpt lat="44.14487" lon="4.51898">
        <ele>292.4</ele>
        <time>2019-07-31T08:25:32Z</time>
      </trkpt>
      <trkpt lat="44.14487" lon="4.51898">
        <ele>293.2</ele>
        <time>2019-07-31T08:25:37Z</time>
      </trkpt>
      <trkpt lat="44.1449" lon="4.51897">
        <ele>293.5</ele>
        <time>2019-07-31T08:25:42Z</time>
      </trkpt>
      <trkpt lat="44.1449" lon="4.51895">
        <ele>293.4</ele>
        <time>2019-07-31T08:25:47Z</time>
      </trkpt>
      <trkpt lat="44.14495" lon="4.51888">
        <ele>293.7</ele>
        <time>2019-07-31T08:25:52Z</time>
      </trkpt>
      <trkpt lat="44.14492" lon="4.51865">
        <ele>291</ele>
        <time>2019-07-31T08:25:57Z</time>
      </trkpt>
      <trkpt lat="44.14485" lon="4.51827">
        <ele>288.7</ele>
        <time>2019-07-31T08:26:02Z</time>
      </trkpt>
      <trkpt lat="44.14478" lon="4.51792">
        <ele>292.6</ele>
        <time>2019-07-31T08:26:07Z</time>
      </trkpt>
      <trkpt lat="44.14475" lon="4.51763">
        <ele>288.1</ele>
        <time>2019-07-31T08:26:12Z</time>
      </trkpt>
      <trkpt lat="44.14473" lon="4.51733">
        <ele>292.4</ele>
        <time>2019-07-31T08:26:17Z</time>
      </trkpt>
      <trkpt lat="44.14473" lon="4.51703">
        <ele>290.9</ele>
        <time>2019-07-31T08:26:22Z</time>
      </trkpt>
      <trkpt lat="44.1447" lon="4.51672">
        <ele>292.7</ele>
        <time>2019-07-31T08:26:27Z</time>
      </trkpt>
      <trkpt lat="44.14458" lon="4.51633">
        <ele>290.8</ele>
        <time>2019-07-31T08:26:32Z</time>
      </trkpt>
      <trkpt lat="44.14445" lon="4.51597">
        <ele>292.5</ele>
        <time>2019-07-31T08:26:37Z</time>
      </trkpt>
      <trkpt lat="44.1443" lon="4.51568">
        <ele>290.7</ele>
        <time>2019-07-31T08:26:42Z</time>
      </trkpt>
      <trkpt lat="44.14417" lon="4.51548">
        <ele>292.4</ele>
        <time>2019-07-31T08:26:47Z</time>
      </trkpt>
      <trkpt lat="44.14398" lon="4.51527">
        <ele>292.3</ele>
        <time>2019-07-31T08:26:52Z</time>
      </trkpt>
      <trkpt lat="44.14378" lon="4.51502">
        <ele>291.9</ele>
        <time>2019-07-31T08:26:57Z</time>
      </trkpt>
      <trkpt lat="44.14357" lon="4.5148">
        <ele>291.5</ele>
        <time>2019-07-31T08:27:02Z</time>
      </trkpt>
      <trkpt lat="44.14337" lon="4.51458">
        <ele>292.5</ele>
        <time>2019-07-31T08:27:07Z</time>
      </trkpt>
      <trkpt lat="44.14315" lon="4.51435">
        <ele>291.6</ele>
        <time>2019-07-31T08:27:12Z</time>
      </trkpt>
      <trkpt lat="44.14293" lon="4.5141">
        <ele>294.3</ele>
        <time>2019-07-31T08:27:17Z</time>
      </trkpt>
      <trkpt lat="44.1427" lon="4.51392">
        <ele>292.6</ele>
        <time>2019-07-31T08:27:22Z</time>
      </trkpt>
      <trkpt lat="44.1424" lon="4.5139">
        <ele>292.6</ele>
        <time>2019-07-31T08:27:27Z</time>
      </trkpt>
      <trkpt lat="44.14208" lon="4.51397">
        <ele>290.7</ele>
        <time>2019-07-31T08:27:32Z</time>
      </trkpt>
      <trkpt lat="44.14177" lon="4.51398">
        <ele>292.1</ele>
        <time>2019-07-31T08:27:37Z</time>
      </trkpt>
      <trkpt lat="44.14145" lon="4.51397">
        <ele>290</ele>
        <time>2019-07-31T08:27:42Z</time>
      </trkpt>
      <trkpt lat="44.14113" lon="4.5139">
        <ele>287.6</ele>
        <time>2019-07-31T08:27:47Z</time>
      </trkpt>
      <trkpt lat="44.14087" lon="4.5137">
        <ele>289.1</ele>
        <time>2019-07-31T08:27:52Z</time>
      </trkpt>
      <trkpt lat="44.1407" lon="4.51335">
        <ele>287.3</ele>
        <time>2019-07-31T08:27:57Z</time>
      </trkpt>
      <trkpt lat="44.14058" lon="4.51293">
        <ele>285.1</ele>
        <time>2019-07-31T08:28:02Z</time>
      </trkpt>
      <trkpt lat="44.14052" lon="4.51243">
        <ele>284.1</ele>
        <time>2019-07-31T08:28:07Z</time>
      </trkpt>
      <trkpt lat="44.14042" lon="4.51192">
        <ele>280.1</ele>
        <time>2019-07-31T08:28:12Z</time>
      </trkpt>
      <trkpt lat="44.14028" lon="4.51143">
        <ele>272.6</ele>
        <time>2019-07-31T08:28:17Z</time>
      </trkpt>
      <trkpt lat="44.14002" lon="4.5111">
        <ele>271.5</ele>
        <time>2019-07-31T08:28:22Z</time>
      </trkpt>
      <trkpt lat="44.14" lon="4.51057">
        <ele>268.4</ele>
        <time>2019-07-31T08:28:27Z</time>
      </trkpt>
      <trkpt lat="44.13987" lon="4.50992">
        <ele>263.6</ele>
        <time>2019-07-31T08:28:32Z</time>
      </trkpt>
      <trkpt lat="44.1398" lon="4.50923">
        <ele>261.6</ele>
        <time>2019-07-31T08:28:37Z</time>
      </trkpt>
      <trkpt lat="44.13985" lon="4.50853">
        <ele>255.7</ele>
        <time>2019-07-31T08:28:42Z</time>
      </trkpt>
      <trkpt lat="44.13985" lon="4.50788">
        <ele>255.2</ele>
        <time>2019-07-31T08:28:47Z</time>
      </trkpt>
      <trkpt lat="44.13985" lon="4.50732">
        <ele>254.6</ele>
        <time>2019-07-31T08:28:52Z</time>
      </trkpt>
      <trkpt lat="44.13982" lon="4.50685">
        <ele>258.1</ele>
        <time>2019-07-31T08:28:57Z</time>
      </trkpt>
      <trkpt lat="44.13977" lon="4.50642">
        <ele>260.4</ele>
        <time>2019-07-31T08:29:02Z</time>
      </trkpt>
      <trkpt lat="44.13988" lon="4.50595">
        <ele>255</ele>
        <time>2019-07-31T08:29:07Z</time>
      </trkpt>
      <trkpt lat="44.14002" lon="4.5055">
        <ele>246.8</ele>
        <time>2019-07-31T08:29:12Z</time>
      </trkpt>
      <trkpt lat="44.14015" lon="4.50502">
        <ele>240.9</ele>
        <time>2019-07-31T08:29:17Z</time>
      </trkpt>
      <trkpt lat="44.14035" lon="4.50442">
        <ele>238.4</ele>
        <time>2019-07-31T08:29:22Z</time>
      </trkpt>
      <trkpt lat="44.1405" lon="4.5038">
        <ele>230.3</ele>
        <time>2019-07-31T08:29:27Z</time>
      </trkpt>
      <trkpt lat="44.1405" lon="4.50317">
        <ele>231.4</ele>
        <time>2019-07-31T08:29:32Z</time>
      </trkpt>
      <trkpt lat="44.14048" lon="4.50253">
        <ele>223.4</ele>
        <time>2019-07-31T08:29:37Z</time>
      </trkpt>
      <trkpt lat="44.14045" lon="4.50192">
        <ele>227.4</ele>
        <time>2019-07-31T08:29:42Z</time>
      </trkpt>
      <trkpt lat="44.14045" lon="4.50128">
        <ele>225.2</ele>
        <time>2019-07-31T08:29:47Z</time>
      </trkpt>
      <trkpt lat="44.14053" lon="4.50068">
        <ele>219.2</ele>
        <time>2019-07-31T08:29:52Z</time>
      </trkpt>
      <trkpt lat="44.14068" lon="4.50012">
        <ele>218.9</ele>
        <time>2019-07-31T08:29:57Z</time>
      </trkpt>
      <trkpt lat="44.14078" lon="4.49967">
        <ele>213.5</ele>
        <time>2019-07-31T08:30:02Z</time>
      </trkpt>
      <trkpt lat="44.14083" lon="4.49947">
        <ele>211.5</ele>
        <time>2019-07-31T08:30:07Z</time>
      </trkpt>
      <trkpt lat="44.14077" lon="4.49943">
        <ele>210.5</ele>
        <time>2019-07-31T08:30:12Z</time>
      </trkpt>
      <trkpt lat="44.14067" lon="4.49952">
        <ele>208.9</ele>
        <time>2019-07-31T08:30:17Z</time>
      </trkpt>
      <trkpt lat="44.14052" lon="4.49957">
        <ele>211.8</ele>
        <time>2019-07-31T08:30:22Z</time>
      </trkpt>
      <trkpt lat="44.14037" lon="4.4996">
        <ele>214.4</ele>
        <time>2019-07-31T08:30:27Z</time>
      </trkpt>
      <trkpt lat="44.14023" lon="4.49962">
        <ele>216</ele>
        <time>2019-07-31T08:30:32Z</time>
      </trkpt>
      <trkpt lat="44.14008" lon="4.49963">
        <ele>213.9</ele>
        <time>2019-07-31T08:30:37Z</time>
      </trkpt>
      <trkpt lat="44.1399" lon="4.49972">
        <ele>216.6</ele>
        <time>2019-07-31T08:30:42Z</time>
      </trkpt>
      <trkpt lat="44.13968" lon="4.49978">
        <ele>214.7</ele>
        <time>2019-07-31T08:30:47Z</time>
      </trkpt>
      <trkpt lat="44.13948" lon="4.49985">
        <ele>218.9</ele>
        <time>2019-07-31T08:30:52Z</time>
      </trkpt>
      <trkpt lat="44.13925" lon="4.49995">
        <ele>218</ele>
        <time>2019-07-31T08:30:57Z</time>
      </trkpt>
      <trkpt lat="44.13903" lon="4.50015">
        <ele>218</ele>
        <time>2019-07-31T08:31:02Z</time>
      </trkpt>
      <trkpt lat="44.13887" lon="4.50042">
        <ele>217</ele>
        <time>2019-07-31T08:31:07Z</time>
      </trkpt>
      <trkpt lat="44.13867" lon="4.50068">
        <ele>218</ele>
        <time>2019-07-31T08:31:12Z</time>
      </trkpt>
      <trkpt lat="44.13847" lon="4.50097">
        <ele>216.7</ele>
        <time>2019-07-31T08:31:17Z</time>
      </trkpt>
      <trkpt lat="44.13823" lon="4.50125">
        <ele>218.1</ele>
        <time>2019-07-31T08:31:22Z</time>
      </trkpt>
      <trkpt lat="44.13797" lon="4.50145">
        <ele>218</ele>
        <time>2019-07-31T08:31:27Z</time>
      </trkpt>
      <trkpt lat="44.1377" lon="4.50158">
        <ele>215.6</ele>
        <time>2019-07-31T08:31:32Z</time>
      </trkpt>
      <trkpt lat="44.13747" lon="4.50182">
        <ele>218.1</ele>
        <time>2019-07-31T08:31:37Z</time>
      </trkpt>
      <trkpt lat="44.13723" lon="4.50202">
        <ele>218.2</ele>
        <time>2019-07-31T08:31:42Z</time>
      </trkpt>
      <trkpt lat="44.13705" lon="4.50222">
        <ele>219.7</ele>
        <time>2019-07-31T08:31:47Z</time>
      </trkpt>
      <trkpt lat="44.1369" lon="4.50238">
        <ele>221.5</ele>
        <time>2019-07-31T08:31:52Z</time>
      </trkpt>
      <trkpt lat="44.13672" lon="4.50252">
        <ele>221</ele>
        <time>2019-07-31T08:31:57Z</time>
      </trkpt>
      <trkpt lat="44.13643" lon="4.50263">
        <ele>219.2</ele>
        <time>2019-07-31T08:32:02Z</time>
      </trkpt>
      <trkpt lat="44.13617" lon="4.50273">
        <ele>218.6</ele>
        <time>2019-07-31T08:32:07Z</time>
      </trkpt>
      <trkpt lat="44.13593" lon="4.50283">
        <ele>216.1</ele>
        <time>2019-07-31T08:32:12Z</time>
      </trkpt>
      <trkpt lat="44.1357" lon="4.50298">
        <ele>218.9</ele>
        <time>2019-07-31T08:32:17Z</time>
      </trkpt>
      <trkpt lat="44.13548" lon="4.50313">
        <ele>220.5</ele>
        <time>2019-07-31T08:32:22Z</time>
      </trkpt>
      <trkpt lat="44.1353" lon="4.5033">
        <ele>222.1</ele>
        <time>2019-07-31T08:32:27Z</time>
      </trkpt>
      <trkpt lat="44.1351" lon="4.50335">
        <ele>224</ele>
        <time>2019-07-31T08:32:32Z</time>
      </trkpt>
      <trkpt lat="44.13493" lon="4.50345">
        <ele>224.7</ele>
        <time>2019-07-31T08:32:37Z</time>
      </trkpt>
      <trkpt lat="44.13477" lon="4.5036">
        <ele>224.7</ele>
        <time>2019-07-31T08:32:42Z</time>
      </trkpt>
      <trkpt lat="44.13465" lon="4.50373">
        <ele>227.1</ele>
        <time>2019-07-31T08:32:47Z</time>
      </trkpt>
      <trkpt lat="44.1345" lon="4.5039">
        <ele>227.2</ele>
        <time>2019-07-31T08:32:52Z</time>
      </trkpt>
      <trkpt lat="44.13438" lon="4.5041">
        <ele>226.1</ele>
        <time>2019-07-31T08:32:57Z</time>
      </trkpt>
      <trkpt lat="44.13423" lon="4.50432">
        <ele>226.4</ele>
        <time>2019-07-31T08:33:02Z</time>
      </trkpt>
      <trkpt lat="44.13407" lon="4.50455">
        <ele>226.2</ele>
        <time>2019-07-31T08:33:07Z</time>
      </trkpt>
      <trkpt lat="44.13392" lon="4.50477">
        <ele>227.7</ele>
        <time>2019-07-31T08:33:12Z</time>
      </trkpt>
      <trkpt lat="44.13373" lon="4.50502">
        <ele>230.4</ele>
        <time>2019-07-31T08:33:17Z</time>
      </trkpt>
      <trkpt lat="44.1336" lon="4.50525">
        <ele>230.4</ele>
        <time>2019-07-31T08:33:22Z</time>
      </trkpt>
      <trkpt lat="44.13348" lon="4.50548">
        <ele>231</ele>
        <time>2019-07-31T08:33:27Z</time>
      </trkpt>
      <trkpt lat="44.13342" lon="4.50572">
        <ele>230.3</ele>
        <time>2019-07-31T08:33:32Z</time>
      </trkpt>
      <trkpt lat="44.13342" lon="4.50615">
        <ele>229.7</ele>
        <time>2019-07-31T08:33:37Z</time>
      </trkpt>
      <trkpt lat="44.13335" lon="4.50655">
        <ele>228.2</ele>
        <time>2019-07-31T08:33:42Z</time>
      </trkpt>
      <trkpt lat="44.13328" lon="4.50685">
        <ele>225.8</ele>
        <time>2019-07-31T08:33:47Z</time>
      </trkpt>
      <trkpt lat="44.13325" lon="4.50712">
        <ele>226.2</ele>
        <time>2019-07-31T08:33:52Z</time>
      </trkpt>
      <trkpt lat="44.13318" lon="4.50733">
        <ele>230.3</ele>
        <time>2019-07-31T08:33:57Z</time>
      </trkpt>
      <trkpt lat="44.13315" lon="4.50757">
        <ele>225.4</ele>
        <time>2019-07-31T08:34:02Z</time>
      </trkpt>
      <trkpt lat="44.13315" lon="4.50778">
        <ele>228.9</ele>
        <time>2019-07-31T08:34:07Z</time>
      </trkpt>
      <trkpt lat="44.13312" lon="4.50798">
        <ele>231.3</ele>
        <time>2019-07-31T08:34:12Z</time>
      </trkpt>
      <trkpt lat="44.13308" lon="4.5082">
        <ele>232.2</ele>
        <time>2019-07-31T08:34:17Z</time>
      </trkpt>
      <trkpt lat="44.13305" lon="4.50842">
        <ele>231.5</ele>
        <time>2019-07-31T08:34:22Z</time>
      </trkpt>
      <trkpt lat="44.13298" lon="4.50862">
        <ele>233</ele>
        <time>2019-07-31T08:34:27Z</time>
      </trkpt>
      <trkpt lat="44.13283" lon="4.50868">
        <ele>233</ele>
        <time>2019-07-31T08:34:32Z</time>
      </trkpt>
      <trkpt lat="44.1327" lon="4.50877">
        <ele>235.5</ele>
        <time>2019-07-31T08:34:37Z</time>
      </trkpt>
      <trkpt lat="44.13263" lon="4.50898">
        <ele>237.3</ele>
        <time>2019-07-31T08:34:42Z</time>
      </trkpt>
      <trkpt lat="44.13253" lon="4.50917">
        <ele>236</ele>
        <time>2019-07-31T08:34:47Z</time>
      </trkpt>
      <trkpt lat="44.13245" lon="4.50938">
        <ele>237</ele>
        <time>2019-07-31T08:34:52Z</time>
      </trkpt>
      <trkpt lat="44.13235" lon="4.50955">
        <ele>239.6</ele>
        <time>2019-07-31T08:34:57Z</time>
      </trkpt>
      <trkpt lat="44.13225" lon="4.50972">
        <ele>239.1</ele>
        <time>2019-07-31T08:35:02Z</time>
      </trkpt>
      <trkpt lat="44.13213" lon="4.50988">
        <ele>237.9</ele>
        <time>2019-07-31T08:35:07Z</time>
      </trkpt>
      <trkpt lat="44.13203" lon="4.5099">
        <ele>241.6</ele>
        <time>2019-07-31T08:35:12Z</time>
      </trkpt>
      <trkpt lat="44.13192" lon="4.50987">
        <ele>240.4</ele>
        <time>2019-07-31T08:35:17Z</time>
      </trkpt>
      <trkpt lat="44.13173" lon="4.50983">
        <ele>241.3</ele>
        <time>2019-07-31T08:35:22Z</time>
      </trkpt>
      <trkpt lat="44.13157" lon="4.50978">
        <ele>240.3</ele>
        <time>2019-07-31T08:35:27Z</time>
      </trkpt>
      <trkpt lat="44.13145" lon="4.50963">
        <ele>242.9</ele>
        <time>2019-07-31T08:35:32Z</time>
      </trkpt>
      <trkpt lat="44.13148" lon="4.5094">
        <ele>243.9</ele>
        <time>2019-07-31T08:35:37Z</time>
      </trkpt>
      <trkpt lat="44.13138" lon="4.50918">
        <ele>244.2</ele>
        <time>2019-07-31T08:35:42Z</time>
      </trkpt>
      <trkpt lat="44.13122" lon="4.50905">
        <ele>244.7</ele>
        <time>2019-07-31T08:35:47Z</time>
      </trkpt>
      <trkpt lat="44.13107" lon="4.5089">
        <ele>245.2</ele>
        <time>2019-07-31T08:35:52Z</time>
      </trkpt>
      <trkpt lat="44.13092" lon="4.5088">
        <ele>245.2</ele>
        <time>2019-07-31T08:35:57Z</time>
      </trkpt>
      <trkpt lat="44.13075" lon="4.50872">
        <ele>249.7</ele>
        <time>2019-07-31T08:36:02Z</time>
      </trkpt>
      <trkpt lat="44.13058" lon="4.50867">
        <ele>248</ele>
        <time>2019-07-31T08:36:07Z</time>
      </trkpt>
      <trkpt lat="44.13047" lon="4.50873">
        <ele>249</ele>
        <time>2019-07-31T08:36:12Z</time>
      </trkpt>
      <trkpt lat="44.13043" lon="4.5089">
        <ele>251</ele>
        <time>2019-07-31T08:36:17Z</time>
      </trkpt>
      <trkpt lat="44.13043" lon="4.50908">
        <ele>253</ele>
        <time>2019-07-31T08:36:22Z</time>
      </trkpt>
      <trkpt lat="44.1304" lon="4.50925">
        <ele>255.3</ele>
        <time>2019-07-31T08:36:27Z</time>
      </trkpt>
      <trkpt lat="44.13037" lon="4.50945">
        <ele>256.2</ele>
        <time>2019-07-31T08:36:32Z</time>
      </trkpt>
      <trkpt lat="44.1303" lon="4.50963">
        <ele>256.5</ele>
        <time>2019-07-31T08:36:37Z</time>
      </trkpt>
      <trkpt lat="44.13023" lon="4.50983">
        <ele>256.3</ele>
        <time>2019-07-31T08:36:42Z</time>
      </trkpt>
      <trkpt lat="44.13017" lon="4.51003">
        <ele>258.3</ele>
        <time>2019-07-31T08:36:47Z</time>
      </trkpt>
      <trkpt lat="44.13002" lon="4.51013">
        <ele>257.8</ele>
        <time>2019-07-31T08:36:52Z</time>
      </trkpt>
      <trkpt lat="44.12985" lon="4.5101">
        <ele>260.4</ele>
        <time>2019-07-31T08:36:57Z</time>
      </trkpt>
      <trkpt lat="44.12972" lon="4.51022">
        <ele>261.9</ele>
        <time>2019-07-31T08:37:02Z</time>
      </trkpt>
      <trkpt lat="44.12957" lon="4.51037">
        <ele>262</ele>
        <time>2019-07-31T08:37:07Z</time>
      </trkpt>
      <trkpt lat="44.12938" lon="4.51045">
        <ele>262.7</ele>
        <time>2019-07-31T08:37:12Z</time>
      </trkpt>
      <trkpt lat="44.12922" lon="4.51052">
        <ele>263.2</ele>
        <time>2019-07-31T08:37:17Z</time>
      </trkpt>
      <trkpt lat="44.12907" lon="4.51063">
        <ele>262.4</ele>
        <time>2019-07-31T08:37:22Z</time>
      </trkpt>
      <trkpt lat="44.12893" lon="4.51085">
        <ele>263.1</ele>
        <time>2019-07-31T08:37:27Z</time>
      </trkpt>
      <trkpt lat="44.12882" lon="4.5111">
        <ele>263.4</ele>
        <time>2019-07-31T08:37:32Z</time>
      </trkpt>
      <trkpt lat="44.12873" lon="4.51132">
        <ele>264.2</ele>
        <time>2019-07-31T08:37:37Z</time>
      </trkpt>
      <trkpt lat="44.12865" lon="4.51158">
        <ele>266</ele>
        <time>2019-07-31T08:37:42Z</time>
      </trkpt>
      <trkpt lat="44.12853" lon="4.51185">
        <ele>264</ele>
        <time>2019-07-31T08:37:47Z</time>
      </trkpt>
      <trkpt lat="44.12845" lon="4.51215">
        <ele>264.9</ele>
        <time>2019-07-31T08:37:52Z</time>
      </trkpt>
      <trkpt lat="44.12837" lon="4.51247">
        <ele>264.9</ele>
        <time>2019-07-31T08:37:57Z</time>
      </trkpt>
      <trkpt lat="44.12823" lon="4.51277">
        <ele>262.8</ele>
        <time>2019-07-31T08:38:02Z</time>
      </trkpt>
      <trkpt lat="44.12812" lon="4.51308">
        <ele>264.1</ele>
        <time>2019-07-31T08:38:07Z</time>
      </trkpt>
      <trkpt lat="44.12803" lon="4.5134">
        <ele>262.5</ele>
        <time>2019-07-31T08:38:12Z</time>
      </trkpt>
      <trkpt lat="44.12797" lon="4.51372">
        <ele>263.6</ele>
        <time>2019-07-31T08:38:17Z</time>
      </trkpt>
      <trkpt lat="44.12788" lon="4.51402">
        <ele>262.8</ele>
        <time>2019-07-31T08:38:22Z</time>
      </trkpt>
      <trkpt lat="44.12777" lon="4.51435">
        <ele>262.2</ele>
        <time>2019-07-31T08:38:27Z</time>
      </trkpt>
      <trkpt lat="44.12765" lon="4.51467">
        <ele>262.1</ele>
        <time>2019-07-31T08:38:32Z</time>
      </trkpt>
      <trkpt lat="44.12758" lon="4.51498">
        <ele>262.3</ele>
        <time>2019-07-31T08:38:37Z</time>
      </trkpt>
      <trkpt lat="44.1275" lon="4.51533">
        <ele>264.2</ele>
        <time>2019-07-31T08:38:42Z</time>
      </trkpt>
      <trkpt lat="44.1274" lon="4.51568">
        <ele>263.5</ele>
        <time>2019-07-31T08:38:47Z</time>
      </trkpt>
      <trkpt lat="44.1273" lon="4.51607">
        <ele>263.9</ele>
        <time>2019-07-31T08:38:52Z</time>
      </trkpt>
      <trkpt lat="44.12723" lon="4.51647">
        <ele>259.5</ele>
        <time>2019-07-31T08:38:57Z</time>
      </trkpt>
      <trkpt lat="44.1271" lon="4.51665">
        <ele>260.8</ele>
        <time>2019-07-31T08:39:02Z</time>
      </trkpt>
      <trkpt lat="44.1268" lon="4.51652">
        <ele>256.2</ele>
        <time>2019-07-31T08:39:07Z</time>
      </trkpt>
      <trkpt lat="44.12643" lon="4.51637">
        <ele>250.9</ele>
        <time>2019-07-31T08:39:12Z</time>
      </trkpt>
      <trkpt lat="44.12595" lon="4.51615">
        <ele>244.2</ele>
        <time>2019-07-31T08:39:17Z</time>
      </trkpt>
      <trkpt lat="44.12545" lon="4.51615">
        <ele>240</ele>
        <time>2019-07-31T08:39:22Z</time>
      </trkpt>
      <trkpt lat="44.125" lon="4.51618">
        <ele>235.9</ele>
        <time>2019-07-31T08:39:27Z</time>
      </trkpt>
      <trkpt lat="44.1247" lon="4.51623">
        <ele>232.5</ele>
        <time>2019-07-31T08:39:32Z</time>
      </trkpt>
      <trkpt lat="44.12457" lon="4.51653">
        <ele>231.2</ele>
        <time>2019-07-31T08:39:37Z</time>
      </trkpt>
      <trkpt lat="44.12445" lon="4.51683">
        <ele>230.7</ele>
        <time>2019-07-31T08:39:42Z</time>
      </trkpt>
      <trkpt lat="44.12427" lon="4.5171">
        <ele>230.5</ele>
        <time>2019-07-31T08:39:47Z</time>
      </trkpt>
      <trkpt lat="44.12408" lon="4.51742">
        <ele>229.5</ele>
        <time>2019-07-31T08:39:52Z</time>
      </trkpt>
      <trkpt lat="44.12392" lon="4.51782">
        <ele>227.5</ele>
        <time>2019-07-31T08:39:57Z</time>
      </trkpt>
      <trkpt lat="44.1237" lon="4.5183">
        <ele>226.5</ele>
        <time>2019-07-31T08:40:02Z</time>
      </trkpt>
      <trkpt lat="44.1235" lon="4.51892">
        <ele>221.8</ele>
        <time>2019-07-31T08:40:07Z</time>
      </trkpt>
      <trkpt lat="44.12328" lon="4.51955">
        <ele>218.8</ele>
        <time>2019-07-31T08:40:12Z</time>
      </trkpt>
      <trkpt lat="44.123" lon="4.52008">
        <ele>216</ele>
        <time>2019-07-31T08:40:17Z</time>
      </trkpt>
      <trkpt lat="44.12277" lon="4.5207">
        <ele>210.3</ele>
        <time>2019-07-31T08:40:22Z</time>
      </trkpt>
      <trkpt lat="44.12268" lon="4.52115">
        <ele>205.8</ele>
        <time>2019-07-31T08:40:27Z</time>
      </trkpt>
      <trkpt lat="44.12255" lon="4.52177">
        <ele>201.2</ele>
        <time>2019-07-31T08:40:32Z</time>
      </trkpt>
      <trkpt lat="44.1223" lon="4.52228">
        <ele>196.1</ele>
        <time>2019-07-31T08:40:37Z</time>
      </trkpt>
      <trkpt lat="44.12198" lon="4.52243">
        <ele>192.5</ele>
        <time>2019-07-31T08:40:42Z</time>
      </trkpt>
      <trkpt lat="44.12182" lon="4.52232">
        <ele>188.9</ele>
        <time>2019-07-31T08:40:47Z</time>
      </trkpt>
      <trkpt lat="44.12182" lon="4.5224">
        <ele>188.7</ele>
        <time>2019-07-31T08:40:52Z</time>
      </trkpt>
      <trkpt lat="44.122" lon="4.52252">
        <ele>189.4</ele>
        <time>2019-07-31T08:40:57Z</time>
      </trkpt>
      <trkpt lat="44.12222" lon="4.52252">
        <ele>189</ele>
        <time>2019-07-31T08:41:02Z</time>
      </trkpt>
      <trkpt lat="44.12242" lon="4.52235">
        <ele>189.4</ele>
        <time>2019-07-31T08:41:07Z</time>
      </trkpt>
      <trkpt lat="44.12257" lon="4.52213">
        <ele>191.4</ele>
        <time>2019-07-31T08:41:12Z</time>
      </trkpt>
      <trkpt lat="44.12275" lon="4.52187">
        <ele>191.6</ele>
        <time>2019-07-31T08:41:17Z</time>
      </trkpt>
      <trkpt lat="44.12303" lon="4.52182">
        <ele>192.7</ele>
        <time>2019-07-31T08:41:22Z</time>
      </trkpt>
      <trkpt lat="44.1233" lon="4.52183">
        <ele>193</ele>
        <time>2019-07-31T08:41:27Z</time>
      </trkpt>
      <trkpt lat="44.12355" lon="4.52182">
        <ele>192.5</ele>
        <time>2019-07-31T08:41:32Z</time>
      </trkpt>
      <trkpt lat="44.12378" lon="4.52165">
        <ele>193.1</ele>
        <time>2019-07-31T08:41:37Z</time>
      </trkpt>
      <trkpt lat="44.12392" lon="4.52137">
        <ele>195.1</ele>
        <time>2019-07-31T08:41:42Z</time>
      </trkpt>
      <trkpt lat="44.12412" lon="4.52117">
        <ele>195.5</ele>
        <time>2019-07-31T08:41:47Z</time>
      </trkpt>
      <trkpt lat="44.12438" lon="4.52122">
        <ele>195.8</ele>
        <time>2019-07-31T08:41:52Z</time>
      </trkpt>
      <trkpt lat="44.12458" lon="4.52127">
        <ele>197.6</ele>
        <time>2019-07-31T08:41:57Z</time>
      </trkpt>
      <trkpt lat="44.12483" lon="4.52127">
        <ele>198.1</ele>
        <time>2019-07-31T08:42:02Z</time>
      </trkpt>
      <trkpt lat="44.12505" lon="4.52133">
        <ele>198.1</ele>
        <time>2019-07-31T08:42:07Z</time>
      </trkpt>
      <trkpt lat="44.12528" lon="4.52143">
        <ele>200.8</ele>
        <time>2019-07-31T08:42:12Z</time>
      </trkpt>
      <trkpt lat="44.12543" lon="4.52168">
        <ele>202.4</ele>
        <time>2019-07-31T08:42:17Z</time>
      </trkpt>
      <trkpt lat="44.12555" lon="4.522">
        <ele>196.8</ele>
        <time>2019-07-31T08:42:22Z</time>
      </trkpt>
      <trkpt lat="44.1257" lon="4.52232">
        <ele>201.9</ele>
        <time>2019-07-31T08:42:27Z</time>
      </trkpt>
      <trkpt lat="44.1259" lon="4.52258">
        <ele>197.6</ele>
        <time>2019-07-31T08:42:32Z</time>
      </trkpt>
      <trkpt lat="44.12613" lon="4.52273">
        <ele>199.3</ele>
        <time>2019-07-31T08:42:37Z</time>
      </trkpt>
      <trkpt lat="44.12642" lon="4.52277">
        <ele>197.5</ele>
        <time>2019-07-31T08:42:42Z</time>
      </trkpt>
      <trkpt lat="44.12673" lon="4.52273">
        <ele>192.5</ele>
        <time>2019-07-31T08:42:47Z</time>
      </trkpt>
      <trkpt lat="44.12697" lon="4.52285">
        <ele>188.9</ele>
        <time>2019-07-31T08:42:52Z</time>
      </trkpt>
      <trkpt lat="44.1272" lon="4.52283">
        <ele>191</ele>
        <time>2019-07-31T08:42:57Z</time>
      </trkpt>
      <trkpt lat="44.12743" lon="4.52287">
        <ele>191.6</ele>
        <time>2019-07-31T08:43:02Z</time>
      </trkpt>
      <trkpt lat="44.12765" lon="4.523">
        <ele>191.7</ele>
        <time>2019-07-31T08:43:07Z</time>
      </trkpt>
      <trkpt lat="44.12783" lon="4.52317">
        <ele>192</ele>
        <time>2019-07-31T08:43:12Z</time>
      </trkpt>
      <trkpt lat="44.128" lon="4.52338">
        <ele>192.4</ele>
        <time>2019-07-31T08:43:17Z</time>
      </trkpt>
      <trkpt lat="44.12822" lon="4.52348">
        <ele>193.7</ele>
        <time>2019-07-31T08:43:22Z</time>
      </trkpt>
      <trkpt lat="44.12842" lon="4.5235">
        <ele>193.5</ele>
        <time>2019-07-31T08:43:27Z</time>
      </trkpt>
      <trkpt lat="44.12863" lon="4.5235">
        <ele>195</ele>
        <time>2019-07-31T08:43:32Z</time>
      </trkpt>
      <trkpt lat="44.12883" lon="4.52358">
        <ele>195.9</ele>
        <time>2019-07-31T08:43:37Z</time>
      </trkpt>
      <trkpt lat="44.12903" lon="4.52365">
        <ele>196</ele>
        <time>2019-07-31T08:43:42Z</time>
      </trkpt>
      <trkpt lat="44.12922" lon="4.52372">
        <ele>197.3</ele>
        <time>2019-07-31T08:43:47Z</time>
      </trkpt>
      <trkpt lat="44.12935" lon="4.52387">
        <ele>199.9</ele>
        <time>2019-07-31T08:43:52Z</time>
      </trkpt>
      <trkpt lat="44.12947" lon="4.52398">
        <ele>201.4</ele>
        <time>2019-07-31T08:43:57Z</time>
      </trkpt>
      <trkpt lat="44.12957" lon="4.5241">
        <ele>204.4</ele>
        <time>2019-07-31T08:44:02Z</time>
      </trkpt>
      <trkpt lat="44.12975" lon="4.52415">
        <ele>205.5</ele>
        <time>2019-07-31T08:44:07Z</time>
      </trkpt>
      <trkpt lat="44.12993" lon="4.52422">
        <ele>206.8</ele>
        <time>2019-07-31T08:44:12Z</time>
      </trkpt>
      <trkpt lat="44.13008" lon="4.52425">
        <ele>208.3</ele>
        <time>2019-07-31T08:44:17Z</time>
      </trkpt>
      <trkpt lat="44.1302" lon="4.52427">
        <ele>208.6</ele>
        <time>2019-07-31T08:44:22Z</time>
      </trkpt>
      <trkpt lat="44.1304" lon="4.52433">
        <ele>209.4</ele>
        <time>2019-07-31T08:44:27Z</time>
      </trkpt>
      <trkpt lat="44.13057" lon="4.5244">
        <ele>210.2</ele>
        <time>2019-07-31T08:44:32Z</time>
      </trkpt>
      <trkpt lat="44.13072" lon="4.52442">
        <ele>207.8</ele>
        <time>2019-07-31T08:44:37Z</time>
      </trkpt>
      <trkpt lat="44.1309" lon="4.52445">
        <ele>209.2</ele>
        <time>2019-07-31T08:44:42Z</time>
      </trkpt>
      <trkpt lat="44.13108" lon="4.5245">
        <ele>208.8</ele>
        <time>2019-07-31T08:44:47Z</time>
      </trkpt>
      <trkpt lat="44.13132" lon="4.52463">
        <ele>208.6</ele>
        <time>2019-07-31T08:44:52Z</time>
      </trkpt>
      <trkpt lat="44.13153" lon="4.52475">
        <ele>211</ele>
        <time>2019-07-31T08:44:57Z</time>
      </trkpt>
      <trkpt lat="44.13173" lon="4.52485">
        <ele>211</ele>
        <time>2019-07-31T08:45:02Z</time>
      </trkpt>
      <trkpt lat="44.13195" lon="4.52493">
        <ele>211.7</ele>
        <time>2019-07-31T08:45:07Z</time>
      </trkpt>
      <trkpt lat="44.13213" lon="4.52507">
        <ele>211.3</ele>
        <time>2019-07-31T08:45:12Z</time>
      </trkpt>
      <trkpt lat="44.13233" lon="4.52512">
        <ele>213.5</ele>
        <time>2019-07-31T08:45:17Z</time>
      </trkpt>
      <trkpt lat="44.13253" lon="4.52522">
        <ele>211.8</ele>
        <time>2019-07-31T08:45:22Z</time>
      </trkpt>
      <trkpt lat="44.13267" lon="4.52525">
        <ele>213.2</ele>
        <time>2019-07-31T08:45:27Z</time>
      </trkpt>
      <trkpt lat="44.1329" lon="4.52545">
        <ele>215.2</ele>
        <time>2019-07-31T08:45:32Z</time>
      </trkpt>
      <trkpt lat="44.13307" lon="4.52557">
        <ele>213.5</ele>
        <time>2019-07-31T08:45:37Z</time>
      </trkpt>
      <trkpt lat="44.13312" lon="4.52562">
        <ele>213.2</ele>
        <time>2019-07-31T08:45:42Z</time>
      </trkpt>
      <trkpt lat="44.13322" lon="4.52565">
        <ele>212.9</ele>
        <time>2019-07-31T08:46:02Z</time>
      </trkpt>
      <trkpt lat="44.1334" lon="4.5258">
        <ele>213.3</ele>
        <time>2019-07-31T08:46:07Z</time>
      </trkpt>
      <trkpt lat="44.13357" lon="4.526">
        <ele>214.6</ele>
        <time>2019-07-31T08:46:12Z</time>
      </trkpt>
      <trkpt lat="44.13372" lon="4.52625">
        <ele>212.7</ele>
        <time>2019-07-31T08:46:17Z</time>
      </trkpt>
      <trkpt lat="44.13392" lon="4.52647">
        <ele>214.4</ele>
        <time>2019-07-31T08:46:22Z</time>
      </trkpt>
      <trkpt lat="44.13413" lon="4.5266">
        <ele>216.4</ele>
        <time>2019-07-31T08:46:27Z</time>
      </trkpt>
      <trkpt lat="44.13438" lon="4.52667">
        <ele>217.1</ele>
        <time>2019-07-31T08:46:32Z</time>
      </trkpt>
      <trkpt lat="44.13463" lon="4.52682">
        <ele>215.2</ele>
        <time>2019-07-31T08:46:37Z</time>
      </trkpt>
      <trkpt lat="44.13483" lon="4.52698">
        <ele>215.1</ele>
        <time>2019-07-31T08:46:42Z</time>
      </trkpt>
      <trkpt lat="44.13502" lon="4.5271">
        <ele>215.8</ele>
        <time>2019-07-31T08:46:47Z</time>
      </trkpt>
      <trkpt lat="44.13518" lon="4.52727">
        <ele>216.5</ele>
        <time>2019-07-31T08:46:52Z</time>
      </trkpt>
      <trkpt lat="44.13537" lon="4.52743">
        <ele>216.5</ele>
        <time>2019-07-31T08:46:57Z</time>
      </trkpt>
      <trkpt lat="44.13555" lon="4.52762">
        <ele>217</ele>
        <time>2019-07-31T08:47:02Z</time>
      </trkpt>
      <trkpt lat="44.1357" lon="4.52777">
        <ele>218.4</ele>
        <time>2019-07-31T08:47:07Z</time>
      </trkpt>
      <trkpt lat="44.13583" lon="4.5279">
        <ele>220.1</ele>
        <time>2019-07-31T08:47:12Z</time>
      </trkpt>
      <trkpt lat="44.13597" lon="4.52802">
        <ele>222.2</ele>
        <time>2019-07-31T08:47:17Z</time>
      </trkpt>
      <trkpt lat="44.1361" lon="4.5281">
        <ele>223.2</ele>
        <time>2019-07-31T08:47:22Z</time>
      </trkpt>
      <trkpt lat="44.13625" lon="4.5282">
        <ele>225.3</ele>
        <time>2019-07-31T08:47:27Z</time>
      </trkpt>
      <trkpt lat="44.1364" lon="4.52828">
        <ele>224.5</ele>
        <time>2019-07-31T08:47:32Z</time>
      </trkpt>
      <trkpt lat="44.13652" lon="4.52837">
        <ele>225.3</ele>
        <time>2019-07-31T08:47:37Z</time>
      </trkpt>
      <trkpt lat="44.1367" lon="4.52847">
        <ele>225.1</ele>
        <time>2019-07-31T08:47:42Z</time>
      </trkpt>
      <trkpt lat="44.13683" lon="4.52855">
        <ele>224.9</ele>
        <time>2019-07-31T08:47:47Z</time>
      </trkpt>
      <trkpt lat="44.13705" lon="4.52868">
        <ele>224.1</ele>
        <time>2019-07-31T08:47:52Z</time>
      </trkpt>
      <trkpt lat="44.13722" lon="4.5288">
        <ele>226.4</ele>
        <time>2019-07-31T08:47:57Z</time>
      </trkpt>
      <trkpt lat="44.1374" lon="4.52893">
        <ele>226</ele>
        <time>2019-07-31T08:48:02Z</time>
      </trkpt>
      <trkpt lat="44.13755" lon="4.52905">
        <ele>228</ele>
        <time>2019-07-31T08:48:07Z</time>
      </trkpt>
      <trkpt lat="44.13762" lon="4.52925">
        <ele>229</ele>
        <time>2019-07-31T08:48:12Z</time>
      </trkpt>
      <trkpt lat="44.13765" lon="4.52945">
        <ele>230.5</ele>
        <time>2019-07-31T08:48:17Z</time>
      </trkpt>
      <trkpt lat="44.13773" lon="4.5296">
        <ele>232.2</ele>
        <time>2019-07-31T08:48:22Z</time>
      </trkpt>
      <trkpt lat="44.13783" lon="4.52973">
        <ele>233.9</ele>
        <time>2019-07-31T08:48:27Z</time>
      </trkpt>
      <trkpt lat="44.13793" lon="4.52987">
        <ele>235.7</ele>
        <time>2019-07-31T08:48:32Z</time>
      </trkpt>
      <trkpt lat="44.13805" lon="4.53002">
        <ele>238.2</ele>
        <time>2019-07-31T08:48:37Z</time>
      </trkpt>
      <trkpt lat="44.13815" lon="4.53013">
        <ele>238.8</ele>
        <time>2019-07-31T08:48:42Z</time>
      </trkpt>
      <trkpt lat="44.13828" lon="4.53027">
        <ele>239.3</ele>
        <time>2019-07-31T08:48:47Z</time>
      </trkpt>
      <trkpt lat="44.13838" lon="4.53042">
        <ele>240.8</ele>
        <time>2019-07-31T08:48:52Z</time>
      </trkpt>
      <trkpt lat="44.13848" lon="4.5306">
        <ele>240.9</ele>
        <time>2019-07-31T08:48:57Z</time>
      </trkpt>
      <trkpt lat="44.13858" lon="4.53082">
        <ele>241.9</ele>
        <time>2019-07-31T08:49:02Z</time>
      </trkpt>
      <trkpt lat="44.13863" lon="4.53112">
        <ele>242.4</ele>
        <time>2019-07-31T08:49:07Z</time>
      </trkpt>
      <trkpt lat="44.13877" lon="4.53135">
        <ele>243.1</ele>
        <time>2019-07-31T08:49:12Z</time>
      </trkpt>
      <trkpt lat="44.13893" lon="4.53152">
        <ele>242.7</ele>
        <time>2019-07-31T08:49:17Z</time>
      </trkpt>
      <trkpt lat="44.13912" lon="4.53165">
        <ele>245.1</ele>
        <time>2019-07-31T08:49:22Z</time>
      </trkpt>
      <trkpt lat="44.13927" lon="4.53177">
        <ele>245.6</ele>
        <time>2019-07-31T08:49:27Z</time>
      </trkpt>
      <trkpt lat="44.13942" lon="4.5319">
        <ele>246.2</ele>
        <time>2019-07-31T08:49:32Z</time>
      </trkpt>
      <trkpt lat="44.13947" lon="4.53215">
        <ele>246</ele>
        <time>2019-07-31T08:49:37Z</time>
      </trkpt>
      <trkpt lat="44.1395" lon="4.53238">
        <ele>247</ele>
        <time>2019-07-31T08:49:42Z</time>
      </trkpt>
      <trkpt lat="44.1395" lon="4.53265">
        <ele>247.9</ele>
        <time>2019-07-31T08:49:47Z</time>
      </trkpt>
      <trkpt lat="44.13955" lon="4.53292">
        <ele>248.2</ele>
        <time>2019-07-31T08:49:52Z</time>
      </trkpt>
      <trkpt lat="44.13962" lon="4.53318">
        <ele>249.3</ele>
        <time>2019-07-31T08:49:57Z</time>
      </trkpt>
      <trkpt lat="44.1397" lon="4.53347">
        <ele>250.1</ele>
        <time>2019-07-31T08:50:02Z</time>
      </trkpt>
      <trkpt lat="44.13975" lon="4.53373">
        <ele>250.1</ele>
        <time>2019-07-31T08:50:07Z</time>
      </trkpt>
      <trkpt lat="44.13978" lon="4.53405">
        <ele>250.6</ele>
        <time>2019-07-31T08:50:12Z</time>
      </trkpt>
      <trkpt lat="44.13978" lon="4.5344">
        <ele>250.6</ele>
        <time>2019-07-31T08:50:17Z</time>
      </trkpt>
      <trkpt lat="44.13975" lon="4.53473">
        <ele>251</ele>
        <time>2019-07-31T08:50:22Z</time>
      </trkpt>
      <trkpt lat="44.13972" lon="4.53503">
        <ele>253.2</ele>
        <time>2019-07-31T08:50:27Z</time>
      </trkpt>
      <trkpt lat="44.13965" lon="4.5353">
        <ele>253.8</ele>
        <time>2019-07-31T08:50:32Z</time>
      </trkpt>
      <trkpt lat="44.13962" lon="4.5356">
        <ele>254.5</ele>
        <time>2019-07-31T08:50:37Z</time>
      </trkpt>
      <trkpt lat="44.13962" lon="4.5359">
        <ele>256.8</ele>
        <time>2019-07-31T08:50:42Z</time>
      </trkpt>
      <trkpt lat="44.13963" lon="4.5362">
        <ele>257.2</ele>
        <time>2019-07-31T08:50:47Z</time>
      </trkpt>
      <trkpt lat="44.13965" lon="4.53647">
        <ele>258.6</ele>
        <time>2019-07-31T08:50:52Z</time>
      </trkpt>
      <trkpt lat="44.13963" lon="4.53675">
        <ele>260.1</ele>
        <time>2019-07-31T08:50:57Z</time>
      </trkpt>
      <trkpt lat="44.13963" lon="4.53703">
        <ele>261</ele>
        <time>2019-07-31T08:51:02Z</time>
      </trkpt>
      <trkpt lat="44.13967" lon="4.5373">
        <ele>262.3</ele>
        <time>2019-07-31T08:51:07Z</time>
      </trkpt>
      <trkpt lat="44.13972" lon="4.53758">
        <ele>262.7</ele>
        <time>2019-07-31T08:51:12Z</time>
      </trkpt>
      <trkpt lat="44.13977" lon="4.53783">
        <ele>263.1</ele>
        <time>2019-07-31T08:51:17Z</time>
      </trkpt>
      <trkpt lat="44.13978" lon="4.5381">
        <ele>265</ele>
        <time>2019-07-31T08:51:22Z</time>
      </trkpt>
      <trkpt lat="44.1398" lon="4.53837">
        <ele>265.4</ele>
        <time>2019-07-31T08:51:27Z</time>
      </trkpt>
      <trkpt lat="44.13982" lon="4.5386">
        <ele>266.7</ele>
        <time>2019-07-31T08:51:32Z</time>
      </trkpt>
      <trkpt lat="44.13982" lon="4.53885">
        <ele>267.1</ele>
        <time>2019-07-31T08:51:37Z</time>
      </trkpt>
      <trkpt lat="44.13973" lon="4.53905">
        <ele>267.7</ele>
        <time>2019-07-31T08:51:42Z</time>
      </trkpt>
      <trkpt lat="44.13965" lon="4.53925">
        <ele>269.9</ele>
        <time>2019-07-31T08:51:47Z</time>
      </trkpt>
      <trkpt lat="44.13958" lon="4.53947">
        <ele>268.4</ele>
        <time>2019-07-31T08:51:52Z</time>
      </trkpt>
      <trkpt lat="44.1395" lon="4.53972">
        <ele>268.9</ele>
        <time>2019-07-31T08:51:57Z</time>
      </trkpt>
      <trkpt lat="44.1394" lon="4.54">
        <ele>269</ele>
        <time>2019-07-31T08:52:02Z</time>
      </trkpt>
      <trkpt lat="44.13928" lon="4.54035">
        <ele>267.9</ele>
        <time>2019-07-31T08:52:07Z</time>
      </trkpt>
      <trkpt lat="44.13913" lon="4.5407">
        <ele>267.6</ele>
        <time>2019-07-31T08:52:12Z</time>
      </trkpt>
      <trkpt lat="44.13893" lon="4.54095">
        <ele>268.6</ele>
        <time>2019-07-31T08:52:17Z</time>
      </trkpt>
      <trkpt lat="44.13868" lon="4.54108">
        <ele>270.1</ele>
        <time>2019-07-31T08:52:22Z</time>
      </trkpt>
      <trkpt lat="44.1385" lon="4.54133">
        <ele>270.9</ele>
        <time>2019-07-31T08:52:27Z</time>
      </trkpt>
      <trkpt lat="44.13845" lon="4.54163">
        <ele>272.6</ele>
        <time>2019-07-31T08:52:32Z</time>
      </trkpt>
      <trkpt lat="44.13843" lon="4.54197">
        <ele>274.1</ele>
        <time>2019-07-31T08:52:37Z</time>
      </trkpt>
      <trkpt lat="44.13842" lon="4.54223">
        <ele>273.5</ele>
        <time>2019-07-31T08:52:42Z</time>
      </trkpt>
      <trkpt lat="44.13833" lon="4.54242">
        <ele>277.5</ele>
        <time>2019-07-31T08:52:47Z</time>
      </trkpt>
      <trkpt lat="44.13842" lon="4.54263">
        <ele>275.9</ele>
        <time>2019-07-31T08:52:52Z</time>
      </trkpt>
      <trkpt lat="44.13853" lon="4.54283">
        <ele>278.7</ele>
        <time>2019-07-31T08:52:57Z</time>
      </trkpt>
      <trkpt lat="44.13863" lon="4.5431">
        <ele>279.1</ele>
        <time>2019-07-31T08:53:02Z</time>
      </trkpt>
      <trkpt lat="44.13873" lon="4.54338">
        <ele>278.4</ele>
        <time>2019-07-31T08:53:07Z</time>
      </trkpt>
      <trkpt lat="44.13885" lon="4.54368">
        <ele>280.3</ele>
        <time>2019-07-31T08:53:12Z</time>
      </trkpt>
      <trkpt lat="44.13898" lon="4.54398">
        <ele>277.5</ele>
        <time>2019-07-31T08:53:17Z</time>
      </trkpt>
      <trkpt lat="44.13912" lon="4.54425">
        <ele>278.9</ele>
        <time>2019-07-31T08:53:22Z</time>
      </trkpt>
      <trkpt lat="44.13928" lon="4.54452">
        <ele>277.8</ele>
        <time>2019-07-31T08:53:27Z</time>
      </trkpt>
      <trkpt lat="44.13945" lon="4.54478">
        <ele>280</ele>
        <time>2019-07-31T08:53:32Z</time>
      </trkpt>
      <trkpt lat="44.13963" lon="4.54502">
        <ele>278.9</ele>
        <time>2019-07-31T08:53:37Z</time>
      </trkpt>
      <trkpt lat="44.13983" lon="4.54518">
        <ele>279.8</ele>
        <time>2019-07-31T08:53:42Z</time>
      </trkpt>
      <trkpt lat="44.14003" lon="4.5453">
        <ele>280.7</ele>
        <time>2019-07-31T08:53:47Z</time>
      </trkpt>
      <trkpt lat="44.14025" lon="4.54547">
        <ele>282.1</ele>
        <time>2019-07-31T08:53:52Z</time>
      </trkpt>
      <trkpt lat="44.14045" lon="4.54563">
        <ele>281.8</ele>
        <time>2019-07-31T08:53:57Z</time>
      </trkpt>
      <trkpt lat="44.14063" lon="4.54582">
        <ele>281.7</ele>
        <time>2019-07-31T08:54:02Z</time>
      </trkpt>
      <trkpt lat="44.14082" lon="4.54603">
        <ele>282.3</ele>
        <time>2019-07-31T08:54:07Z</time>
      </trkpt>
      <trkpt lat="44.14098" lon="4.54623">
        <ele>281.2</ele>
        <time>2019-07-31T08:54:12Z</time>
      </trkpt>
      <trkpt lat="44.14115" lon="4.54643">
        <ele>283</ele>
        <time>2019-07-31T08:54:17Z</time>
      </trkpt>
      <trkpt lat="44.14127" lon="4.54675">
        <ele>281.5</ele>
        <time>2019-07-31T08:54:22Z</time>
      </trkpt>
      <trkpt lat="44.14132" lon="4.54708">
        <ele>283</ele>
        <time>2019-07-31T08:54:27Z</time>
      </trkpt>
      <trkpt lat="44.14142" lon="4.54737">
        <ele>282.4</ele>
        <time>2019-07-31T08:54:32Z</time>
      </trkpt>
      <trkpt lat="44.1415" lon="4.54762">
        <ele>283.1</ele>
        <time>2019-07-31T08:54:37Z</time>
      </trkpt>
      <trkpt lat="44.14147" lon="4.548">
        <ele>284.5</ele>
        <time>2019-07-31T08:54:42Z</time>
      </trkpt>
      <trkpt lat="44.14127" lon="4.54833">
        <ele>277.9</ele>
        <time>2019-07-31T08:54:47Z</time>
      </trkpt>
      <trkpt lat="44.14105" lon="4.54867">
        <ele>280.3</ele>
        <time>2019-07-31T08:54:52Z</time>
      </trkpt>
      <trkpt lat="44.14082" lon="4.54898">
        <ele>280.3</ele>
        <time>2019-07-31T08:54:57Z</time>
      </trkpt>
      <trkpt lat="44.14062" lon="4.54932">
        <ele>279.8</ele>
        <time>2019-07-31T08:55:02Z</time>
      </trkpt>
      <trkpt lat="44.1406" lon="4.54968">
        <ele>280.6</ele>
        <time>2019-07-31T08:55:07Z</time>
      </trkpt>
      <trkpt lat="44.14067" lon="4.55002">
        <ele>282.5</ele>
        <time>2019-07-31T08:55:12Z</time>
      </trkpt>
      <trkpt lat="44.14077" lon="4.5503">
        <ele>284</ele>
        <time>2019-07-31T08:55:17Z</time>
      </trkpt>
      <trkpt lat="44.14092" lon="4.55045">
        <ele>282.5</ele>
        <time>2019-07-31T08:55:22Z</time>
      </trkpt>
      <trkpt lat="44.14108" lon="4.55047">
        <ele>283.5</ele>
        <time>2019-07-31T08:55:27Z</time>
      </trkpt>
      <trkpt lat="44.14127" lon="4.55043">
        <ele>283.1</ele>
        <time>2019-07-31T08:55:32Z</time>
      </trkpt>
      <trkpt lat="44.14145" lon="4.5504">
        <ele>283.5</ele>
        <time>2019-07-31T08:55:37Z</time>
      </trkpt>
      <trkpt lat="44.14165" lon="4.55033">
        <ele>283.6</ele>
        <time>2019-07-31T08:55:42Z</time>
      </trkpt>
      <trkpt lat="44.14183" lon="4.5502">
        <ele>283.1</ele>
        <time>2019-07-31T08:55:47Z</time>
      </trkpt>
      <trkpt lat="44.14203" lon="4.55007">
        <ele>285.8</ele>
        <time>2019-07-31T08:55:52Z</time>
      </trkpt>
      <trkpt lat="44.14223" lon="4.55002">
        <ele>288.3</ele>
        <time>2019-07-31T08:55:57Z</time>
      </trkpt>
      <trkpt lat="44.14233" lon="4.55015">
        <ele>288.3</ele>
        <time>2019-07-31T08:56:02Z</time>
      </trkpt>
      <trkpt lat="44.14238" lon="4.55032">
        <ele>288.1</ele>
        <time>2019-07-31T08:56:07Z</time>
      </trkpt>
      <trkpt lat="44.14245" lon="4.55057">
        <ele>290.8</ele>
        <time>2019-07-31T08:56:12Z</time>
      </trkpt>
      <trkpt lat="44.14252" lon="4.55078">
        <ele>290.1</ele>
        <time>2019-07-31T08:56:17Z</time>
      </trkpt>
      <trkpt lat="44.1426" lon="4.551">
        <ele>291.7</ele>
        <time>2019-07-31T08:56:22Z</time>
      </trkpt>
      <trkpt lat="44.14272" lon="4.55122">
        <ele>291</ele>
        <time>2019-07-31T08:56:27Z</time>
      </trkpt>
      <trkpt lat="44.14287" lon="4.55142">
        <ele>291.9</ele>
        <time>2019-07-31T08:56:32Z</time>
      </trkpt>
      <trkpt lat="44.143" lon="4.5516">
        <ele>292.4</ele>
        <time>2019-07-31T08:56:37Z</time>
      </trkpt>
      <trkpt lat="44.14317" lon="4.55175">
        <ele>292.4</ele>
        <time>2019-07-31T08:56:42Z</time>
      </trkpt>
      <trkpt lat="44.14332" lon="4.55188">
        <ele>295.5</ele>
        <time>2019-07-31T08:56:47Z</time>
      </trkpt>
      <trkpt lat="44.14347" lon="4.55203">
        <ele>295.6</ele>
        <time>2019-07-31T08:56:52Z</time>
      </trkpt>
      <trkpt lat="44.14362" lon="4.55217">
        <ele>297.3</ele>
        <time>2019-07-31T08:56:57Z</time>
      </trkpt>
      <trkpt lat="44.14375" lon="4.55232">
        <ele>298.3</ele>
        <time>2019-07-31T08:57:02Z</time>
      </trkpt>
      <trkpt lat="44.14392" lon="4.55238">
        <ele>299.4</ele>
        <time>2019-07-31T08:57:07Z</time>
      </trkpt>
      <trkpt lat="44.14407" lon="4.55237">
        <ele>299.8</ele>
        <time>2019-07-31T08:57:12Z</time>
      </trkpt>
      <trkpt lat="44.1442" lon="4.55223">
        <ele>300.8</ele>
        <time>2019-07-31T08:57:17Z</time>
      </trkpt>
      <trkpt lat="44.14435" lon="4.55215">
        <ele>300</ele>
        <time>2019-07-31T08:57:22Z</time>
      </trkpt>
      <trkpt lat="44.14455" lon="4.55212">
        <ele>299</ele>
        <time>2019-07-31T08:57:27Z</time>
      </trkpt>
      <trkpt lat="44.1447" lon="4.55205">
        <ele>299.6</ele>
        <time>2019-07-31T08:57:32Z</time>
      </trkpt>
      <trkpt lat="44.14482" lon="4.5521">
        <ele>298.9</ele>
        <time>2019-07-31T08:57:37Z</time>
      </trkpt>
      <trkpt lat="44.1447" lon="4.55223">
        <ele>299.3</ele>
        <time>2019-07-31T08:57:42Z</time>
      </trkpt>
      <trkpt lat="44.14463" lon="4.5525">
        <ele>303.6</ele>
        <time>2019-07-31T08:57:47Z</time>
      </trkpt>
      <trkpt lat="44.14455" lon="4.55273">
        <ele>306.8</ele>
        <time>2019-07-31T08:57:52Z</time>
      </trkpt>
      <trkpt lat="44.14448" lon="4.553">
        <ele>303.3</ele>
        <time>2019-07-31T08:57:57Z</time>
      </trkpt>
      <trkpt lat="44.14442" lon="4.55333">
        <ele>302.3</ele>
        <time>2019-07-31T08:58:02Z</time>
      </trkpt>
      <trkpt lat="44.1444" lon="4.5537">
        <ele>301.1</ele>
        <time>2019-07-31T08:58:07Z</time>
      </trkpt>
      <trkpt lat="44.14432" lon="4.55405">
        <ele>301.9</ele>
        <time>2019-07-31T08:58:12Z</time>
      </trkpt>
      <trkpt lat="44.1441" lon="4.55428">
        <ele>305.8</ele>
        <time>2019-07-31T08:58:17Z</time>
      </trkpt>
      <trkpt lat="44.14385" lon="4.5544">
        <ele>305</ele>
        <time>2019-07-31T08:58:22Z</time>
      </trkpt>
      <trkpt lat="44.14358" lon="4.55435">
        <ele>303.3</ele>
        <time>2019-07-31T08:58:27Z</time>
      </trkpt>
      <trkpt lat="44.14332" lon="4.55432">
        <ele>304.3</ele>
        <time>2019-07-31T08:58:32Z</time>
      </trkpt>
      <trkpt lat="44.14302" lon="4.55435">
        <ele>303.2</ele>
        <time>2019-07-31T08:58:37Z</time>
      </trkpt>
      <trkpt lat="44.14272" lon="4.5544">
        <ele>305</ele>
        <time>2019-07-31T08:58:42Z</time>
      </trkpt>
      <trkpt lat="44.1424" lon="4.55447">
        <ele>302.2</ele>
        <time>2019-07-31T08:58:47Z</time>
      </trkpt>
      <trkpt lat="44.14208" lon="4.55448">
        <ele>302.7</ele>
        <time>2019-07-31T08:58:52Z</time>
      </trkpt>
      <trkpt lat="44.14175" lon="4.5545">
        <ele>303</ele>
        <time>2019-07-31T08:58:57Z</time>
      </trkpt>
      <trkpt lat="44.14142" lon="4.55457">
        <ele>303.4</ele>
        <time>2019-07-31T08:59:02Z</time>
      </trkpt>
      <trkpt lat="44.14112" lon="4.55468">
        <ele>302.3</ele>
        <time>2019-07-31T08:59:07Z</time>
      </trkpt>
      <trkpt lat="44.1408" lon="4.5548">
        <ele>301.7</ele>
        <time>2019-07-31T08:59:12Z</time>
      </trkpt>
      <trkpt lat="44.1405" lon="4.55495">
        <ele>304.2</ele>
        <time>2019-07-31T08:59:17Z</time>
      </trkpt>
      <trkpt lat="44.1402" lon="4.5551">
        <ele>300.2</ele>
        <time>2019-07-31T08:59:22Z</time>
      </trkpt>
      <trkpt lat="44.13988" lon="4.55525">
        <ele>296.6</ele>
        <time>2019-07-31T08:59:27Z</time>
      </trkpt>
      <trkpt lat="44.1395" lon="4.55523">
        <ele>302.2</ele>
        <time>2019-07-31T08:59:32Z</time>
      </trkpt>
      <trkpt lat="44.13915" lon="4.55535">
        <ele>297.7</ele>
        <time>2019-07-31T08:59:37Z</time>
      </trkpt>
      <trkpt lat="44.13885" lon="4.55545">
        <ele>292.4</ele>
        <time>2019-07-31T08:59:42Z</time>
      </trkpt>
      <trkpt lat="44.13847" lon="4.55603">
        <ele>291.5</ele>
        <time>2019-07-31T08:59:50Z</time>
      </trkpt>
      <trkpt lat="44.1383" lon="4.55635">
        <ele>292.8</ele>
        <time>2019-07-31T08:59:55Z</time>
      </trkpt>
      <trkpt lat="44.13813" lon="4.55663">
        <ele>294.1</ele>
        <time>2019-07-31T09:00:00Z</time>
      </trkpt>
      <trkpt lat="44.13795" lon="4.55685">
        <ele>294.8</ele>
        <time>2019-07-31T09:00:05Z</time>
      </trkpt>
      <trkpt lat="44.13777" lon="4.55708">
        <ele>296.2</ele>
        <time>2019-07-31T09:00:10Z</time>
      </trkpt>
      <trkpt lat="44.1377" lon="4.55738">
        <ele>298.2</ele>
        <time>2019-07-31T09:00:15Z</time>
      </trkpt>
      <trkpt lat="44.13767" lon="4.55768">
        <ele>300.2</ele>
        <time>2019-07-31T09:00:20Z</time>
      </trkpt>
      <trkpt lat="44.13762" lon="4.55798">
        <ele>300.9</ele>
        <time>2019-07-31T09:00:25Z</time>
      </trkpt>
      <trkpt lat="44.1376" lon="4.55828">
        <ele>303</ele>
        <time>2019-07-31T09:00:30Z</time>
      </trkpt>
      <trkpt lat="44.13757" lon="4.55857">
        <ele>301.7</ele>
        <time>2019-07-31T09:00:35Z</time>
      </trkpt>
      <trkpt lat="44.13745" lon="4.55882">
        <ele>300.7</ele>
        <time>2019-07-31T09:00:40Z</time>
      </trkpt>
      <trkpt lat="44.1372" lon="4.559">
        <ele>300.9</ele>
        <time>2019-07-31T09:00:45Z</time>
      </trkpt>
      <trkpt lat="44.1369" lon="4.55917">
        <ele>297</ele>
        <time>2019-07-31T09:00:50Z</time>
      </trkpt>
      <trkpt lat="44.13662" lon="4.55928">
        <ele>292.6</ele>
        <time>2019-07-31T09:00:55Z</time>
      </trkpt>
      <trkpt lat="44.13633" lon="4.55937">
        <ele>289.1</ele>
        <time>2019-07-31T09:01:00Z</time>
      </trkpt>
      <trkpt lat="44.13605" lon="4.55942">
        <ele>289</ele>
        <time>2019-07-31T09:01:05Z</time>
      </trkpt>
      <trkpt lat="44.13578" lon="4.55947">
        <ele>287</ele>
        <time>2019-07-31T09:01:10Z</time>
      </trkpt>
      <trkpt lat="44.13547" lon="4.5595">
        <ele>279.4</ele>
        <time>2019-07-31T09:01:15Z</time>
      </trkpt>
      <trkpt lat="44.1352" lon="4.55952">
        <ele>277</ele>
        <time>2019-07-31T09:01:20Z</time>
      </trkpt>
      <trkpt lat="44.13493" lon="4.55955">
        <ele>270.2</ele>
        <time>2019-07-31T09:01:25Z</time>
      </trkpt>
      <trkpt lat="44.13463" lon="4.5595">
        <ele>265.6</ele>
        <time>2019-07-31T09:01:30Z</time>
      </trkpt>
      <trkpt lat="44.1342" lon="4.5596">
        <ele>261.5</ele>
        <time>2019-07-31T09:01:35Z</time>
      </trkpt>
      <trkpt lat="44.13395" lon="4.55983">
        <ele>258.4</ele>
        <time>2019-07-31T09:01:40Z</time>
      </trkpt>
      <trkpt lat="44.1338" lon="4.56028">
        <ele>258.1</ele>
        <time>2019-07-31T09:01:45Z</time>
      </trkpt>
      <trkpt lat="44.13365" lon="4.56072">
        <ele>260.9</ele>
        <time>2019-07-31T09:01:50Z</time>
      </trkpt>
      <trkpt lat="44.1335" lon="4.56112">
        <ele>256.2</ele>
        <time>2019-07-31T09:01:55Z</time>
      </trkpt>
      <trkpt lat="44.1334" lon="4.56138">
        <ele>256.3</ele>
        <time>2019-07-31T09:02:00Z</time>
      </trkpt>
      <trkpt lat="44.13322" lon="4.5614">
        <ele>256.8</ele>
        <time>2019-07-31T09:02:05Z</time>
      </trkpt>
      <trkpt lat="44.13295" lon="4.56133">
        <ele>254.4</ele>
        <time>2019-07-31T09:02:10Z</time>
      </trkpt>
      <trkpt lat="44.1326" lon="4.56127">
        <ele>253.2</ele>
        <time>2019-07-31T09:02:15Z</time>
      </trkpt>
      <trkpt lat="44.13212" lon="4.56117">
        <ele>247.3</ele>
        <time>2019-07-31T09:02:20Z</time>
      </trkpt>
      <trkpt lat="44.13163" lon="4.56117">
        <ele>246.7</ele>
        <time>2019-07-31T09:02:25Z</time>
      </trkpt>
      <trkpt lat="44.13127" lon="4.56117">
        <ele>242.5</ele>
        <time>2019-07-31T09:02:30Z</time>
      </trkpt>
      <trkpt lat="44.13105" lon="4.56118">
        <ele>240.1</ele>
        <time>2019-07-31T09:02:35Z</time>
      </trkpt>
      <trkpt lat="44.13098" lon="4.56093">
        <ele>238.1</ele>
        <time>2019-07-31T09:02:40Z</time>
      </trkpt>
      <trkpt lat="44.13098" lon="4.56053">
        <ele>237.2</ele>
        <time>2019-07-31T09:02:45Z</time>
      </trkpt>
      <trkpt lat="44.13082" lon="4.56038">
        <ele>236</ele>
        <time>2019-07-31T09:02:50Z</time>
      </trkpt>
      <trkpt lat="44.13048" lon="4.56035">
        <ele>234.7</ele>
        <time>2019-07-31T09:02:55Z</time>
      </trkpt>
      <trkpt lat="44.13008" lon="4.56033">
        <ele>234.2</ele>
        <time>2019-07-31T09:03:00Z</time>
      </trkpt>
      <trkpt lat="44.12968" lon="4.56032">
        <ele>230.2</ele>
        <time>2019-07-31T09:03:05Z</time>
      </trkpt>
      <trkpt lat="44.12923" lon="4.5603">
        <ele>227.4</ele>
        <time>2019-07-31T09:03:10Z</time>
      </trkpt>
      <trkpt lat="44.12873" lon="4.56023">
        <ele>225.7</ele>
        <time>2019-07-31T09:03:15Z</time>
      </trkpt>
      <trkpt lat="44.1282" lon="4.56012">
        <ele>218.5</ele>
        <time>2019-07-31T09:03:20Z</time>
      </trkpt>
      <trkpt lat="44.1277" lon="4.55997">
        <ele>217.2</ele>
        <time>2019-07-31T09:03:25Z</time>
      </trkpt>
      <trkpt lat="44.12733" lon="4.55995">
        <ele>214.5</ele>
        <time>2019-07-31T09:03:30Z</time>
      </trkpt>
      <trkpt lat="44.12717" lon="4.56028">
        <ele>214.3</ele>
        <time>2019-07-31T09:03:35Z</time>
      </trkpt>
      <trkpt lat="44.12712" lon="4.5607">
        <ele>215.5</ele>
        <time>2019-07-31T09:03:40Z</time>
      </trkpt>
      <trkpt lat="44.12712" lon="4.56117">
        <ele>214.1</ele>
        <time>2019-07-31T09:03:45Z</time>
      </trkpt>
      <trkpt lat="44.12705" lon="4.56167">
        <ele>212.3</ele>
        <time>2019-07-31T09:03:50Z</time>
      </trkpt>
      <trkpt lat="44.12682" lon="4.56195">
        <ele>211.6</ele>
        <time>2019-07-31T09:03:55Z</time>
      </trkpt>
      <trkpt lat="44.12652" lon="4.5621">
        <ele>213.5</ele>
        <time>2019-07-31T09:04:00Z</time>
      </trkpt>
      <trkpt lat="44.12617" lon="4.56225">
        <ele>214</ele>
        <time>2019-07-31T09:04:05Z</time>
      </trkpt>
      <trkpt lat="44.12577" lon="4.56235">
        <ele>211.6</ele>
        <time>2019-07-31T09:04:10Z</time>
      </trkpt>
      <trkpt lat="44.12535" lon="4.56242">
        <ele>209.7</ele>
        <time>2019-07-31T09:04:15Z</time>
      </trkpt>
      <trkpt lat="44.12493" lon="4.56263">
        <ele>206.5</ele>
        <time>2019-07-31T09:04:20Z</time>
      </trkpt>
      <trkpt lat="44.12473" lon="4.56312">
        <ele>204</ele>
        <time>2019-07-31T09:04:25Z</time>
      </trkpt>
      <trkpt lat="44.12487" lon="4.5637">
        <ele>200.5</ele>
        <time>2019-07-31T09:04:30Z</time>
      </trkpt>
      <trkpt lat="44.12513" lon="4.56427">
        <ele>196.8</ele>
        <time>2019-07-31T09:04:35Z</time>
      </trkpt>
      <trkpt lat="44.12545" lon="4.56472">
        <ele>195.6</ele>
        <time>2019-07-31T09:04:40Z</time>
      </trkpt>
      <trkpt lat="44.12575" lon="4.56512">
        <ele>193.8</ele>
        <time>2019-07-31T09:04:45Z</time>
      </trkpt>
      <trkpt lat="44.12595" lon="4.56567">
        <ele>192.3</ele>
        <time>2019-07-31T09:04:50Z</time>
      </trkpt>
      <trkpt lat="44.12613" lon="4.56635">
        <ele>185.9</ele>
        <time>2019-07-31T09:04:55Z</time>
      </trkpt>
      <trkpt lat="44.12617" lon="4.5671">
        <ele>180</ele>
        <time>2019-07-31T09:05:00Z</time>
      </trkpt>
      <trkpt lat="44.12643" lon="4.56758">
        <ele>178.4</ele>
        <time>2019-07-31T09:05:05Z</time>
      </trkpt>
      <trkpt lat="44.12685" lon="4.5677">
        <ele>176</ele>
        <time>2019-07-31T09:05:10Z</time>
      </trkpt>
      <trkpt lat="44.12728" lon="4.56775">
        <ele>176</ele>
        <time>2019-07-31T09:05:15Z</time>
      </trkpt>
      <trkpt lat="44.12765" lon="4.56785">
        <ele>177.6</ele>
        <time>2019-07-31T09:05:20Z</time>
      </trkpt>
      <trkpt lat="44.12792" lon="4.56822">
        <ele>178.6</ele>
        <time>2019-07-31T09:05:25Z</time>
      </trkpt>
      <trkpt lat="44.128" lon="4.56875">
        <ele>177.3</ele>
        <time>2019-07-31T09:05:30Z</time>
      </trkpt>
      <trkpt lat="44.128" lon="4.5693">
        <ele>174.8</ele>
        <time>2019-07-31T09:05:35Z</time>
      </trkpt>
      <trkpt lat="44.12802" lon="4.56985">
        <ele>175.7</ele>
        <time>2019-07-31T09:05:40Z</time>
      </trkpt>
      <trkpt lat="44.128" lon="4.57043">
        <ele>173.9</ele>
        <time>2019-07-31T09:05:45Z</time>
      </trkpt>
      <trkpt lat="44.12795" lon="4.57097">
        <ele>173.7</ele>
        <time>2019-07-31T09:05:50Z</time>
      </trkpt>
      <trkpt lat="44.12775" lon="4.57143">
        <ele>172.3</ele>
        <time>2019-07-31T09:05:55Z</time>
      </trkpt>
      <trkpt lat="44.12752" lon="4.57187">
        <ele>174.9</ele>
        <time>2019-07-31T09:06:00Z</time>
      </trkpt>
      <trkpt lat="44.1273" lon="4.5722">
        <ele>171.3</ele>
        <time>2019-07-31T09:06:05Z</time>
      </trkpt>
      <trkpt lat="44.12707" lon="4.57255">
        <ele>172.7</ele>
        <time>2019-07-31T09:06:10Z</time>
      </trkpt>
      <trkpt lat="44.12683" lon="4.5729">
        <ele>169.9</ele>
        <time>2019-07-31T09:06:15Z</time>
      </trkpt>
      <trkpt lat="44.1265" lon="4.57317">
        <ele>169.7</ele>
        <time>2019-07-31T09:06:20Z</time>
      </trkpt>
      <trkpt lat="44.12612" lon="4.5733">
        <ele>167.5</ele>
        <time>2019-07-31T09:06:25Z</time>
      </trkpt>
      <trkpt lat="44.12573" lon="4.57338">
        <ele>166.1</ele>
        <time>2019-07-31T09:06:30Z</time>
      </trkpt>
      <trkpt lat="44.1253" lon="4.57333">
        <ele>164.4</ele>
        <time>2019-07-31T09:06:35Z</time>
      </trkpt>
      <trkpt lat="44.12488" lon="4.57315">
        <ele>165.1</ele>
        <time>2019-07-31T09:06:40Z</time>
      </trkpt>
      <trkpt lat="44.12445" lon="4.57312">
        <ele>162.7</ele>
        <time>2019-07-31T09:06:45Z</time>
      </trkpt>
      <trkpt lat="44.12403" lon="4.57308">
        <ele>161.7</ele>
        <time>2019-07-31T09:06:50Z</time>
      </trkpt>
      <trkpt lat="44.12363" lon="4.57283">
        <ele>160.6</ele>
        <time>2019-07-31T09:06:55Z</time>
      </trkpt>
      <trkpt lat="44.12325" lon="4.57257">
        <ele>159.2</ele>
        <time>2019-07-31T09:07:00Z</time>
      </trkpt>
      <trkpt lat="44.12283" lon="4.57242">
        <ele>158.5</ele>
        <time>2019-07-31T09:07:05Z</time>
      </trkpt>
      <trkpt lat="44.12245" lon="4.57245">
        <ele>157.6</ele>
        <time>2019-07-31T09:07:10Z</time>
      </trkpt>
      <trkpt lat="44.12228" lon="4.57288">
        <ele>157.6</ele>
        <time>2019-07-31T09:07:15Z</time>
      </trkpt>
      <trkpt lat="44.1222" lon="4.5734">
        <ele>156.9</ele>
        <time>2019-07-31T09:07:20Z</time>
      </trkpt>
      <trkpt lat="44.12212" lon="4.5739">
        <ele>156.8</ele>
        <time>2019-07-31T09:07:25Z</time>
      </trkpt>
      <trkpt lat="44.122" lon="4.57437">
        <ele>158.6</ele>
        <time>2019-07-31T09:07:30Z</time>
      </trkpt>
      <trkpt lat="44.12197" lon="4.57482">
        <ele>161.3</ele>
        <time>2019-07-31T09:07:35Z</time>
      </trkpt>
      <trkpt lat="44.1219" lon="4.57518">
        <ele>159.8</ele>
        <time>2019-07-31T09:07:40Z</time>
      </trkpt>
      <trkpt lat="44.1217" lon="4.57542">
        <ele>162.8</ele>
        <time>2019-07-31T09:07:45Z</time>
      </trkpt>
      <trkpt lat="44.12145" lon="4.57537">
        <ele>161.9</ele>
        <time>2019-07-31T09:07:50Z</time>
      </trkpt>
      <trkpt lat="44.1212" lon="4.57532">
        <ele>162.6</ele>
        <time>2019-07-31T09:07:55Z</time>
      </trkpt>
      <trkpt lat="44.12095" lon="4.57543">
        <ele>163.3</ele>
        <time>2019-07-31T09:08:00Z</time>
      </trkpt>
      <trkpt lat="44.12082" lon="4.57572">
        <ele>162.1</ele>
        <time>2019-07-31T09:08:05Z</time>
      </trkpt>
      <trkpt lat="44.1207" lon="4.57603">
        <ele>162.8</ele>
        <time>2019-07-31T09:08:10Z</time>
      </trkpt>
      <trkpt lat="44.12043" lon="4.57607">
        <ele>160.9</ele>
        <time>2019-07-31T09:08:15Z</time>
      </trkpt>
      <trkpt lat="44.12015" lon="4.57597">
        <ele>161.8</ele>
        <time>2019-07-31T09:08:20Z</time>
      </trkpt>
      <trkpt lat="44.11985" lon="4.57588">
        <ele>162.9</ele>
        <time>2019-07-31T09:08:25Z</time>
      </trkpt>
      <trkpt lat="44.11952" lon="4.57578">
        <ele>163.4</ele>
        <time>2019-07-31T09:08:30Z</time>
      </trkpt>
      <trkpt lat="44.1192" lon="4.57568">
        <ele>163.4</ele>
        <time>2019-07-31T09:08:35Z</time>
      </trkpt>
      <trkpt lat="44.11888" lon="4.57567">
        <ele>164.1</ele>
        <time>2019-07-31T09:08:40Z</time>
      </trkpt>
      <trkpt lat="44.1186" lon="4.57577">
        <ele>163.6</ele>
        <time>2019-07-31T09:08:45Z</time>
      </trkpt>
      <trkpt lat="44.11833" lon="4.57595">
        <ele>163</ele>
        <time>2019-07-31T09:08:50Z</time>
      </trkpt>
      <trkpt lat="44.1181" lon="4.57623">
        <ele>163</ele>
        <time>2019-07-31T09:08:55Z</time>
      </trkpt>
      <trkpt lat="44.1179" lon="4.5765">
        <ele>163.5</ele>
        <time>2019-07-31T09:09:00Z</time>
      </trkpt>
      <trkpt lat="44.11772" lon="4.57668">
        <ele>163.1</ele>
        <time>2019-07-31T09:09:05Z</time>
      </trkpt>
      <trkpt lat="44.11762" lon="4.57687">
        <ele>166.4</ele>
        <time>2019-07-31T09:09:10Z</time>
      </trkpt>
      <trkpt lat="44.11775" lon="4.57705">
        <ele>165</ele>
        <time>2019-07-31T09:09:15Z</time>
      </trkpt>
      <trkpt lat="44.11792" lon="4.57725">
        <ele>166.2</ele>
        <time>2019-07-31T09:09:20Z</time>
      </trkpt>
      <trkpt lat="44.11807" lon="4.57743">
        <ele>167</ele>
        <time>2019-07-31T09:09:25Z</time>
      </trkpt>
      <trkpt lat="44.1182" lon="4.5776">
        <ele>167.7</ele>
        <time>2019-07-31T09:09:30Z</time>
      </trkpt>
      <trkpt lat="44.11833" lon="4.57778">
        <ele>168.8</ele>
        <time>2019-07-31T09:09:35Z</time>
      </trkpt>
      <trkpt lat="44.11845" lon="4.57793">
        <ele>170.3</ele>
        <time>2019-07-31T09:09:40Z</time>
      </trkpt>
      <trkpt lat="44.11858" lon="4.57808">
        <ele>170.7</ele>
        <time>2019-07-31T09:09:45Z</time>
      </trkpt>
      <trkpt lat="44.1187" lon="4.57825">
        <ele>173.8</ele>
        <time>2019-07-31T09:09:50Z</time>
      </trkpt>
      <trkpt lat="44.11883" lon="4.5784">
        <ele>174.6</ele>
        <time>2019-07-31T09:09:55Z</time>
      </trkpt>
      <trkpt lat="44.11897" lon="4.57853">
        <ele>174.7</ele>
        <time>2019-07-31T09:10:00Z</time>
      </trkpt>
      <trkpt lat="44.1191" lon="4.57868">
        <ele>175.6</ele>
        <time>2019-07-31T09:10:05Z</time>
      </trkpt>
      <trkpt lat="44.11925" lon="4.57882">
        <ele>176.9</ele>
        <time>2019-07-31T09:10:10Z</time>
      </trkpt>
      <trkpt lat="44.1194" lon="4.57895">
        <ele>176.7</ele>
        <time>2019-07-31T09:10:15Z</time>
      </trkpt>
      <trkpt lat="44.11953" lon="4.57908">
        <ele>176.5</ele>
        <time>2019-07-31T09:10:20Z</time>
      </trkpt>
      <trkpt lat="44.11968" lon="4.57923">
        <ele>178.1</ele>
        <time>2019-07-31T09:10:25Z</time>
      </trkpt>
      <trkpt lat="44.11985" lon="4.5794">
        <ele>179.8</ele>
        <time>2019-07-31T09:10:30Z</time>
      </trkpt>
      <trkpt lat="44.12" lon="4.57955">
        <ele>179.8</ele>
        <time>2019-07-31T09:10:35Z</time>
      </trkpt>
      <trkpt lat="44.12017" lon="4.57968">
        <ele>179.8</ele>
        <time>2019-07-31T09:10:40Z</time>
      </trkpt>
      <trkpt lat="44.12035" lon="4.57982">
        <ele>180.1</ele>
        <time>2019-07-31T09:10:45Z</time>
      </trkpt>
      <trkpt lat="44.12052" lon="4.57993">
        <ele>181.2</ele>
        <time>2019-07-31T09:10:50Z</time>
      </trkpt>
      <trkpt lat="44.1207" lon="4.58003">
        <ele>182</ele>
        <time>2019-07-31T09:10:55Z</time>
      </trkpt>
      <trkpt lat="44.1209" lon="4.58015">
        <ele>180.7</ele>
        <time>2019-07-31T09:11:00Z</time>
      </trkpt>
      <trkpt lat="44.12107" lon="4.58025">
        <ele>181</ele>
        <time>2019-07-31T09:11:05Z</time>
      </trkpt>
      <trkpt lat="44.12123" lon="4.58038">
        <ele>181.8</ele>
        <time>2019-07-31T09:11:10Z</time>
      </trkpt>
      <trkpt lat="44.12138" lon="4.58048">
        <ele>182.2</ele>
        <time>2019-07-31T09:11:15Z</time>
      </trkpt>
      <trkpt lat="44.12152" lon="4.5806">
        <ele>184</ele>
        <time>2019-07-31T09:11:20Z</time>
      </trkpt>
      <trkpt lat="44.12165" lon="4.5807">
        <ele>184.5</ele>
        <time>2019-07-31T09:11:25Z</time>
      </trkpt>
      <trkpt lat="44.12178" lon="4.58077">
        <ele>184.4</ele>
        <time>2019-07-31T09:11:30Z</time>
      </trkpt>
      <trkpt lat="44.12192" lon="4.5808">
        <ele>186.3</ele>
        <time>2019-07-31T09:11:35Z</time>
      </trkpt>
      <trkpt lat="44.12203" lon="4.58083">
        <ele>185.6</ele>
        <time>2019-07-31T09:11:40Z</time>
      </trkpt>
      <trkpt lat="44.12218" lon="4.58087">
        <ele>186.7</ele>
        <time>2019-07-31T09:11:45Z</time>
      </trkpt>
      <trkpt lat="44.12232" lon="4.58092">
        <ele>189.1</ele>
        <time>2019-07-31T09:11:50Z</time>
      </trkpt>
      <trkpt lat="44.12248" lon="4.58095">
        <ele>189.9</ele>
        <time>2019-07-31T09:11:55Z</time>
      </trkpt>
      <trkpt lat="44.12262" lon="4.58098">
        <ele>190.9</ele>
        <time>2019-07-31T09:12:00Z</time>
      </trkpt>
      <trkpt lat="44.12278" lon="4.58102">
        <ele>192.1</ele>
        <time>2019-07-31T09:12:05Z</time>
      </trkpt>
      <trkpt lat="44.12298" lon="4.58103">
        <ele>192.4</ele>
        <time>2019-07-31T09:12:10Z</time>
      </trkpt>
      <trkpt lat="44.12318" lon="4.58107">
        <ele>191</ele>
        <time>2019-07-31T09:12:15Z</time>
      </trkpt>
      <trkpt lat="44.12338" lon="4.58113">
        <ele>191.7</ele>
        <time>2019-07-31T09:12:20Z</time>
      </trkpt>
      <trkpt lat="44.12357" lon="4.58125">
        <ele>191.5</ele>
        <time>2019-07-31T09:12:25Z</time>
      </trkpt>
      <trkpt lat="44.12375" lon="4.5813">
        <ele>192.2</ele>
        <time>2019-07-31T09:12:30Z</time>
      </trkpt>
      <trkpt lat="44.12393" lon="4.58132">
        <ele>192.5</ele>
        <time>2019-07-31T09:12:35Z</time>
      </trkpt>
      <trkpt lat="44.1241" lon="4.5813">
        <ele>193.9</ele>
        <time>2019-07-31T09:12:40Z</time>
      </trkpt>
      <trkpt lat="44.12427" lon="4.58128">
        <ele>196.7</ele>
        <time>2019-07-31T09:12:45Z</time>
      </trkpt>
      <trkpt lat="44.12442" lon="4.58128">
        <ele>197</ele>
        <time>2019-07-31T09:12:50Z</time>
      </trkpt>
      <trkpt lat="44.12452" lon="4.58127">
        <ele>198.4</ele>
        <time>2019-07-31T09:12:55Z</time>
      </trkpt>
      <trkpt lat="44.12463" lon="4.58123">
        <ele>199.3</ele>
        <time>2019-07-31T09:13:00Z</time>
      </trkpt>
      <trkpt lat="44.12475" lon="4.5812">
        <ele>200.6</ele>
        <time>2019-07-31T09:13:05Z</time>
      </trkpt>
      <trkpt lat="44.12485" lon="4.58118">
        <ele>202.5</ele>
        <time>2019-07-31T09:13:10Z</time>
      </trkpt>
      <trkpt lat="44.12495" lon="4.5812">
        <ele>204.1</ele>
        <time>2019-07-31T09:13:15Z</time>
      </trkpt>
      <trkpt lat="44.12505" lon="4.5812">
        <ele>204.7</ele>
        <time>2019-07-31T09:13:20Z</time>
      </trkpt>
      <trkpt lat="44.12518" lon="4.58125">
        <ele>206.3</ele>
        <time>2019-07-31T09:13:25Z</time>
      </trkpt>
      <trkpt lat="44.12532" lon="4.5813">
        <ele>208</ele>
        <time>2019-07-31T09:13:30Z</time>
      </trkpt>
      <trkpt lat="44.12543" lon="4.58123">
        <ele>207.4</ele>
        <time>2019-07-31T09:13:35Z</time>
      </trkpt>
      <trkpt lat="44.12555" lon="4.58113">
        <ele>210</ele>
        <time>2019-07-31T09:13:40Z</time>
      </trkpt>
      <trkpt lat="44.12567" lon="4.58105">
        <ele>210.8</ele>
        <time>2019-07-31T09:13:45Z</time>
      </trkpt>
      <trkpt lat="44.12578" lon="4.58097">
        <ele>210.3</ele>
        <time>2019-07-31T09:13:50Z</time>
      </trkpt>
      <trkpt lat="44.12593" lon="4.58085">
        <ele>212</ele>
        <time>2019-07-31T09:13:55Z</time>
      </trkpt>
      <trkpt lat="44.12612" lon="4.58075">
        <ele>211.8</ele>
        <time>2019-07-31T09:14:00Z</time>
      </trkpt>
      <trkpt lat="44.12632" lon="4.58078">
        <ele>212.2</ele>
        <time>2019-07-31T09:14:05Z</time>
      </trkpt>
      <trkpt lat="44.12647" lon="4.58097">
        <ele>210.4</ele>
        <time>2019-07-31T09:14:10Z</time>
      </trkpt>
      <trkpt lat="44.12657" lon="4.58118">
        <ele>207.4</ele>
        <time>2019-07-31T09:14:15Z</time>
      </trkpt>
      <trkpt lat="44.12668" lon="4.58138">
        <ele>211.6</ele>
        <time>2019-07-31T09:14:20Z</time>
      </trkpt>
      <trkpt lat="44.1269" lon="4.58155">
        <ele>210.6</ele>
        <time>2019-07-31T09:14:25Z</time>
      </trkpt>
      <trkpt lat="44.127" lon="4.58178">
        <ele>207.9</ele>
        <time>2019-07-31T09:14:30Z</time>
      </trkpt>
      <trkpt lat="44.12703" lon="4.582">
        <ele>207.5</ele>
        <time>2019-07-31T09:14:35Z</time>
      </trkpt>
      <trkpt lat="44.12713" lon="4.5821">
        <ele>208.8</ele>
        <time>2019-07-31T09:14:40Z</time>
      </trkpt>
      <trkpt lat="44.12725" lon="4.58213">
        <ele>210.3</ele>
        <time>2019-07-31T09:14:45Z</time>
      </trkpt>
      <trkpt lat="44.12737" lon="4.58218">
        <ele>211.5</ele>
        <time>2019-07-31T09:14:50Z</time>
      </trkpt>
      <trkpt lat="44.12738" lon="4.58218">
        <ele>210.9</ele>
        <time>2019-07-31T09:14:55Z</time>
      </trkpt>
      <trkpt lat="44.1274" lon="4.58218">
        <ele>212.1</ele>
        <time>2019-07-31T09:15:10Z</time>
      </trkpt>
      <trkpt lat="44.1274" lon="4.58218">
        <ele>212.5</ele>
        <time>2019-07-31T09:15:15Z</time>
      </trkpt>
      <trkpt lat="44.1274" lon="4.58218">
        <ele>212.1</ele>
        <time>2019-07-31T09:15:20Z</time>
      </trkpt>
      <trkpt lat="44.12748" lon="4.5822">
        <ele>212.3</ele>
        <time>2019-07-31T09:15:25Z</time>
      </trkpt>
      <trkpt lat="44.12757" lon="4.58223">
        <ele>214.5</ele>
        <time>2019-07-31T09:15:30Z</time>
      </trkpt>
      <trkpt lat="44.12767" lon="4.58228">
        <ele>215.6</ele>
        <time>2019-07-31T09:15:35Z</time>
      </trkpt>
      <trkpt lat="44.12773" lon="4.58237">
        <ele>216.2</ele>
        <time>2019-07-31T09:15:40Z</time>
      </trkpt>
      <trkpt lat="44.12782" lon="4.58245">
        <ele>218.1</ele>
        <time>2019-07-31T09:15:45Z</time>
      </trkpt>
      <trkpt lat="44.1279" lon="4.5825">
        <ele>218.8</ele>
        <time>2019-07-31T09:15:50Z</time>
      </trkpt>
      <trkpt lat="44.12802" lon="4.58253">
        <ele>218.8</ele>
        <time>2019-07-31T09:15:55Z</time>
      </trkpt>
      <trkpt lat="44.12813" lon="4.58257">
        <ele>218.8</ele>
        <time>2019-07-31T09:16:00Z</time>
      </trkpt>
      <trkpt lat="44.12825" lon="4.58263">
        <ele>220.1</ele>
        <time>2019-07-31T09:16:05Z</time>
      </trkpt>
      <trkpt lat="44.12838" lon="4.58272">
        <ele>222.5</ele>
        <time>2019-07-31T09:16:10Z</time>
      </trkpt>
      <trkpt lat="44.1285" lon="4.5828">
        <ele>222.5</ele>
        <time>2019-07-31T09:16:15Z</time>
      </trkpt>
      <trkpt lat="44.12862" lon="4.5829">
        <ele>222.4</ele>
        <time>2019-07-31T09:16:20Z</time>
      </trkpt>
      <trkpt lat="44.12872" lon="4.583">
        <ele>223.8</ele>
        <time>2019-07-31T09:16:25Z</time>
      </trkpt>
      <trkpt lat="44.1288" lon="4.58307">
        <ele>224.6</ele>
        <time>2019-07-31T09:16:30Z</time>
      </trkpt>
      <trkpt lat="44.12887" lon="4.58315">
        <ele>225.7</ele>
        <time>2019-07-31T09:16:35Z</time>
      </trkpt>
      <trkpt lat="44.12893" lon="4.58322">
        <ele>226.8</ele>
        <time>2019-07-31T09:16:40Z</time>
      </trkpt>
      <trkpt lat="44.129" lon="4.58328">
        <ele>228.7</ele>
        <time>2019-07-31T09:16:45Z</time>
      </trkpt>
      <trkpt lat="44.12908" lon="4.58338">
        <ele>228.6</ele>
        <time>2019-07-31T09:16:50Z</time>
      </trkpt>
      <trkpt lat="44.1291" lon="4.5835">
        <ele>229.6</ele>
        <time>2019-07-31T09:16:55Z</time>
      </trkpt>
      <trkpt lat="44.129" lon="4.58348">
        <ele>231.7</ele>
        <time>2019-07-31T09:17:00Z</time>
      </trkpt>
      <trkpt lat="44.12893" lon="4.58342">
        <ele>233.5</ele>
        <time>2019-07-31T09:17:05Z</time>
      </trkpt>
      <trkpt lat="44.12885" lon="4.58343">
        <ele>232.2</ele>
        <time>2019-07-31T09:17:10Z</time>
      </trkpt>
      <trkpt lat="44.12887" lon="4.58352">
        <ele>234.2</ele>
        <time>2019-07-31T09:17:15Z</time>
      </trkpt>
      <trkpt lat="44.12892" lon="4.58355">
        <ele>234.4</ele>
        <time>2019-07-31T09:17:20Z</time>
      </trkpt>
      <trkpt lat="44.12902" lon="4.58362">
        <ele>235.4</ele>
        <time>2019-07-31T09:17:25Z</time>
      </trkpt>
      <trkpt lat="44.12908" lon="4.58368">
        <ele>235.9</ele>
        <time>2019-07-31T09:17:30Z</time>
      </trkpt>
      <trkpt lat="44.12918" lon="4.58378">
        <ele>236.8</ele>
        <time>2019-07-31T09:17:35Z</time>
      </trkpt>
      <trkpt lat="44.12927" lon="4.58388">
        <ele>238.3</ele>
        <time>2019-07-31T09:17:40Z</time>
      </trkpt>
      <trkpt lat="44.12933" lon="4.58398">
        <ele>239</ele>
        <time>2019-07-31T09:17:45Z</time>
      </trkpt>
      <trkpt lat="44.12938" lon="4.5841">
        <ele>240.8</ele>
        <time>2019-07-31T09:17:50Z</time>
      </trkpt>
      <trkpt lat="44.12943" lon="4.5842">
        <ele>241.3</ele>
        <time>2019-07-31T09:17:55Z</time>
      </trkpt>
      <trkpt lat="44.12953" lon="4.58432">
        <ele>241.4</ele>
        <time>2019-07-31T09:18:00Z</time>
      </trkpt>
      <trkpt lat="44.12952" lon="4.58447">
        <ele>243.5</ele>
        <time>2019-07-31T09:18:05Z</time>
      </trkpt>
      <trkpt lat="44.1295" lon="4.58462">
        <ele>243.3</ele>
        <time>2019-07-31T09:18:10Z</time>
      </trkpt>
      <trkpt lat="44.1295" lon="4.58477">
        <ele>244.9</ele>
        <time>2019-07-31T09:18:15Z</time>
      </trkpt>
      <trkpt lat="44.12952" lon="4.58493">
        <ele>246</ele>
        <time>2019-07-31T09:18:20Z</time>
      </trkpt>
      <trkpt lat="44.12952" lon="4.58505">
        <ele>247.5</ele>
        <time>2019-07-31T09:18:25Z</time>
      </trkpt>
      <trkpt lat="44.12942" lon="4.58493">
        <ele>248.5</ele>
        <time>2019-07-31T09:18:30Z</time>
      </trkpt>
      <trkpt lat="44.12943" lon="4.58478">
        <ele>247.5</ele>
        <time>2019-07-31T09:18:35Z</time>
      </trkpt>
      <trkpt lat="44.12938" lon="4.58462">
        <ele>250.5</ele>
        <time>2019-07-31T09:18:40Z</time>
      </trkpt>
      <trkpt lat="44.1293" lon="4.58443">
        <ele>250.5</ele>
        <time>2019-07-31T09:18:45Z</time>
      </trkpt>
      <trkpt lat="44.12918" lon="4.58428">
        <ele>249.2</ele>
        <time>2019-07-31T09:18:50Z</time>
      </trkpt>
      <trkpt lat="44.12907" lon="4.58417">
        <ele>250.5</ele>
        <time>2019-07-31T09:18:55Z</time>
      </trkpt>
      <trkpt lat="44.12893" lon="4.58413">
        <ele>250.8</ele>
        <time>2019-07-31T09:19:00Z</time>
      </trkpt>
      <trkpt lat="44.12878" lon="4.58415">
        <ele>252.5</ele>
        <time>2019-07-31T09:19:05Z</time>
      </trkpt>
      <trkpt lat="44.12863" lon="4.58418">
        <ele>253</ele>
        <time>2019-07-31T09:19:10Z</time>
      </trkpt>
      <trkpt lat="44.12848" lon="4.58423">
        <ele>254.6</ele>
        <time>2019-07-31T09:19:15Z</time>
      </trkpt>
      <trkpt lat="44.12832" lon="4.58428">
        <ele>254.9</ele>
        <time>2019-07-31T09:19:20Z</time>
      </trkpt>
      <trkpt lat="44.12822" lon="4.58442">
        <ele>257.4</ele>
        <time>2019-07-31T09:19:25Z</time>
      </trkpt>
      <trkpt lat="44.12827" lon="4.58457">
        <ele>257.5</ele>
        <time>2019-07-31T09:19:30Z</time>
      </trkpt>
      <trkpt lat="44.12835" lon="4.5847">
        <ele>258.8</ele>
        <time>2019-07-31T09:19:35Z</time>
      </trkpt>
      <trkpt lat="44.12843" lon="4.58478">
        <ele>261.4</ele>
        <time>2019-07-31T09:19:40Z</time>
      </trkpt>
      <trkpt lat="44.12852" lon="4.58488">
        <ele>260.4</ele>
        <time>2019-07-31T09:19:45Z</time>
      </trkpt>
      <trkpt lat="44.12863" lon="4.58498">
        <ele>261.1</ele>
        <time>2019-07-31T09:19:50Z</time>
      </trkpt>
      <trkpt lat="44.1287" lon="4.58508">
        <ele>263.9</ele>
        <time>2019-07-31T09:19:55Z</time>
      </trkpt>
      <trkpt lat="44.12878" lon="4.58522">
        <ele>265.1</ele>
        <time>2019-07-31T09:20:00Z</time>
      </trkpt>
      <trkpt lat="44.12885" lon="4.58535">
        <ele>264.9</ele>
        <time>2019-07-31T09:20:05Z</time>
      </trkpt>
      <trkpt lat="44.12893" lon="4.58552">
        <ele>266.2</ele>
        <time>2019-07-31T09:20:10Z</time>
      </trkpt>
      <trkpt lat="44.129" lon="4.58565">
        <ele>265.9</ele>
        <time>2019-07-31T09:20:15Z</time>
      </trkpt>
      <trkpt lat="44.12907" lon="4.58578">
        <ele>267.6</ele>
        <time>2019-07-31T09:20:20Z</time>
      </trkpt>
      <trkpt lat="44.12915" lon="4.58593">
        <ele>267</ele>
        <time>2019-07-31T09:20:25Z</time>
      </trkpt>
      <trkpt lat="44.12925" lon="4.58605">
        <ele>271.4</ele>
        <time>2019-07-31T09:20:30Z</time>
      </trkpt>
      <trkpt lat="44.12935" lon="4.5862">
        <ele>269.6</ele>
        <time>2019-07-31T09:20:35Z</time>
      </trkpt>
      <trkpt lat="44.1294" lon="4.58628">
        <ele>271.6</ele>
        <time>2019-07-31T09:20:40Z</time>
      </trkpt>
      <trkpt lat="44.12947" lon="4.58642">
        <ele>272.8</ele>
        <time>2019-07-31T09:20:45Z</time>
      </trkpt>
      <trkpt lat="44.12957" lon="4.58653">
        <ele>273.6</ele>
        <time>2019-07-31T09:20:50Z</time>
      </trkpt>
      <trkpt lat="44.12963" lon="4.58668">
        <ele>274.6</ele>
        <time>2019-07-31T09:20:55Z</time>
      </trkpt>
      <trkpt lat="44.12972" lon="4.5868">
        <ele>274.7</ele>
        <time>2019-07-31T09:21:00Z</time>
      </trkpt>
      <trkpt lat="44.12982" lon="4.58698">
        <ele>274</ele>
        <time>2019-07-31T09:21:05Z</time>
      </trkpt>
      <trkpt lat="44.12992" lon="4.58715">
        <ele>274.6</ele>
        <time>2019-07-31T09:21:10Z</time>
      </trkpt>
      <trkpt lat="44.12995" lon="4.58737">
        <ele>275.4</ele>
        <time>2019-07-31T09:21:15Z</time>
      </trkpt>
      <trkpt lat="44.12975" lon="4.58747">
        <ele>275.4</ele>
        <time>2019-07-31T09:21:20Z</time>
      </trkpt>
      <trkpt lat="44.12952" lon="4.58752">
        <ele>276</ele>
        <time>2019-07-31T09:21:25Z</time>
      </trkpt>
      <trkpt lat="44.12928" lon="4.58755">
        <ele>274.7</ele>
        <time>2019-07-31T09:21:30Z</time>
      </trkpt>
      <trkpt lat="44.12903" lon="4.58763">
        <ele>274.2</ele>
        <time>2019-07-31T09:21:35Z</time>
      </trkpt>
      <trkpt lat="44.12875" lon="4.58773">
        <ele>272.2</ele>
        <time>2019-07-31T09:21:40Z</time>
      </trkpt>
      <trkpt lat="44.12843" lon="4.58775">
        <ele>269.2</ele>
        <time>2019-07-31T09:21:45Z</time>
      </trkpt>
      <trkpt lat="44.12817" lon="4.5877">
        <ele>270.1</ele>
        <time>2019-07-31T09:21:50Z</time>
      </trkpt>
      <trkpt lat="44.12788" lon="4.58747">
        <ele>268.3</ele>
        <time>2019-07-31T09:21:55Z</time>
      </trkpt>
      <trkpt lat="44.12755" lon="4.5872">
        <ele>265.3</ele>
        <time>2019-07-31T09:22:00Z</time>
      </trkpt>
      <trkpt lat="44.1272" lon="4.58707">
        <ele>257.9</ele>
        <time>2019-07-31T09:22:05Z</time>
      </trkpt>
      <trkpt lat="44.12687" lon="4.58692">
        <ele>255</ele>
        <time>2019-07-31T09:22:10Z</time>
      </trkpt>
      <trkpt lat="44.12652" lon="4.58663">
        <ele>252.6</ele>
        <time>2019-07-31T09:22:15Z</time>
      </trkpt>
      <trkpt lat="44.12623" lon="4.5864">
        <ele>250.2</ele>
        <time>2019-07-31T09:22:20Z</time>
      </trkpt>
      <trkpt lat="44.12595" lon="4.58628">
        <ele>246.9</ele>
        <time>2019-07-31T09:22:25Z</time>
      </trkpt>
      <trkpt lat="44.12562" lon="4.58617">
        <ele>246.1</ele>
        <time>2019-07-31T09:22:30Z</time>
      </trkpt>
      <trkpt lat="44.12533" lon="4.586">
        <ele>240.7</ele>
        <time>2019-07-31T09:22:35Z</time>
      </trkpt>
      <trkpt lat="44.12502" lon="4.58577">
        <ele>237.8</ele>
        <time>2019-07-31T09:22:40Z</time>
      </trkpt>
      <trkpt lat="44.12473" lon="4.58552">
        <ele>232.6</ele>
        <time>2019-07-31T09:22:45Z</time>
      </trkpt>
      <trkpt lat="44.12457" lon="4.58532">
        <ele>228.5</ele>
        <time>2019-07-31T09:22:50Z</time>
      </trkpt>
      <trkpt lat="44.12445" lon="4.58545">
        <ele>226.1</ele>
        <time>2019-07-31T09:22:55Z</time>
      </trkpt>
      <trkpt lat="44.12443" lon="4.58582">
        <ele>226</ele>
        <time>2019-07-31T09:23:00Z</time>
      </trkpt>
      <trkpt lat="44.1244" lon="4.5861">
        <ele>225.6</ele>
        <time>2019-07-31T09:23:05Z</time>
      </trkpt>
      <trkpt lat="44.12433" lon="4.58628">
        <ele>222.2</ele>
        <time>2019-07-31T09:23:10Z</time>
      </trkpt>
      <trkpt lat="44.12442" lon="4.58667">
        <ele>220</ele>
        <time>2019-07-31T09:23:15Z</time>
      </trkpt>
      <trkpt lat="44.12463" lon="4.587">
        <ele>220</ele>
        <time>2019-07-31T09:23:20Z</time>
      </trkpt>
      <trkpt lat="44.12487" lon="4.58732">
        <ele>219.8</ele>
        <time>2019-07-31T09:23:25Z</time>
      </trkpt>
      <trkpt lat="44.12512" lon="4.58758">
        <ele>219</ele>
        <time>2019-07-31T09:23:30Z</time>
      </trkpt>
      <trkpt lat="44.12537" lon="4.5878">
        <ele>218.6</ele>
        <time>2019-07-31T09:23:35Z</time>
      </trkpt>
      <trkpt lat="44.1254" lon="4.5881">
        <ele>217.9</ele>
        <time>2019-07-31T09:23:40Z</time>
      </trkpt>
      <trkpt lat="44.12535" lon="4.58832">
        <ele>221.2</ele>
        <time>2019-07-31T09:23:45Z</time>
      </trkpt>
      <trkpt lat="44.1254" lon="4.58853">
        <ele>223.2</ele>
        <time>2019-07-31T09:23:50Z</time>
      </trkpt>
      <trkpt lat="44.1255" lon="4.5887">
        <ele>224.9</ele>
        <time>2019-07-31T09:23:55Z</time>
      </trkpt>
      <trkpt lat="44.12567" lon="4.58883">
        <ele>225.4</ele>
        <time>2019-07-31T09:24:00Z</time>
      </trkpt>
      <trkpt lat="44.12582" lon="4.58897">
        <ele>227.1</ele>
        <time>2019-07-31T09:24:05Z</time>
      </trkpt>
      <trkpt lat="44.12597" lon="4.5891">
        <ele>228</ele>
        <time>2019-07-31T09:24:10Z</time>
      </trkpt>
      <trkpt lat="44.1261" lon="4.58922">
        <ele>228.5</ele>
        <time>2019-07-31T09:24:15Z</time>
      </trkpt>
      <trkpt lat="44.12627" lon="4.58938">
        <ele>229.1</ele>
        <time>2019-07-31T09:24:20Z</time>
      </trkpt>
      <trkpt lat="44.12642" lon="4.58962">
        <ele>229.5</ele>
        <time>2019-07-31T09:24:25Z</time>
      </trkpt>
      <trkpt lat="44.12653" lon="4.5899">
        <ele>231.8</ele>
        <time>2019-07-31T09:24:30Z</time>
      </trkpt>
      <trkpt lat="44.1266" lon="4.5902">
        <ele>231.1</ele>
        <time>2019-07-31T09:24:35Z</time>
      </trkpt>
      <trkpt lat="44.12667" lon="4.5905">
        <ele>230.2</ele>
        <time>2019-07-31T09:24:40Z</time>
      </trkpt>
      <trkpt lat="44.12675" lon="4.59073">
        <ele>231.4</ele>
        <time>2019-07-31T09:24:45Z</time>
      </trkpt>
      <trkpt lat="44.12692" lon="4.59092">
        <ele>233.2</ele>
        <time>2019-07-31T09:24:50Z</time>
      </trkpt>
      <trkpt lat="44.12708" lon="4.5911">
        <ele>234.4</ele>
        <time>2019-07-31T09:24:55Z</time>
      </trkpt>
      <trkpt lat="44.12723" lon="4.5913">
        <ele>234</ele>
        <time>2019-07-31T09:25:00Z</time>
      </trkpt>
      <trkpt lat="44.12742" lon="4.59145">
        <ele>234.8</ele>
        <time>2019-07-31T09:25:05Z</time>
      </trkpt>
      <trkpt lat="44.12762" lon="4.59158">
        <ele>235.1</ele>
        <time>2019-07-31T09:25:10Z</time>
      </trkpt>
      <trkpt lat="44.12783" lon="4.59167">
        <ele>235.6</ele>
        <time>2019-07-31T09:25:15Z</time>
      </trkpt>
      <trkpt lat="44.12805" lon="4.59175">
        <ele>235.6</ele>
        <time>2019-07-31T09:25:20Z</time>
      </trkpt>
      <trkpt lat="44.12825" lon="4.59182">
        <ele>236.6</ele>
        <time>2019-07-31T09:25:25Z</time>
      </trkpt>
      <trkpt lat="44.12847" lon="4.59187">
        <ele>234.3</ele>
        <time>2019-07-31T09:25:30Z</time>
      </trkpt>
      <trkpt lat="44.12865" lon="4.5919">
        <ele>236.3</ele>
        <time>2019-07-31T09:25:35Z</time>
      </trkpt>
      <trkpt lat="44.12885" lon="4.59192">
        <ele>235.2</ele>
        <time>2019-07-31T09:25:40Z</time>
      </trkpt>
      <trkpt lat="44.12905" lon="4.59193">
        <ele>239</ele>
        <time>2019-07-31T09:25:45Z</time>
      </trkpt>
      <trkpt lat="44.12925" lon="4.59197">
        <ele>238.4</ele>
        <time>2019-07-31T09:25:50Z</time>
      </trkpt>
      <trkpt lat="44.12947" lon="4.592">
        <ele>238.4</ele>
        <time>2019-07-31T09:25:55Z</time>
      </trkpt>
      <trkpt lat="44.12965" lon="4.59203">
        <ele>239.9</ele>
        <time>2019-07-31T09:26:00Z</time>
      </trkpt>
      <trkpt lat="44.12985" lon="4.59212">
        <ele>236.1</ele>
        <time>2019-07-31T09:26:05Z</time>
      </trkpt>
      <trkpt lat="44.13007" lon="4.5922">
        <ele>239.1</ele>
        <time>2019-07-31T09:26:10Z</time>
      </trkpt>
      <trkpt lat="44.13028" lon="4.59228">
        <ele>238.3</ele>
        <time>2019-07-31T09:26:15Z</time>
      </trkpt>
      <trkpt lat="44.13048" lon="4.59237">
        <ele>239</ele>
        <time>2019-07-31T09:26:20Z</time>
      </trkpt>
      <trkpt lat="44.13068" lon="4.5925">
        <ele>240.2</ele>
        <time>2019-07-31T09:26:25Z</time>
      </trkpt>
      <trkpt lat="44.13085" lon="4.59265">
        <ele>239.2</ele>
        <time>2019-07-31T09:26:30Z</time>
      </trkpt>
      <trkpt lat="44.13097" lon="4.59277">
        <ele>239.7</ele>
        <time>2019-07-31T09:26:35Z</time>
      </trkpt>
      <trkpt lat="44.13112" lon="4.59292">
        <ele>238.3</ele>
        <time>2019-07-31T09:26:40Z</time>
      </trkpt>
      <trkpt lat="44.1313" lon="4.59315">
        <ele>239.3</ele>
        <time>2019-07-31T09:26:45Z</time>
      </trkpt>
      <trkpt lat="44.13153" lon="4.5934">
        <ele>237.5</ele>
        <time>2019-07-31T09:26:50Z</time>
      </trkpt>
      <trkpt lat="44.13177" lon="4.59365">
        <ele>239.3</ele>
        <time>2019-07-31T09:26:55Z</time>
      </trkpt>
      <trkpt lat="44.13203" lon="4.5939">
        <ele>234.6</ele>
        <time>2019-07-31T09:27:00Z</time>
      </trkpt>
      <trkpt lat="44.13228" lon="4.5942">
        <ele>235</ele>
        <time>2019-07-31T09:27:05Z</time>
      </trkpt>
      <trkpt lat="44.13255" lon="4.5944">
        <ele>235.8</ele>
        <time>2019-07-31T09:27:10Z</time>
      </trkpt>
      <trkpt lat="44.13285" lon="4.59457">
        <ele>234.6</ele>
        <time>2019-07-31T09:27:15Z</time>
      </trkpt>
      <trkpt lat="44.13313" lon="4.59472">
        <ele>233.2</ele>
        <time>2019-07-31T09:27:20Z</time>
      </trkpt>
      <trkpt lat="44.1334" lon="4.59482">
        <ele>239.4</ele>
        <time>2019-07-31T09:27:25Z</time>
      </trkpt>
      <trkpt lat="44.13368" lon="4.59493">
        <ele>237</ele>
        <time>2019-07-31T09:27:30Z</time>
      </trkpt>
      <trkpt lat="44.13395" lon="4.59505">
        <ele>234.9</ele>
        <time>2019-07-31T09:27:35Z</time>
      </trkpt>
      <trkpt lat="44.13423" lon="4.59513">
        <ele>235</ele>
        <time>2019-07-31T09:27:40Z</time>
      </trkpt>
      <trkpt lat="44.13455" lon="4.59497">
        <ele>230.9</ele>
        <time>2019-07-31T09:27:45Z</time>
      </trkpt>
      <trkpt lat="44.13483" lon="4.59488">
        <ele>231.9</ele>
        <time>2019-07-31T09:27:50Z</time>
      </trkpt>
      <trkpt lat="44.13507" lon="4.59508">
        <ele>229.9</ele>
        <time>2019-07-31T09:27:55Z</time>
      </trkpt>
      <trkpt lat="44.13535" lon="4.59508">
        <ele>229.5</ele>
        <time>2019-07-31T09:28:00Z</time>
      </trkpt>
      <trkpt lat="44.13562" lon="4.59508">
        <ele>230.2</ele>
        <time>2019-07-31T09:28:05Z</time>
      </trkpt>
      <trkpt lat="44.13578" lon="4.59537">
        <ele>230.2</ele>
        <time>2019-07-31T09:28:10Z</time>
      </trkpt>
      <trkpt lat="44.13588" lon="4.59568">
        <ele>232.8</ele>
        <time>2019-07-31T09:28:15Z</time>
      </trkpt>
      <trkpt lat="44.13608" lon="4.59597">
        <ele>226.7</ele>
        <time>2019-07-31T09:28:20Z</time>
      </trkpt>
      <trkpt lat="44.13637" lon="4.59607">
        <ele>224.7</ele>
        <time>2019-07-31T09:28:25Z</time>
      </trkpt>
      <trkpt lat="44.13662" lon="4.5962">
        <ele>229.4</ele>
        <time>2019-07-31T09:28:30Z</time>
      </trkpt>
      <trkpt lat="44.13685" lon="4.59643">
        <ele>228.2</ele>
        <time>2019-07-31T09:28:35Z</time>
      </trkpt>
      <trkpt lat="44.13703" lon="4.59665">
        <ele>228.9</ele>
        <time>2019-07-31T09:28:40Z</time>
      </trkpt>
      <trkpt lat="44.13727" lon="4.59677">
        <ele>229.6</ele>
        <time>2019-07-31T09:28:45Z</time>
      </trkpt>
      <trkpt lat="44.1375" lon="4.59688">
        <ele>229.6</ele>
        <time>2019-07-31T09:28:50Z</time>
      </trkpt>
      <trkpt lat="44.1377" lon="4.5971">
        <ele>232.7</ele>
        <time>2019-07-31T09:28:55Z</time>
      </trkpt>
      <trkpt lat="44.13792" lon="4.59723">
        <ele>233.5</ele>
        <time>2019-07-31T09:29:00Z</time>
      </trkpt>
      <trkpt lat="44.13813" lon="4.59737">
        <ele>233.5</ele>
        <time>2019-07-31T09:29:05Z</time>
      </trkpt>
      <trkpt lat="44.1383" lon="4.59757">
        <ele>231.9</ele>
        <time>2019-07-31T09:29:10Z</time>
      </trkpt>
      <trkpt lat="44.1385" lon="4.59772">
        <ele>231.9</ele>
        <time>2019-07-31T09:29:15Z</time>
      </trkpt>
      <trkpt lat="44.13873" lon="4.59783">
        <ele>232.7</ele>
        <time>2019-07-31T09:29:20Z</time>
      </trkpt>
      <trkpt lat="44.13878" lon="4.59805">
        <ele>230.2</ele>
        <time>2019-07-31T09:29:25Z</time>
      </trkpt>
      <trkpt lat="44.13895" lon="4.59828">
        <ele>230.4</ele>
        <time>2019-07-31T09:29:30Z</time>
      </trkpt>
      <trkpt lat="44.1393" lon="4.59847">
        <ele>228.4</ele>
        <time>2019-07-31T09:29:35Z</time>
      </trkpt>
      <trkpt lat="44.13967" lon="4.59867">
        <ele>221</ele>
        <time>2019-07-31T09:29:40Z</time>
      </trkpt>
      <trkpt lat="44.14002" lon="4.59887">
        <ele>219.9</ele>
        <time>2019-07-31T09:29:45Z</time>
      </trkpt>
      <trkpt lat="44.14032" lon="4.59878">
        <ele>217.6</ele>
        <time>2019-07-31T09:29:50Z</time>
      </trkpt>
      <trkpt lat="44.14058" lon="4.59883">
        <ele>219.5</ele>
        <time>2019-07-31T09:29:55Z</time>
      </trkpt>
      <trkpt lat="44.14083" lon="4.599">
        <ele>217.4</ele>
        <time>2019-07-31T09:30:00Z</time>
      </trkpt>
      <trkpt lat="44.14108" lon="4.59918">
        <ele>215</ele>
        <time>2019-07-31T09:30:05Z</time>
      </trkpt>
      <trkpt lat="44.14137" lon="4.59932">
        <ele>215.4</ele>
        <time>2019-07-31T09:30:10Z</time>
      </trkpt>
      <trkpt lat="44.14168" lon="4.59933">
        <ele>215.8</ele>
        <time>2019-07-31T09:30:15Z</time>
      </trkpt>
      <trkpt lat="44.14197" lon="4.59935">
        <ele>213.8</ele>
        <time>2019-07-31T09:30:20Z</time>
      </trkpt>
      <trkpt lat="44.14228" lon="4.5994">
        <ele>214.8</ele>
        <time>2019-07-31T09:30:25Z</time>
      </trkpt>
      <trkpt lat="44.1426" lon="4.59938">
        <ele>213.2</ele>
        <time>2019-07-31T09:30:30Z</time>
      </trkpt>
      <trkpt lat="44.1429" lon="4.59922">
        <ele>211.9</ele>
        <time>2019-07-31T09:30:35Z</time>
      </trkpt>
      <trkpt lat="44.1432" lon="4.599">
        <ele>212.6</ele>
        <time>2019-07-31T09:30:40Z</time>
      </trkpt>
      <trkpt lat="44.14352" lon="4.59883">
        <ele>212</ele>
        <time>2019-07-31T09:30:45Z</time>
      </trkpt>
      <trkpt lat="44.14382" lon="4.59878">
        <ele>214.8</ele>
        <time>2019-07-31T09:30:50Z</time>
      </trkpt>
      <trkpt lat="44.14408" lon="4.59888">
        <ele>214.8</ele>
        <time>2019-07-31T09:30:55Z</time>
      </trkpt>
      <trkpt lat="44.14435" lon="4.59893">
        <ele>217</ele>
        <time>2019-07-31T09:31:00Z</time>
      </trkpt>
      <trkpt lat="44.14457" lon="4.59887">
        <ele>215.5</ele>
        <time>2019-07-31T09:31:05Z</time>
      </trkpt>
      <trkpt lat="44.14475" lon="4.59892">
        <ele>217.7</ele>
        <time>2019-07-31T09:31:10Z</time>
      </trkpt>
      <trkpt lat="44.14492" lon="4.59897">
        <ele>218.3</ele>
        <time>2019-07-31T09:31:15Z</time>
      </trkpt>
      <trkpt lat="44.1451" lon="4.59898">
        <ele>216</ele>
        <time>2019-07-31T09:31:20Z</time>
      </trkpt>
      <trkpt lat="44.14535" lon="4.599">
        <ele>214.7</ele>
        <time>2019-07-31T09:31:25Z</time>
      </trkpt>
      <trkpt lat="44.14563" lon="4.59895">
        <ele>213.2</ele>
        <time>2019-07-31T09:31:30Z</time>
      </trkpt>
      <trkpt lat="44.14593" lon="4.599">
        <ele>220.5</ele>
        <time>2019-07-31T09:31:35Z</time>
      </trkpt>
      <trkpt lat="44.14623" lon="4.59903">
        <ele>213.4</ele>
        <time>2019-07-31T09:31:40Z</time>
      </trkpt>
      <trkpt lat="44.14648" lon="4.59918">
        <ele>216.4</ele>
        <time>2019-07-31T09:31:45Z</time>
      </trkpt>
      <trkpt lat="44.14673" lon="4.59932">
        <ele>215.7</ele>
        <time>2019-07-31T09:31:50Z</time>
      </trkpt>
      <trkpt lat="44.14695" lon="4.59945">
        <ele>215.5</ele>
        <time>2019-07-31T09:31:55Z</time>
      </trkpt>
      <trkpt lat="44.14713" lon="4.59955">
        <ele>216.5</ele>
        <time>2019-07-31T09:32:00Z</time>
      </trkpt>
      <trkpt lat="44.14732" lon="4.59962">
        <ele>216.9</ele>
        <time>2019-07-31T09:32:05Z</time>
      </trkpt>
      <trkpt lat="44.14748" lon="4.59968">
        <ele>218</ele>
        <time>2019-07-31T09:32:10Z</time>
      </trkpt>
      <trkpt lat="44.14763" lon="4.59977">
        <ele>219.2</ele>
        <time>2019-07-31T09:32:15Z</time>
      </trkpt>
      <trkpt lat="44.14782" lon="4.59962">
        <ele>217</ele>
        <time>2019-07-31T09:32:20Z</time>
      </trkpt>
      <trkpt lat="44.14782" lon="4.5992">
        <ele>215.7</ele>
        <time>2019-07-31T09:32:25Z</time>
      </trkpt>
      <trkpt lat="44.14793" lon="4.59873">
        <ele>211.7</ele>
        <time>2019-07-31T09:32:30Z</time>
      </trkpt>
      <trkpt lat="44.14813" lon="4.59862">
        <ele>209.4</ele>
        <time>2019-07-31T09:32:35Z</time>
      </trkpt>
      <trkpt lat="44.14843" lon="4.59873">
        <ele>207.5</ele>
        <time>2019-07-31T09:32:40Z</time>
      </trkpt>
      <trkpt lat="44.14873" lon="4.59877">
        <ele>206.8</ele>
        <time>2019-07-31T09:32:45Z</time>
      </trkpt>
      <trkpt lat="44.14903" lon="4.5988">
        <ele>205.8</ele>
        <time>2019-07-31T09:32:50Z</time>
      </trkpt>
      <trkpt lat="44.14935" lon="4.59882">
        <ele>204.1</ele>
        <time>2019-07-31T09:32:55Z</time>
      </trkpt>
      <trkpt lat="44.14967" lon="4.59887">
        <ele>202.8</ele>
        <time>2019-07-31T09:33:00Z</time>
      </trkpt>
      <trkpt lat="44.14983" lon="4.59908">
        <ele>204.1</ele>
        <time>2019-07-31T09:33:05Z</time>
      </trkpt>
      <trkpt lat="44.14983" lon="4.59947">
        <ele>203</ele>
        <time>2019-07-31T09:33:10Z</time>
      </trkpt>
      <trkpt lat="44.15" lon="4.59972">
        <ele>206.1</ele>
        <time>2019-07-31T09:33:15Z</time>
      </trkpt>
      <trkpt lat="44.15028" lon="4.59978">
        <ele>205.5</ele>
        <time>2019-07-31T09:33:20Z</time>
      </trkpt>
      <trkpt lat="44.15053" lon="4.59992">
        <ele>205.9</ele>
        <time>2019-07-31T09:33:25Z</time>
      </trkpt>
      <trkpt lat="44.15078" lon="4.60003">
        <ele>206.4</ele>
        <time>2019-07-31T09:33:30Z</time>
      </trkpt>
      <trkpt lat="44.15102" lon="4.60008">
        <ele>208.1</ele>
        <time>2019-07-31T09:33:35Z</time>
      </trkpt>
      <trkpt lat="44.15127" lon="4.60003">
        <ele>208.7</ele>
        <time>2019-07-31T09:33:40Z</time>
      </trkpt>
      <trkpt lat="44.15152" lon="4.59998">
        <ele>207.5</ele>
        <time>2019-07-31T09:33:45Z</time>
      </trkpt>
      <trkpt lat="44.15175" lon="4.59998">
        <ele>207.5</ele>
        <time>2019-07-31T09:33:50Z</time>
      </trkpt>
      <trkpt lat="44.15198" lon="4.60003">
        <ele>207.7</ele>
        <time>2019-07-31T09:33:55Z</time>
      </trkpt>
      <trkpt lat="44.15225" lon="4.60008">
        <ele>207.4</ele>
        <time>2019-07-31T09:34:00Z</time>
      </trkpt>
      <trkpt lat="44.15253" lon="4.60008">
        <ele>205.7</ele>
        <time>2019-07-31T09:34:05Z</time>
      </trkpt>
      <trkpt lat="44.15268" lon="4.6002">
        <ele>204.2</ele>
        <time>2019-07-31T09:34:10Z</time>
      </trkpt>
      <trkpt lat="44.15273" lon="4.60063">
        <ele>199.9</ele>
        <time>2019-07-31T09:34:15Z</time>
      </trkpt>
      <trkpt lat="44.15282" lon="4.60113">
        <ele>198</ele>
        <time>2019-07-31T09:34:20Z</time>
      </trkpt>
      <trkpt lat="44.15308" lon="4.60135">
        <ele>195.9</ele>
        <time>2019-07-31T09:34:25Z</time>
      </trkpt>
      <trkpt lat="44.15342" lon="4.60147">
        <ele>191.1</ele>
        <time>2019-07-31T09:34:30Z</time>
      </trkpt>
      <trkpt lat="44.1538" lon="4.60158">
        <ele>189.3</ele>
        <time>2019-07-31T09:34:35Z</time>
      </trkpt>
      <trkpt lat="44.15412" lon="4.60163">
        <ele>183.6</ele>
        <time>2019-07-31T09:34:40Z</time>
      </trkpt>
      <trkpt lat="44.15435" lon="4.60185">
        <ele>181</ele>
        <time>2019-07-31T09:34:45Z</time>
      </trkpt>
      <trkpt lat="44.15467" lon="4.6017">
        <ele>180.2</ele>
        <time>2019-07-31T09:34:50Z</time>
      </trkpt>
      <trkpt lat="44.155" lon="4.60162">
        <ele>178.3</ele>
        <time>2019-07-31T09:34:55Z</time>
      </trkpt>
      <trkpt lat="44.15532" lon="4.60147">
        <ele>178.7</ele>
        <time>2019-07-31T09:35:00Z</time>
      </trkpt>
      <trkpt lat="44.1557" lon="4.6013">
        <ele>172.6</ele>
        <time>2019-07-31T09:35:05Z</time>
      </trkpt>
      <trkpt lat="44.15607" lon="4.6012">
        <ele>168.5</ele>
        <time>2019-07-31T09:35:10Z</time>
      </trkpt>
      <trkpt lat="44.15648" lon="4.6014">
        <ele>162.9</ele>
        <time>2019-07-31T09:35:15Z</time>
      </trkpt>
      <trkpt lat="44.15693" lon="4.60152">
        <ele>159</ele>
        <time>2019-07-31T09:35:20Z</time>
      </trkpt>
      <trkpt lat="44.15735" lon="4.6017">
        <ele>153.9</ele>
        <time>2019-07-31T09:35:25Z</time>
      </trkpt>
      <trkpt lat="44.1578" lon="4.60183">
        <ele>149.9</ele>
        <time>2019-07-31T09:35:30Z</time>
      </trkpt>
      <trkpt lat="44.15822" lon="4.6018">
        <ele>143.9</ele>
        <time>2019-07-31T09:35:35Z</time>
      </trkpt>
      <trkpt lat="44.15863" lon="4.60167">
        <ele>139</ele>
        <time>2019-07-31T09:35:40Z</time>
      </trkpt>
      <trkpt lat="44.15903" lon="4.60168">
        <ele>136</ele>
        <time>2019-07-31T09:35:45Z</time>
      </trkpt>
      <trkpt lat="44.15948" lon="4.60183">
        <ele>132.4</ele>
        <time>2019-07-31T09:35:50Z</time>
      </trkpt>
      <trkpt lat="44.1599" lon="4.60195">
        <ele>128.3</ele>
        <time>2019-07-31T09:35:55Z</time>
      </trkpt>
      <trkpt lat="44.16017" lon="4.60208">
        <ele>127.4</ele>
        <time>2019-07-31T09:36:00Z</time>
      </trkpt>
      <trkpt lat="44.16023" lon="4.6021">
        <ele>126</ele>
        <time>2019-07-31T09:36:05Z</time>
      </trkpt>
      <trkpt lat="44.16032" lon="4.60207">
        <ele>126.2</ele>
        <time>2019-07-31T09:36:15Z</time>
      </trkpt>
      <trkpt lat="44.16033" lon="4.60185">
        <ele>125.9</ele>
        <time>2019-07-31T09:36:20Z</time>
      </trkpt>
      <trkpt lat="44.16037" lon="4.60147">
        <ele>125.4</ele>
        <time>2019-07-31T09:36:25Z</time>
      </trkpt>
      <trkpt lat="44.1604" lon="4.60098">
        <ele>124.3</ele>
        <time>2019-07-31T09:36:30Z</time>
      </trkpt>
      <trkpt lat="44.16045" lon="4.60048">
        <ele>124.7</ele>
        <time>2019-07-31T09:36:35Z</time>
      </trkpt>
      <trkpt lat="44.1605" lon="4.59998">
        <ele>123.9</ele>
        <time>2019-07-31T09:36:40Z</time>
      </trkpt>
      <trkpt lat="44.1605" lon="4.59948">
        <ele>127.2</ele>
        <time>2019-07-31T09:36:45Z</time>
      </trkpt>
      <trkpt lat="44.16052" lon="4.59892">
        <ele>124.5</ele>
        <time>2019-07-31T09:36:50Z</time>
      </trkpt>
      <trkpt lat="44.16055" lon="4.59835">
        <ele>123.2</ele>
        <time>2019-07-31T09:36:55Z</time>
      </trkpt>
      <trkpt lat="44.16055" lon="4.5978">
        <ele>122.5</ele>
        <time>2019-07-31T09:37:00Z</time>
      </trkpt>
      <trkpt lat="44.16058" lon="4.59718">
        <ele>120.3</ele>
        <time>2019-07-31T09:37:05Z</time>
      </trkpt>
      <trkpt lat="44.16058" lon="4.59657">
        <ele>118.9</ele>
        <time>2019-07-31T09:37:10Z</time>
      </trkpt>
      <trkpt lat="44.16053" lon="4.59592">
        <ele>118.4</ele>
        <time>2019-07-31T09:37:15Z</time>
      </trkpt>
      <trkpt lat="44.16047" lon="4.59522">
        <ele>115.8</ele>
        <time>2019-07-31T09:37:20Z</time>
      </trkpt>
      <trkpt lat="44.16052" lon="4.59445">
        <ele>111.2</ele>
        <time>2019-07-31T09:37:25Z</time>
      </trkpt>
      <trkpt lat="44.16075" lon="4.59385">
        <ele>110.6</ele>
        <time>2019-07-31T09:37:30Z</time>
      </trkpt>
      <trkpt lat="44.1609" lon="4.59343">
        <ele>114.9</ele>
        <time>2019-07-31T09:37:35Z</time>
      </trkpt>
      <trkpt lat="44.16098" lon="4.59307">
        <ele>117.2</ele>
        <time>2019-07-31T09:37:40Z</time>
      </trkpt>
      <trkpt lat="44.16103" lon="4.59268">
        <ele>118.2</ele>
        <time>2019-07-31T09:37:45Z</time>
      </trkpt>
      <trkpt lat="44.16112" lon="4.59228">
        <ele>117.1</ele>
        <time>2019-07-31T09:37:50Z</time>
      </trkpt>
      <trkpt lat="44.16118" lon="4.59185">
        <ele>118</ele>
        <time>2019-07-31T09:37:55Z</time>
      </trkpt>
      <trkpt lat="44.1612" lon="4.5914">
        <ele>116.3</ele>
        <time>2019-07-31T09:38:00Z</time>
      </trkpt>
      <trkpt lat="44.16115" lon="4.59088">
        <ele>115.3</ele>
        <time>2019-07-31T09:38:05Z</time>
      </trkpt>
      <trkpt lat="44.1611" lon="4.59035">
        <ele>114.2</ele>
        <time>2019-07-31T09:38:10Z</time>
      </trkpt>
      <trkpt lat="44.16105" lon="4.58983">
        <ele>114.5</ele>
        <time>2019-07-31T09:38:15Z</time>
      </trkpt>
      <trkpt lat="44.16098" lon="4.58942">
        <ele>116.5</ele>
        <time>2019-07-31T09:38:20Z</time>
      </trkpt>
      <trkpt lat="44.16093" lon="4.5891">
        <ele>117.8</ele>
        <time>2019-07-31T09:38:25Z</time>
      </trkpt>
      <trkpt lat="44.1609" lon="4.58878">
        <ele>119.2</ele>
        <time>2019-07-31T09:38:30Z</time>
      </trkpt>
      <trkpt lat="44.16087" lon="4.58852">
        <ele>119.9</ele>
        <time>2019-07-31T09:38:35Z</time>
      </trkpt>
      <trkpt lat="44.16082" lon="4.58823">
        <ele>121.1</ele>
        <time>2019-07-31T09:38:40Z</time>
      </trkpt>
      <trkpt lat="44.16075" lon="4.58797">
        <ele>122.6</ele>
        <time>2019-07-31T09:38:45Z</time>
      </trkpt>
      <trkpt lat="44.16068" lon="4.58768">
        <ele>123</ele>
        <time>2019-07-31T09:38:50Z</time>
      </trkpt>
      <trkpt lat="44.16063" lon="4.58738">
        <ele>123.6</ele>
        <time>2019-07-31T09:38:55Z</time>
      </trkpt>
      <trkpt lat="44.16057" lon="4.5871">
        <ele>124.6</ele>
        <time>2019-07-31T09:39:00Z</time>
      </trkpt>
      <trkpt lat="44.16048" lon="4.58678">
        <ele>124.3</ele>
        <time>2019-07-31T09:39:05Z</time>
      </trkpt>
      <trkpt lat="44.16033" lon="4.58645">
        <ele>125.2</ele>
        <time>2019-07-31T09:39:10Z</time>
      </trkpt>
      <trkpt lat="44.16017" lon="4.58617">
        <ele>124.4</ele>
        <time>2019-07-31T09:39:15Z</time>
      </trkpt>
      <trkpt lat="44.15998" lon="4.58588">
        <ele>124.3</ele>
        <time>2019-07-31T09:39:20Z</time>
      </trkpt>
      <trkpt lat="44.15982" lon="4.5856">
        <ele>124.6</ele>
        <time>2019-07-31T09:39:25Z</time>
      </trkpt>
      <trkpt lat="44.15997" lon="4.58542">
        <ele>124.2</ele>
        <time>2019-07-31T09:39:30Z</time>
      </trkpt>
      <trkpt lat="44.1603" lon="4.58545">
        <ele>122.2</ele>
        <time>2019-07-31T09:39:35Z</time>
      </trkpt>
      <trkpt lat="44.16065" lon="4.58545">
        <ele>121</ele>
        <time>2019-07-31T09:39:40Z</time>
      </trkpt>
      <trkpt lat="44.16098" lon="4.58548">
        <ele>120.5</ele>
        <time>2019-07-31T09:39:45Z</time>
      </trkpt>
      <trkpt lat="44.16132" lon="4.5855">
        <ele>119</ele>
        <time>2019-07-31T09:39:50Z</time>
      </trkpt>
      <trkpt lat="44.16165" lon="4.58555">
        <ele>119.4</ele>
        <time>2019-07-31T09:39:55Z</time>
      </trkpt>
      <trkpt lat="44.16197" lon="4.58558">
        <ele>120.3</ele>
        <time>2019-07-31T09:40:00Z</time>
      </trkpt>
      <trkpt lat="44.16223" lon="4.58562">
        <ele>117.2</ele>
        <time>2019-07-31T09:40:05Z</time>
      </trkpt>
      <trkpt lat="44.1625" lon="4.58567">
        <ele>118</ele>
        <time>2019-07-31T09:40:10Z</time>
      </trkpt>
      <trkpt lat="44.16263" lon="4.58547">
        <ele>115.6</ele>
        <time>2019-07-31T09:40:15Z</time>
      </trkpt>
      <trkpt lat="44.16262" lon="4.58503">
        <ele>115.7</ele>
        <time>2019-07-31T09:40:20Z</time>
      </trkpt>
      <trkpt lat="44.1626" lon="4.5846">
        <ele>115.7</ele>
        <time>2019-07-31T09:40:25Z</time>
      </trkpt>
      <trkpt lat="44.16248" lon="4.58423">
        <ele>114.8</ele>
        <time>2019-07-31T09:40:30Z</time>
      </trkpt>
      <trkpt lat="44.16228" lon="4.58393">
        <ele>114.6</ele>
        <time>2019-07-31T09:40:35Z</time>
      </trkpt>
      <trkpt lat="44.16223" lon="4.5835">
        <ele>113.8</ele>
        <time>2019-07-31T09:40:40Z</time>
      </trkpt>
      <trkpt lat="44.16228" lon="4.58305">
        <ele>113</ele>
        <time>2019-07-31T09:40:45Z</time>
      </trkpt>
      <trkpt lat="44.16233" lon="4.58262">
        <ele>112.1</ele>
        <time>2019-07-31T09:40:50Z</time>
      </trkpt>
      <trkpt lat="44.1623" lon="4.58223">
        <ele>110.6</ele>
        <time>2019-07-31T09:40:55Z</time>
      </trkpt>
      <trkpt lat="44.16252" lon="4.58202">
        <ele>109.8</ele>
        <time>2019-07-31T09:41:00Z</time>
      </trkpt>
      <trkpt lat="44.16283" lon="4.58187">
        <ele>109.2</ele>
        <time>2019-07-31T09:41:05Z</time>
      </trkpt>
      <trkpt lat="44.16322" lon="4.58187">
        <ele>108.5</ele>
        <time>2019-07-31T09:41:10Z</time>
      </trkpt>
      <trkpt lat="44.16355" lon="4.58195">
        <ele>107.4</ele>
        <time>2019-07-31T09:41:15Z</time>
      </trkpt>
      <trkpt lat="44.1639" lon="4.582">
        <ele>107.8</ele>
        <time>2019-07-31T09:41:20Z</time>
      </trkpt>
      <trkpt lat="44.16423" lon="4.58205">
        <ele>107.6</ele>
        <time>2019-07-31T09:41:25Z</time>
      </trkpt>
      <trkpt lat="44.16455" lon="4.5821">
        <ele>106.3</ele>
        <time>2019-07-31T09:41:30Z</time>
      </trkpt>
      <trkpt lat="44.16485" lon="4.58218">
        <ele>105.6</ele>
        <time>2019-07-31T09:41:35Z</time>
      </trkpt>
      <trkpt lat="44.16517" lon="4.58228">
        <ele>105.3</ele>
        <time>2019-07-31T09:41:40Z</time>
      </trkpt>
      <trkpt lat="44.16547" lon="4.58238">
        <ele>105.2</ele>
        <time>2019-07-31T09:41:45Z</time>
      </trkpt>
      <trkpt lat="44.16578" lon="4.5825">
        <ele>104.9</ele>
        <time>2019-07-31T09:41:50Z</time>
      </trkpt>
      <trkpt lat="44.1661" lon="4.5826">
        <ele>103.4</ele>
        <time>2019-07-31T09:41:55Z</time>
      </trkpt>
      <trkpt lat="44.16637" lon="4.5827">
        <ele>104.5</ele>
        <time>2019-07-31T09:42:00Z</time>
      </trkpt>
      <trkpt lat="44.16663" lon="4.5828">
        <ele>103.9</ele>
        <time>2019-07-31T09:42:05Z</time>
      </trkpt>
      <trkpt lat="44.16687" lon="4.58288">
        <ele>103.4</ele>
        <time>2019-07-31T09:42:10Z</time>
      </trkpt>
      <trkpt lat="44.16705" lon="4.58297">
        <ele>102.8</ele>
        <time>2019-07-31T09:42:15Z</time>
      </trkpt>
      <trkpt lat="44.16708" lon="4.58298">
        <ele>102.2</ele>
        <time>2019-07-31T09:42:20Z</time>
      </trkpt>
      <trkpt lat="44.16708" lon="4.58298">
        <ele>102</ele>
        <time>2019-07-31T09:42:45Z</time>
      </trkpt>
      <trkpt lat="44.16713" lon="4.58293">
        <ele>101.8</ele>
        <time>2019-07-31T09:42:50Z</time>
      </trkpt>
      <trkpt lat="44.16717" lon="4.5827">
        <ele>101.8</ele>
        <time>2019-07-31T09:42:55Z</time>
      </trkpt>
      <trkpt lat="44.16712" lon="4.58237">
        <ele>100.4</ele>
        <time>2019-07-31T09:43:00Z</time>
      </trkpt>
      <trkpt lat="44.16703" lon="4.58197">
        <ele>99.2</ele>
        <time>2019-07-31T09:43:05Z</time>
      </trkpt>
      <trkpt lat="44.16698" lon="4.58153">
        <ele>98.6</ele>
        <time>2019-07-31T09:43:10Z</time>
      </trkpt>
      <trkpt lat="44.1669" lon="4.5811">
        <ele>98</ele>
        <time>2019-07-31T09:43:15Z</time>
      </trkpt>
      <trkpt lat="44.1668" lon="4.5807">
        <ele>98.3</ele>
        <time>2019-07-31T09:43:20Z</time>
      </trkpt>
      <trkpt lat="44.1667" lon="4.58025">
        <ele>99.4</ele>
        <time>2019-07-31T09:43:25Z</time>
      </trkpt>
      <trkpt lat="44.16663" lon="4.57982">
        <ele>98.3</ele>
        <time>2019-07-31T09:43:30Z</time>
      </trkpt>
      <trkpt lat="44.16665" lon="4.57937">
        <ele>98.6</ele>
        <time>2019-07-31T09:43:35Z</time>
      </trkpt>
      <trkpt lat="44.1667" lon="4.57893">
        <ele>99.6</ele>
        <time>2019-07-31T09:43:40Z</time>
      </trkpt>
      <trkpt lat="44.16673" lon="4.57855">
        <ele>100.9</ele>
        <time>2019-07-31T09:43:45Z</time>
      </trkpt>
      <trkpt lat="44.16677" lon="4.57817">
        <ele>101.2</ele>
        <time>2019-07-31T09:43:50Z</time>
      </trkpt>
      <trkpt lat="44.1668" lon="4.57783">
        <ele>101.7</ele>
        <time>2019-07-31T09:43:55Z</time>
      </trkpt>
      <trkpt lat="44.16685" lon="4.57752">
        <ele>103.7</ele>
        <time>2019-07-31T09:44:00Z</time>
      </trkpt>
      <trkpt lat="44.16688" lon="4.57718">
        <ele>104.9</ele>
        <time>2019-07-31T09:44:05Z</time>
      </trkpt>
      <trkpt lat="44.16692" lon="4.57688">
        <ele>104.9</ele>
        <time>2019-07-31T09:44:10Z</time>
      </trkpt>
      <trkpt lat="44.16693" lon="4.57658">
        <ele>107</ele>
        <time>2019-07-31T09:44:15Z</time>
      </trkpt>
      <trkpt lat="44.1669" lon="4.57633">
        <ele>107.4</ele>
        <time>2019-07-31T09:44:20Z</time>
      </trkpt>
      <trkpt lat="44.1668" lon="4.57607">
        <ele>108.4</ele>
        <time>2019-07-31T09:44:25Z</time>
      </trkpt>
      <trkpt lat="44.16672" lon="4.5758">
        <ele>109.7</ele>
        <time>2019-07-31T09:44:30Z</time>
      </trkpt>
      <trkpt lat="44.1666" lon="4.57552">
        <ele>109.7</ele>
        <time>2019-07-31T09:44:35Z</time>
      </trkpt>
      <trkpt lat="44.1665" lon="4.57522">
        <ele>109</ele>
        <time>2019-07-31T09:44:40Z</time>
      </trkpt>
      <trkpt lat="44.1664" lon="4.57493">
        <ele>108.3</ele>
        <time>2019-07-31T09:44:45Z</time>
      </trkpt>
      <trkpt lat="44.16628" lon="4.5746">
        <ele>109</ele>
        <time>2019-07-31T09:44:50Z</time>
      </trkpt>
      <trkpt lat="44.1662" lon="4.57425">
        <ele>107.9</ele>
        <time>2019-07-31T09:44:55Z</time>
      </trkpt>
      <trkpt lat="44.16617" lon="4.57385">
        <ele>108.4</ele>
        <time>2019-07-31T09:45:00Z</time>
      </trkpt>
      <trkpt lat="44.1662" lon="4.57348">
        <ele>107.5</ele>
        <time>2019-07-31T09:45:05Z</time>
      </trkpt>
      <trkpt lat="44.16627" lon="4.57315">
        <ele>108.9</ele>
        <time>2019-07-31T09:45:10Z</time>
      </trkpt>
      <trkpt lat="44.16628" lon="4.57278">
        <ele>108.6</ele>
        <time>2019-07-31T09:45:15Z</time>
      </trkpt>
      <trkpt lat="44.16627" lon="4.57242">
        <ele>107.6</ele>
        <time>2019-07-31T09:45:20Z</time>
      </trkpt>
      <trkpt lat="44.16623" lon="4.57207">
        <ele>106.9</ele>
        <time>2019-07-31T09:45:25Z</time>
      </trkpt>
      <trkpt lat="44.16602" lon="4.57198">
        <ele>108</ele>
        <time>2019-07-31T09:45:30Z</time>
      </trkpt>
      <trkpt lat="44.16585" lon="4.57197">
        <ele>109.9</ele>
        <time>2019-07-31T09:45:35Z</time>
      </trkpt>
      <trkpt lat="44.1657" lon="4.57195">
        <ele>110.7</ele>
        <time>2019-07-31T09:45:40Z</time>
      </trkpt>
      <trkpt lat="44.16555" lon="4.57195">
        <ele>113.8</ele>
        <time>2019-07-31T09:45:45Z</time>
      </trkpt>
      <trkpt lat="44.16542" lon="4.57192">
        <ele>115.3</ele>
        <time>2019-07-31T09:45:50Z</time>
      </trkpt>
      <trkpt lat="44.16528" lon="4.57187">
        <ele>115.5</ele>
        <time>2019-07-31T09:45:55Z</time>
      </trkpt>
      <trkpt lat="44.16517" lon="4.57178">
        <ele>116.3</ele>
        <time>2019-07-31T09:46:00Z</time>
      </trkpt>
      <trkpt lat="44.16507" lon="4.57168">
        <ele>117.7</ele>
        <time>2019-07-31T09:46:05Z</time>
      </trkpt>
      <trkpt lat="44.16497" lon="4.57158">
        <ele>118.8</ele>
        <time>2019-07-31T09:46:10Z</time>
      </trkpt>
      <trkpt lat="44.16485" lon="4.57148">
        <ele>120.6</ele>
        <time>2019-07-31T09:46:15Z</time>
      </trkpt>
      <trkpt lat="44.16472" lon="4.57142">
        <ele>121.3</ele>
        <time>2019-07-31T09:46:20Z</time>
      </trkpt>
      <trkpt lat="44.1646" lon="4.57133">
        <ele>122.4</ele>
        <time>2019-07-31T09:46:25Z</time>
      </trkpt>
      <trkpt lat="44.16448" lon="4.57127">
        <ele>123.7</ele>
        <time>2019-07-31T09:46:30Z</time>
      </trkpt>
      <trkpt lat="44.16437" lon="4.5712">
        <ele>123.3</ele>
        <time>2019-07-31T09:46:35Z</time>
      </trkpt>
      <trkpt lat="44.16425" lon="4.57112">
        <ele>123.9</ele>
        <time>2019-07-31T09:46:40Z</time>
      </trkpt>
      <trkpt lat="44.16412" lon="4.57107">
        <ele>126.4</ele>
        <time>2019-07-31T09:46:45Z</time>
      </trkpt>
      <trkpt lat="44.16398" lon="4.571">
        <ele>127.4</ele>
        <time>2019-07-31T09:46:50Z</time>
      </trkpt>
      <trkpt lat="44.1638" lon="4.57092">
        <ele>128.3</ele>
        <time>2019-07-31T09:46:55Z</time>
      </trkpt>
      <trkpt lat="44.16363" lon="4.57085">
        <ele>129.1</ele>
        <time>2019-07-31T09:47:00Z</time>
      </trkpt>
      <trkpt lat="44.16345" lon="4.5708">
        <ele>129.4</ele>
        <time>2019-07-31T09:47:05Z</time>
      </trkpt>
      <trkpt lat="44.16327" lon="4.57077">
        <ele>129.9</ele>
        <time>2019-07-31T09:47:10Z</time>
      </trkpt>
      <trkpt lat="44.16307" lon="4.5707">
        <ele>131</ele>
        <time>2019-07-31T09:47:15Z</time>
      </trkpt>
      <trkpt lat="44.1629" lon="4.57065">
        <ele>132.2</ele>
        <time>2019-07-31T09:47:20Z</time>
      </trkpt>
      <trkpt lat="44.16273" lon="4.57058">
        <ele>132.4</ele>
        <time>2019-07-31T09:47:25Z</time>
      </trkpt>
      <trkpt lat="44.16258" lon="4.57053">
        <ele>133.6</ele>
        <time>2019-07-31T09:47:30Z</time>
      </trkpt>
      <trkpt lat="44.16243" lon="4.57048">
        <ele>134.4</ele>
        <time>2019-07-31T09:47:35Z</time>
      </trkpt>
      <trkpt lat="44.1623" lon="4.57043">
        <ele>135.6</ele>
        <time>2019-07-31T09:47:40Z</time>
      </trkpt>
      <trkpt lat="44.16215" lon="4.57033">
        <ele>135.5</ele>
        <time>2019-07-31T09:47:45Z</time>
      </trkpt>
      <trkpt lat="44.162" lon="4.5702">
        <ele>134.8</ele>
        <time>2019-07-31T09:47:50Z</time>
      </trkpt>
      <trkpt lat="44.16175" lon="4.57005">
        <ele>133.5</ele>
        <time>2019-07-31T09:47:55Z</time>
      </trkpt>
      <trkpt lat="44.16152" lon="4.56995">
        <ele>135.1</ele>
        <time>2019-07-31T09:48:00Z</time>
      </trkpt>
      <trkpt lat="44.16138" lon="4.56992">
        <ele>136.4</ele>
        <time>2019-07-31T09:48:05Z</time>
      </trkpt>
      <trkpt lat="44.16125" lon="4.56987">
        <ele>138.2</ele>
        <time>2019-07-31T09:48:10Z</time>
      </trkpt>
      <trkpt lat="44.16113" lon="4.56987">
        <ele>139.8</ele>
        <time>2019-07-31T09:48:15Z</time>
      </trkpt>
      <trkpt lat="44.16098" lon="4.56987">
        <ele>140.2</ele>
        <time>2019-07-31T09:48:20Z</time>
      </trkpt>
      <trkpt lat="44.16085" lon="4.56983">
        <ele>141.1</ele>
        <time>2019-07-31T09:48:25Z</time>
      </trkpt>
      <trkpt lat="44.16068" lon="4.56977">
        <ele>141.4</ele>
        <time>2019-07-31T09:48:30Z</time>
      </trkpt>
      <trkpt lat="44.16052" lon="4.56968">
        <ele>141.2</ele>
        <time>2019-07-31T09:48:35Z</time>
      </trkpt>
      <trkpt lat="44.1604" lon="4.56963">
        <ele>140.8</ele>
        <time>2019-07-31T09:48:40Z</time>
      </trkpt>
      <trkpt lat="44.1604" lon="4.56965">
        <ele>142.9</ele>
        <time>2019-07-31T09:48:45Z</time>
      </trkpt>
      <trkpt lat="44.16048" lon="4.56965">
        <ele>142.3</ele>
        <time>2019-07-31T09:48:50Z</time>
      </trkpt>
      <trkpt lat="44.16063" lon="4.56972">
        <ele>142.3</ele>
        <time>2019-07-31T09:48:55Z</time>
      </trkpt>
      <trkpt lat="44.16073" lon="4.56977">
        <ele>140.2</ele>
        <time>2019-07-31T09:49:00Z</time>
      </trkpt>
      <trkpt lat="44.16075" lon="4.56972">
        <ele>141.2</ele>
        <time>2019-07-31T09:49:05Z</time>
      </trkpt>
      <trkpt lat="44.16083" lon="4.56955">
        <ele>140.1</ele>
        <time>2019-07-31T09:49:10Z</time>
      </trkpt>
      <trkpt lat="44.16082" lon="4.56942">
        <ele>137.1</ele>
        <time>2019-07-31T09:49:15Z</time>
      </trkpt>
      <trkpt lat="44.16077" lon="4.56927">
        <ele>138.8</ele>
        <time>2019-07-31T09:49:20Z</time>
      </trkpt>
      <trkpt lat="44.16067" lon="4.5691">
        <ele>134.1</ele>
        <time>2019-07-31T09:49:25Z</time>
      </trkpt>
      <trkpt lat="44.16063" lon="4.56887">
        <ele>134.1</ele>
        <time>2019-07-31T09:49:30Z</time>
      </trkpt>
      <trkpt lat="44.16068" lon="4.56863">
        <ele>131.2</ele>
        <time>2019-07-31T09:49:35Z</time>
      </trkpt>
      <trkpt lat="44.16073" lon="4.56833">
        <ele>129.2</ele>
        <time>2019-07-31T09:49:40Z</time>
      </trkpt>
      <trkpt lat="44.16072" lon="4.5682">
        <ele>130</ele>
        <time>2019-07-31T09:49:45Z</time>
      </trkpt>
      <trkpt lat="44.16062" lon="4.56822">
        <ele>130.8</ele>
        <time>2019-07-31T09:49:50Z</time>
      </trkpt>
      <trkpt lat="44.16048" lon="4.56823">
        <ele>131.7</ele>
        <time>2019-07-31T09:49:55Z</time>
      </trkpt>
      <trkpt lat="44.16037" lon="4.56817">
        <ele>132</ele>
        <time>2019-07-31T09:50:00Z</time>
      </trkpt>
      <trkpt lat="44.16035" lon="4.56797">
        <ele>134.7</ele>
        <time>2019-07-31T09:50:05Z</time>
      </trkpt>
      <trkpt lat="44.16032" lon="4.5677">
        <ele>133.4</ele>
        <time>2019-07-31T09:50:10Z</time>
      </trkpt>
      <trkpt lat="44.16028" lon="4.56738">
        <ele>132.6</ele>
        <time>2019-07-31T09:50:15Z</time>
      </trkpt>
      <trkpt lat="44.16025" lon="4.56708">
        <ele>133.5</ele>
        <time>2019-07-31T09:50:20Z</time>
      </trkpt>
      <trkpt lat="44.16022" lon="4.56677">
        <ele>131.4</ele>
        <time>2019-07-31T09:50:25Z</time>
      </trkpt>
      <trkpt lat="44.16017" lon="4.56648">
        <ele>133</ele>
        <time>2019-07-31T09:50:30Z</time>
      </trkpt>
      <trkpt lat="44.16013" lon="4.5662">
        <ele>134.7</ele>
        <time>2019-07-31T09:50:35Z</time>
      </trkpt>
      <trkpt lat="44.16008" lon="4.5659">
        <ele>135.5</ele>
        <time>2019-07-31T09:50:40Z</time>
      </trkpt>
      <trkpt lat="44.16002" lon="4.56557">
        <ele>133.8</ele>
        <time>2019-07-31T09:50:45Z</time>
      </trkpt>
      <trkpt lat="44.15997" lon="4.56523">
        <ele>134.3</ele>
        <time>2019-07-31T09:50:50Z</time>
      </trkpt>
      <trkpt lat="44.15992" lon="4.56495">
        <ele>136.5</ele>
        <time>2019-07-31T09:50:55Z</time>
      </trkpt>
      <trkpt lat="44.15998" lon="4.56465">
        <ele>137.3</ele>
        <time>2019-07-31T09:51:00Z</time>
      </trkpt>
      <trkpt lat="44.16007" lon="4.56442">
        <ele>136.1</ele>
        <time>2019-07-31T09:51:05Z</time>
      </trkpt>
      <trkpt lat="44.16015" lon="4.5642">
        <ele>135.9</ele>
        <time>2019-07-31T09:51:10Z</time>
      </trkpt>
      <trkpt lat="44.16025" lon="4.56402">
        <ele>137.7</ele>
        <time>2019-07-31T09:51:15Z</time>
      </trkpt>
      <trkpt lat="44.16037" lon="4.56385">
        <ele>138.7</ele>
        <time>2019-07-31T09:51:20Z</time>
      </trkpt>
      <trkpt lat="44.16045" lon="4.56367">
        <ele>138.5</ele>
        <time>2019-07-31T09:51:25Z</time>
      </trkpt>
      <trkpt lat="44.16048" lon="4.56352">
        <ele>139.3</ele>
        <time>2019-07-31T09:51:30Z</time>
      </trkpt>
      <trkpt lat="44.1604" lon="4.5635">
        <ele>141.6</ele>
        <time>2019-07-31T09:51:35Z</time>
      </trkpt>
      <trkpt lat="44.16028" lon="4.56357">
        <ele>142.1</ele>
        <time>2019-07-31T09:51:40Z</time>
      </trkpt>
      <trkpt lat="44.16015" lon="4.56365">
        <ele>142.1</ele>
        <time>2019-07-31T09:51:45Z</time>
      </trkpt>
      <trkpt lat="44.16003" lon="4.56375">
        <ele>141.7</ele>
        <time>2019-07-31T09:51:50Z</time>
      </trkpt>
      <trkpt lat="44.15992" lon="4.56387">
        <ele>144.8</ele>
        <time>2019-07-31T09:51:55Z</time>
      </trkpt>
      <trkpt lat="44.15978" lon="4.56393">
        <ele>143.9</ele>
        <time>2019-07-31T09:52:00Z</time>
      </trkpt>
      <trkpt lat="44.15967" lon="4.56398">
        <ele>144.1</ele>
        <time>2019-07-31T09:52:05Z</time>
      </trkpt>
      <trkpt lat="44.15953" lon="4.56402">
        <ele>146.2</ele>
        <time>2019-07-31T09:52:10Z</time>
      </trkpt>
      <trkpt lat="44.15943" lon="4.56405">
        <ele>148.2</ele>
        <time>2019-07-31T09:52:15Z</time>
      </trkpt>
      <trkpt lat="44.15933" lon="4.5641">
        <ele>147.6</ele>
        <time>2019-07-31T09:52:20Z</time>
      </trkpt>
      <trkpt lat="44.15922" lon="4.56408">
        <ele>148.8</ele>
        <time>2019-07-31T09:52:25Z</time>
      </trkpt>
      <trkpt lat="44.15913" lon="4.56407">
        <ele>148.2</ele>
        <time>2019-07-31T09:52:30Z</time>
      </trkpt>
      <trkpt lat="44.15905" lon="4.56402">
        <ele>149</ele>
        <time>2019-07-31T09:52:35Z</time>
      </trkpt>
      <trkpt lat="44.15898" lon="4.564">
        <ele>151</ele>
        <time>2019-07-31T09:52:40Z</time>
      </trkpt>
      <trkpt lat="44.15888" lon="4.56395">
        <ele>153</ele>
        <time>2019-07-31T09:52:45Z</time>
      </trkpt>
      <trkpt lat="44.15882" lon="4.56388">
        <ele>152.9</ele>
        <time>2019-07-31T09:52:50Z</time>
      </trkpt>
      <trkpt lat="44.15873" lon="4.56383">
        <ele>154.3</ele>
        <time>2019-07-31T09:52:55Z</time>
      </trkpt>
      <trkpt lat="44.15867" lon="4.56378">
        <ele>155</ele>
        <time>2019-07-31T09:53:00Z</time>
      </trkpt>
      <trkpt lat="44.15858" lon="4.56373">
        <ele>156</ele>
        <time>2019-07-31T09:53:05Z</time>
      </trkpt>
      <trkpt lat="44.1585" lon="4.56365">
        <ele>156.6</ele>
        <time>2019-07-31T09:53:10Z</time>
      </trkpt>
      <trkpt lat="44.15845" lon="4.56352">
        <ele>157.2</ele>
        <time>2019-07-31T09:53:15Z</time>
      </trkpt>
      <trkpt lat="44.15842" lon="4.56337">
        <ele>156.6</ele>
        <time>2019-07-31T09:53:20Z</time>
      </trkpt>
      <trkpt lat="44.1584" lon="4.56318">
        <ele>159.6</ele>
        <time>2019-07-31T09:53:25Z</time>
      </trkpt>
      <trkpt lat="44.15837" lon="4.56303">
        <ele>160.9</ele>
        <time>2019-07-31T09:53:30Z</time>
      </trkpt>
      <trkpt lat="44.15835" lon="4.56287">
        <ele>160</ele>
        <time>2019-07-31T09:53:35Z</time>
      </trkpt>
      <trkpt lat="44.15833" lon="4.5627">
        <ele>160</ele>
        <time>2019-07-31T09:53:40Z</time>
      </trkpt>
      <trkpt lat="44.1583" lon="4.56252">
        <ele>159.3</ele>
        <time>2019-07-31T09:53:45Z</time>
      </trkpt>
      <trkpt lat="44.15825" lon="4.56235">
        <ele>161.1</ele>
        <time>2019-07-31T09:53:50Z</time>
      </trkpt>
      <trkpt lat="44.1582" lon="4.56213">
        <ele>163.1</ele>
        <time>2019-07-31T09:53:55Z</time>
      </trkpt>
      <trkpt lat="44.15815" lon="4.56182">
        <ele>157.8</ele>
        <time>2019-07-31T09:54:00Z</time>
      </trkpt>
      <trkpt lat="44.1581" lon="4.56152">
        <ele>157.8</ele>
        <time>2019-07-31T09:54:05Z</time>
      </trkpt>
      <trkpt lat="44.15805" lon="4.56127">
        <ele>158.6</ele>
        <time>2019-07-31T09:54:10Z</time>
      </trkpt>
      <trkpt lat="44.15797" lon="4.5611">
        <ele>157.6</ele>
        <time>2019-07-31T09:54:15Z</time>
      </trkpt>
      <trkpt lat="44.1579" lon="4.56088">
        <ele>157.5</ele>
        <time>2019-07-31T09:54:20Z</time>
      </trkpt>
      <trkpt lat="44.158" lon="4.5606">
        <ele>157.6</ele>
        <time>2019-07-31T09:54:25Z</time>
      </trkpt>
      <trkpt lat="44.15807" lon="4.56028">
        <ele>154.3</ele>
        <time>2019-07-31T09:54:30Z</time>
      </trkpt>
      <trkpt lat="44.15817" lon="4.56">
        <ele>153.3</ele>
        <time>2019-07-31T09:54:35Z</time>
      </trkpt>
      <trkpt lat="44.1583" lon="4.55968">
        <ele>152.3</ele>
        <time>2019-07-31T09:54:40Z</time>
      </trkpt>
      <trkpt lat="44.15845" lon="4.55932">
        <ele>150.3</ele>
        <time>2019-07-31T09:54:45Z</time>
      </trkpt>
      <trkpt lat="44.15855" lon="4.55903">
        <ele>147.3</ele>
        <time>2019-07-31T09:54:50Z</time>
      </trkpt>
      <trkpt lat="44.15857" lon="4.55877">
        <ele>148.3</ele>
        <time>2019-07-31T09:54:55Z</time>
      </trkpt>
      <trkpt lat="44.15865" lon="4.55847">
        <ele>144.9</ele>
        <time>2019-07-31T09:55:00Z</time>
      </trkpt>
      <trkpt lat="44.15875" lon="4.5582">
        <ele>148.4</ele>
        <time>2019-07-31T09:55:05Z</time>
      </trkpt>
      <trkpt lat="44.15895" lon="4.55802">
        <ele>143.8</ele>
        <time>2019-07-31T09:55:10Z</time>
      </trkpt>
      <trkpt lat="44.15915" lon="4.55785">
        <ele>143</ele>
        <time>2019-07-31T09:55:15Z</time>
      </trkpt>
      <trkpt lat="44.15933" lon="4.5576">
        <ele>145</ele>
        <time>2019-07-31T09:55:20Z</time>
      </trkpt>
      <trkpt lat="44.15947" lon="4.55735">
        <ele>141.1</ele>
        <time>2019-07-31T09:55:25Z</time>
      </trkpt>
      <trkpt lat="44.15948" lon="4.55725">
        <ele>141.4</ele>
        <time>2019-07-31T09:55:30Z</time>
      </trkpt>
      <trkpt lat="44.15937" lon="4.55715">
        <ele>142.5</ele>
        <time>2019-07-31T09:55:35Z</time>
      </trkpt>
      <trkpt lat="44.15922" lon="4.557">
        <ele>142.9</ele>
        <time>2019-07-31T09:55:40Z</time>
      </trkpt>
      <trkpt lat="44.15907" lon="4.55685">
        <ele>144</ele>
        <time>2019-07-31T09:55:45Z</time>
      </trkpt>
      <trkpt lat="44.15892" lon="4.55675">
        <ele>145.9</ele>
        <time>2019-07-31T09:55:50Z</time>
      </trkpt>
      <trkpt lat="44.15875" lon="4.55663">
        <ele>146.1</ele>
        <time>2019-07-31T09:55:55Z</time>
      </trkpt>
      <trkpt lat="44.15858" lon="4.55653">
        <ele>147.1</ele>
        <time>2019-07-31T09:56:00Z</time>
      </trkpt>
      <trkpt lat="44.15845" lon="4.55643">
        <ele>147.6</ele>
        <time>2019-07-31T09:56:05Z</time>
      </trkpt>
      <trkpt lat="44.15832" lon="4.55633">
        <ele>148.9</ele>
        <time>2019-07-31T09:56:10Z</time>
      </trkpt>
      <trkpt lat="44.15815" lon="4.55623">
        <ele>150.7</ele>
        <time>2019-07-31T09:56:15Z</time>
      </trkpt>
      <trkpt lat="44.158" lon="4.5562">
        <ele>151.4</ele>
        <time>2019-07-31T09:56:20Z</time>
      </trkpt>
      <trkpt lat="44.15785" lon="4.55615">
        <ele>152.9</ele>
        <time>2019-07-31T09:56:25Z</time>
      </trkpt>
      <trkpt lat="44.1577" lon="4.55607">
        <ele>154.5</ele>
        <time>2019-07-31T09:56:30Z</time>
      </trkpt>
      <trkpt lat="44.15762" lon="4.55593">
        <ele>155.1</ele>
        <time>2019-07-31T09:56:35Z</time>
      </trkpt>
      <trkpt lat="44.15765" lon="4.5557">
        <ele>154.7</ele>
        <time>2019-07-31T09:56:40Z</time>
      </trkpt>
      <trkpt lat="44.15763" lon="4.55542">
        <ele>154.9</ele>
        <time>2019-07-31T09:56:45Z</time>
      </trkpt>
      <trkpt lat="44.15762" lon="4.55523">
        <ele>155.7</ele>
        <time>2019-07-31T09:56:50Z</time>
      </trkpt>
      <trkpt lat="44.15767" lon="4.55507">
        <ele>157.1</ele>
        <time>2019-07-31T09:56:55Z</time>
      </trkpt>
      <trkpt lat="44.1577" lon="4.55492">
        <ele>158.6</ele>
        <time>2019-07-31T09:57:00Z</time>
      </trkpt>
      <trkpt lat="44.15772" lon="4.55478">
        <ele>160.1</ele>
        <time>2019-07-31T09:57:05Z</time>
      </trkpt>
      <trkpt lat="44.15765" lon="4.55468">
        <ele>160.3</ele>
        <time>2019-07-31T09:57:10Z</time>
      </trkpt>
      <trkpt lat="44.15753" lon="4.55462">
        <ele>160</ele>
        <time>2019-07-31T09:57:15Z</time>
      </trkpt>
      <trkpt lat="44.1574" lon="4.55457">
        <ele>160.6</ele>
        <time>2019-07-31T09:57:20Z</time>
      </trkpt>
      <trkpt lat="44.15727" lon="4.55452">
        <ele>161.2</ele>
        <time>2019-07-31T09:57:25Z</time>
      </trkpt>
      <trkpt lat="44.15717" lon="4.5544">
        <ele>161.5</ele>
        <time>2019-07-31T09:57:30Z</time>
      </trkpt>
      <trkpt lat="44.15707" lon="4.55427">
        <ele>162.6</ele>
        <time>2019-07-31T09:57:35Z</time>
      </trkpt>
      <trkpt lat="44.15698" lon="4.55413">
        <ele>164.7</ele>
        <time>2019-07-31T09:57:40Z</time>
      </trkpt>
      <trkpt lat="44.15692" lon="4.55398">
        <ele>165.8</ele>
        <time>2019-07-31T09:57:45Z</time>
      </trkpt>
      <trkpt lat="44.15685" lon="4.55387">
        <ele>166.7</ele>
        <time>2019-07-31T09:57:50Z</time>
      </trkpt>
      <trkpt lat="44.15675" lon="4.55377">
        <ele>167.7</ele>
        <time>2019-07-31T09:57:55Z</time>
      </trkpt>
      <trkpt lat="44.15667" lon="4.55367">
        <ele>169.1</ele>
        <time>2019-07-31T09:58:00Z</time>
      </trkpt>
      <trkpt lat="44.15658" lon="4.5536">
        <ele>169.1</ele>
        <time>2019-07-31T09:58:05Z</time>
      </trkpt>
      <trkpt lat="44.1565" lon="4.55353">
        <ele>168.9</ele>
        <time>2019-07-31T09:58:10Z</time>
      </trkpt>
      <trkpt lat="44.1564" lon="4.55345">
        <ele>170.1</ele>
        <time>2019-07-31T09:58:15Z</time>
      </trkpt>
      <trkpt lat="44.1563" lon="4.55335">
        <ele>172.2</ele>
        <time>2019-07-31T09:58:20Z</time>
      </trkpt>
      <trkpt lat="44.15622" lon="4.55327">
        <ele>173.5</ele>
        <time>2019-07-31T09:58:25Z</time>
      </trkpt>
      <trkpt lat="44.15612" lon="4.55322">
        <ele>173.5</ele>
        <time>2019-07-31T09:58:30Z</time>
      </trkpt>
      <trkpt lat="44.15603" lon="4.55315">
        <ele>176</ele>
        <time>2019-07-31T09:58:35Z</time>
      </trkpt>
      <trkpt lat="44.15597" lon="4.55312">
        <ele>176.2</ele>
        <time>2019-07-31T09:58:40Z</time>
      </trkpt>
      <trkpt lat="44.1559" lon="4.55307">
        <ele>177</ele>
        <time>2019-07-31T09:58:45Z</time>
      </trkpt>
      <trkpt lat="44.15583" lon="4.55298">
        <ele>178.3</ele>
        <time>2019-07-31T09:58:50Z</time>
      </trkpt>
      <trkpt lat="44.1558" lon="4.5529">
        <ele>178.2</ele>
        <time>2019-07-31T09:58:55Z</time>
      </trkpt>
      <trkpt lat="44.15575" lon="4.5528">
        <ele>180.4</ele>
        <time>2019-07-31T09:59:00Z</time>
      </trkpt>
      <trkpt lat="44.15582" lon="4.55272">
        <ele>181.3</ele>
        <time>2019-07-31T09:59:05Z</time>
      </trkpt>
      <trkpt lat="44.1559" lon="4.55283">
        <ele>181.7</ele>
        <time>2019-07-31T09:59:10Z</time>
      </trkpt>
      <trkpt lat="44.15602" lon="4.55295">
        <ele>181.6</ele>
        <time>2019-07-31T09:59:15Z</time>
      </trkpt>
      <trkpt lat="44.15615" lon="4.553">
        <ele>181.1</ele>
        <time>2019-07-31T09:59:20Z</time>
      </trkpt>
      <trkpt lat="44.1563" lon="4.55305">
        <ele>182.6</ele>
        <time>2019-07-31T09:59:25Z</time>
      </trkpt>
      <trkpt lat="44.15645" lon="4.55312">
        <ele>184</ele>
        <time>2019-07-31T09:59:30Z</time>
      </trkpt>
      <trkpt lat="44.15658" lon="4.55317">
        <ele>183.8</ele>
        <time>2019-07-31T09:59:35Z</time>
      </trkpt>
      <trkpt lat="44.15672" lon="4.5532">
        <ele>183.9</ele>
        <time>2019-07-31T09:59:40Z</time>
      </trkpt>
      <trkpt lat="44.15687" lon="4.55323">
        <ele>186.5</ele>
        <time>2019-07-31T09:59:45Z</time>
      </trkpt>
      <trkpt lat="44.15702" lon="4.55323">
        <ele>186.1</ele>
        <time>2019-07-31T09:59:50Z</time>
      </trkpt>
      <trkpt lat="44.15718" lon="4.55333">
        <ele>186.5</ele>
        <time>2019-07-31T09:59:55Z</time>
      </trkpt>
      <trkpt lat="44.15732" lon="4.55348">
        <ele>187.6</ele>
        <time>2019-07-31T10:00:00Z</time>
      </trkpt>
      <trkpt lat="44.15747" lon="4.55355">
        <ele>188.1</ele>
        <time>2019-07-31T10:00:05Z</time>
      </trkpt>
      <trkpt lat="44.15763" lon="4.5535">
        <ele>187.8</ele>
        <time>2019-07-31T10:00:10Z</time>
      </trkpt>
      <trkpt lat="44.15777" lon="4.5534">
        <ele>191.3</ele>
        <time>2019-07-31T10:00:15Z</time>
      </trkpt>
      <trkpt lat="44.15793" lon="4.55333">
        <ele>189.8</ele>
        <time>2019-07-31T10:00:20Z</time>
      </trkpt>
      <trkpt lat="44.15805" lon="4.55323">
        <ele>193.6</ele>
        <time>2019-07-31T10:00:25Z</time>
      </trkpt>
      <trkpt lat="44.15815" lon="4.55312">
        <ele>194</ele>
        <time>2019-07-31T10:00:30Z</time>
      </trkpt>
      <trkpt lat="44.15818" lon="4.55295">
        <ele>194.3</ele>
        <time>2019-07-31T10:00:35Z</time>
      </trkpt>
      <trkpt lat="44.15813" lon="4.5528">
        <ele>192.7</ele>
        <time>2019-07-31T10:00:40Z</time>
      </trkpt>
      <trkpt lat="44.15807" lon="4.55262">
        <ele>193.2</ele>
        <time>2019-07-31T10:00:45Z</time>
      </trkpt>
      <trkpt lat="44.158" lon="4.55245">
        <ele>193.7</ele>
        <time>2019-07-31T10:00:50Z</time>
      </trkpt>
      <trkpt lat="44.15792" lon="4.55227">
        <ele>195.6</ele>
        <time>2019-07-31T10:00:55Z</time>
      </trkpt>
      <trkpt lat="44.15785" lon="4.55208">
        <ele>194.6</ele>
        <time>2019-07-31T10:01:00Z</time>
      </trkpt>
      <trkpt lat="44.15777" lon="4.5519">
        <ele>194.8</ele>
        <time>2019-07-31T10:01:05Z</time>
      </trkpt>
      <trkpt lat="44.1577" lon="4.55173">
        <ele>196.6</ele>
        <time>2019-07-31T10:01:10Z</time>
      </trkpt>
      <trkpt lat="44.15765" lon="4.55158">
        <ele>197.7</ele>
        <time>2019-07-31T10:01:15Z</time>
      </trkpt>
      <trkpt lat="44.15758" lon="4.55147">
        <ele>197.4</ele>
        <time>2019-07-31T10:01:20Z</time>
      </trkpt>
      <trkpt lat="44.1575" lon="4.5514">
        <ele>201.9</ele>
        <time>2019-07-31T10:01:25Z</time>
      </trkpt>
      <trkpt lat="44.1574" lon="4.55133">
        <ele>200.4</ele>
        <time>2019-07-31T10:01:30Z</time>
      </trkpt>
      <trkpt lat="44.15728" lon="4.55128">
        <ele>201.9</ele>
        <time>2019-07-31T10:01:35Z</time>
      </trkpt>
      <trkpt lat="44.15718" lon="4.55127">
        <ele>203.3</ele>
        <time>2019-07-31T10:01:40Z</time>
      </trkpt>
      <trkpt lat="44.1571" lon="4.55123">
        <ele>204.6</ele>
        <time>2019-07-31T10:01:45Z</time>
      </trkpt>
      <trkpt lat="44.15702" lon="4.55122">
        <ele>206.7</ele>
        <time>2019-07-31T10:01:50Z</time>
      </trkpt>
      <trkpt lat="44.15693" lon="4.55117">
        <ele>206.7</ele>
        <time>2019-07-31T10:01:55Z</time>
      </trkpt>
      <trkpt lat="44.15683" lon="4.55113">
        <ele>207.5</ele>
        <time>2019-07-31T10:02:00Z</time>
      </trkpt>
      <trkpt lat="44.15675" lon="4.55112">
        <ele>210</ele>
        <time>2019-07-31T10:02:05Z</time>
      </trkpt>
      <trkpt lat="44.15667" lon="4.55107">
        <ele>212.5</ele>
        <time>2019-07-31T10:02:10Z</time>
      </trkpt>
      <trkpt lat="44.1566" lon="4.55107">
        <ele>212.4</ele>
        <time>2019-07-31T10:02:15Z</time>
      </trkpt>
      <trkpt lat="44.15652" lon="4.55103">
        <ele>214.6</ele>
        <time>2019-07-31T10:02:20Z</time>
      </trkpt>
      <trkpt lat="44.15643" lon="4.551">
        <ele>216.5</ele>
        <time>2019-07-31T10:02:25Z</time>
      </trkpt>
      <trkpt lat="44.15635" lon="4.55095">
        <ele>216.7</ele>
        <time>2019-07-31T10:02:30Z</time>
      </trkpt>
      <trkpt lat="44.1563" lon="4.5509">
        <ele>217.5</ele>
        <time>2019-07-31T10:02:35Z</time>
      </trkpt>
      <trkpt lat="44.15625" lon="4.55087">
        <ele>218</ele>
        <time>2019-07-31T10:02:40Z</time>
      </trkpt>
      <trkpt lat="44.15617" lon="4.55085">
        <ele>219.2</ele>
        <time>2019-07-31T10:02:45Z</time>
      </trkpt>
      <trkpt lat="44.15612" lon="4.5508">
        <ele>220.5</ele>
        <time>2019-07-31T10:02:50Z</time>
      </trkpt>
      <trkpt lat="44.15605" lon="4.55075">
        <ele>222.2</ele>
        <time>2019-07-31T10:02:55Z</time>
      </trkpt>
      <trkpt lat="44.156" lon="4.55075">
        <ele>223.2</ele>
        <time>2019-07-31T10:03:00Z</time>
      </trkpt>
      <trkpt lat="44.15595" lon="4.55072">
        <ele>223.6</ele>
        <time>2019-07-31T10:03:05Z</time>
      </trkpt>
      <trkpt lat="44.1559" lon="4.55067">
        <ele>224.1</ele>
        <time>2019-07-31T10:03:10Z</time>
      </trkpt>
      <trkpt lat="44.15583" lon="4.55062">
        <ele>226.1</ele>
        <time>2019-07-31T10:03:15Z</time>
      </trkpt>
      <trkpt lat="44.15575" lon="4.55058">
        <ele>226.4</ele>
        <time>2019-07-31T10:03:20Z</time>
      </trkpt>
      <trkpt lat="44.15567" lon="4.55057">
        <ele>228.2</ele>
        <time>2019-07-31T10:03:25Z</time>
      </trkpt>
      <trkpt lat="44.15558" lon="4.55052">
        <ele>228.8</ele>
        <time>2019-07-31T10:03:30Z</time>
      </trkpt>
      <trkpt lat="44.15548" lon="4.55047">
        <ele>228.8</ele>
        <time>2019-07-31T10:03:35Z</time>
      </trkpt>
      <trkpt lat="44.1554" lon="4.55042">
        <ele>229.9</ele>
        <time>2019-07-31T10:03:40Z</time>
      </trkpt>
      <trkpt lat="44.1553" lon="4.55035">
        <ele>231.2</ele>
        <time>2019-07-31T10:03:45Z</time>
      </trkpt>
      <trkpt lat="44.1552" lon="4.5503">
        <ele>231.7</ele>
        <time>2019-07-31T10:03:50Z</time>
      </trkpt>
      <trkpt lat="44.15512" lon="4.55023">
        <ele>232.9</ele>
        <time>2019-07-31T10:03:55Z</time>
      </trkpt>
      <trkpt lat="44.155" lon="4.55015">
        <ele>233.8</ele>
        <time>2019-07-31T10:04:00Z</time>
      </trkpt>
      <trkpt lat="44.15488" lon="4.55005">
        <ele>233.1</ele>
        <time>2019-07-31T10:04:05Z</time>
      </trkpt>
      <trkpt lat="44.15482" lon="4.54998">
        <ele>235.4</ele>
        <time>2019-07-31T10:04:10Z</time>
      </trkpt>
      <trkpt lat="44.15467" lon="4.54995">
        <ele>234.4</ele>
        <time>2019-07-31T10:04:15Z</time>
      </trkpt>
      <trkpt lat="44.15453" lon="4.55">
        <ele>236.4</ele>
        <time>2019-07-31T10:04:20Z</time>
      </trkpt>
      <trkpt lat="44.15438" lon="4.55002">
        <ele>237.9</ele>
        <time>2019-07-31T10:04:25Z</time>
      </trkpt>
      <trkpt lat="44.15423" lon="4.54997">
        <ele>235.6</ele>
        <time>2019-07-31T10:04:30Z</time>
      </trkpt>
      <trkpt lat="44.15405" lon="4.54992">
        <ele>238.1</ele>
        <time>2019-07-31T10:04:35Z</time>
      </trkpt>
      <trkpt lat="44.15387" lon="4.54987">
        <ele>238.7</ele>
        <time>2019-07-31T10:04:40Z</time>
      </trkpt>
      <trkpt lat="44.15372" lon="4.54982">
        <ele>238.1</ele>
        <time>2019-07-31T10:04:45Z</time>
      </trkpt>
      <trkpt lat="44.15353" lon="4.54975">
        <ele>237.9</ele>
        <time>2019-07-31T10:04:50Z</time>
      </trkpt>
      <trkpt lat="44.15335" lon="4.54973">
        <ele>239.3</ele>
        <time>2019-07-31T10:04:55Z</time>
      </trkpt>
      <trkpt lat="44.15318" lon="4.54983">
        <ele>239.6</ele>
        <time>2019-07-31T10:05:00Z</time>
      </trkpt>
      <trkpt lat="44.15298" lon="4.5499">
        <ele>238.9</ele>
        <time>2019-07-31T10:05:05Z</time>
      </trkpt>
      <trkpt lat="44.15283" lon="4.5502">
        <ele>238.4</ele>
        <time>2019-07-31T10:05:10Z</time>
      </trkpt>
      <trkpt lat="44.1529" lon="4.55053">
        <ele>235.3</ele>
        <time>2019-07-31T10:05:15Z</time>
      </trkpt>
      <trkpt lat="44.15315" lon="4.55067">
        <ele>235.7</ele>
        <time>2019-07-31T10:05:20Z</time>
      </trkpt>
      <trkpt lat="44.15335" lon="4.55087">
        <ele>236.5</ele>
        <time>2019-07-31T10:05:25Z</time>
      </trkpt>
      <trkpt lat="44.15355" lon="4.55113">
        <ele>235.6</ele>
        <time>2019-07-31T10:05:30Z</time>
      </trkpt>
      <trkpt lat="44.15363" lon="4.55147">
        <ele>236.6</ele>
        <time>2019-07-31T10:05:35Z</time>
      </trkpt>
      <trkpt lat="44.1535" lon="4.55178">
        <ele>235.2</ele>
        <time>2019-07-31T10:05:40Z</time>
      </trkpt>
      <trkpt lat="44.15338" lon="4.55212">
        <ele>232.3</ele>
        <time>2019-07-31T10:05:45Z</time>
      </trkpt>
      <trkpt lat="44.15355" lon="4.5523">
        <ele>235.1</ele>
        <time>2019-07-31T10:05:50Z</time>
      </trkpt>
      <trkpt lat="44.15383" lon="4.55238">
        <ele>233.1</ele>
        <time>2019-07-31T10:05:55Z</time>
      </trkpt>
      <trkpt lat="44.1541" lon="4.55258">
        <ele>233.7</ele>
        <time>2019-07-31T10:06:00Z</time>
      </trkpt>
      <trkpt lat="44.15423" lon="4.55283">
        <ele>233.9</ele>
        <time>2019-07-31T10:06:05Z</time>
      </trkpt>
      <trkpt lat="44.15402" lon="4.55298">
        <ele>234.9</ele>
        <time>2019-07-31T10:06:10Z</time>
      </trkpt>
      <trkpt lat="44.15392" lon="4.55322">
        <ele>231.7</ele>
        <time>2019-07-31T10:06:15Z</time>
      </trkpt>
      <trkpt lat="44.15398" lon="4.55348">
        <ele>231.4</ele>
        <time>2019-07-31T10:06:20Z</time>
      </trkpt>
      <trkpt lat="44.15403" lon="4.55378">
        <ele>232.1</ele>
        <time>2019-07-31T10:06:25Z</time>
      </trkpt>
      <trkpt lat="44.15422" lon="4.55395">
        <ele>232.9</ele>
        <time>2019-07-31T10:06:30Z</time>
      </trkpt>
      <trkpt lat="44.15443" lon="4.55417">
        <ele>229.5</ele>
        <time>2019-07-31T10:06:35Z</time>
      </trkpt>
      <trkpt lat="44.15452" lon="4.55445">
        <ele>231.8</ele>
        <time>2019-07-31T10:06:40Z</time>
      </trkpt>
      <trkpt lat="44.15438" lon="4.55478">
        <ele>229.9</ele>
        <time>2019-07-31T10:06:45Z</time>
      </trkpt>
      <trkpt lat="44.15438" lon="4.55518">
        <ele>230.3</ele>
        <time>2019-07-31T10:06:50Z</time>
      </trkpt>
      <trkpt lat="44.15453" lon="4.55548">
        <ele>231.3</ele>
        <time>2019-07-31T10:06:55Z</time>
      </trkpt>
      <trkpt lat="44.15463" lon="4.5558">
        <ele>230.5</ele>
        <time>2019-07-31T10:07:00Z</time>
      </trkpt>
      <trkpt lat="44.15463" lon="4.5561">
        <ele>233.4</ele>
        <time>2019-07-31T10:07:05Z</time>
      </trkpt>
      <trkpt lat="44.1546" lon="4.55632">
        <ele>233.6</ele>
        <time>2019-07-31T10:07:10Z</time>
      </trkpt>
      <trkpt lat="44.15457" lon="4.5565">
        <ele>235.5</ele>
        <time>2019-07-31T10:07:15Z</time>
      </trkpt>
      <trkpt lat="44.15448" lon="4.55663">
        <ele>236.7</ele>
        <time>2019-07-31T10:07:20Z</time>
      </trkpt>
      <trkpt lat="44.1544" lon="4.55677">
        <ele>238.8</ele>
        <time>2019-07-31T10:07:25Z</time>
      </trkpt>
      <trkpt lat="44.15432" lon="4.5569">
        <ele>238.8</ele>
        <time>2019-07-31T10:07:30Z</time>
      </trkpt>
      <trkpt lat="44.15427" lon="4.557">
        <ele>239.4</ele>
        <time>2019-07-31T10:07:35Z</time>
      </trkpt>
      <trkpt lat="44.1542" lon="4.55708">
        <ele>239.3</ele>
        <time>2019-07-31T10:07:40Z</time>
      </trkpt>
      <trkpt lat="44.15415" lon="4.55717">
        <ele>241.6</ele>
        <time>2019-07-31T10:07:45Z</time>
      </trkpt>
      <trkpt lat="44.15407" lon="4.55725">
        <ele>242.1</ele>
        <time>2019-07-31T10:07:50Z</time>
      </trkpt>
      <trkpt lat="44.15398" lon="4.55732">
        <ele>243.6</ele>
        <time>2019-07-31T10:07:55Z</time>
      </trkpt>
      <trkpt lat="44.15392" lon="4.5574">
        <ele>243.6</ele>
        <time>2019-07-31T10:08:00Z</time>
      </trkpt>
      <trkpt lat="44.15382" lon="4.55747">
        <ele>242.6</ele>
        <time>2019-07-31T10:08:05Z</time>
      </trkpt>
      <trkpt lat="44.1537" lon="4.55752">
        <ele>244.2</ele>
        <time>2019-07-31T10:08:10Z</time>
      </trkpt>
      <trkpt lat="44.1536" lon="4.55755">
        <ele>245.6</ele>
        <time>2019-07-31T10:08:15Z</time>
      </trkpt>
      <trkpt lat="44.1535" lon="4.55753">
        <ele>246.9</ele>
        <time>2019-07-31T10:08:20Z</time>
      </trkpt>
      <trkpt lat="44.15338" lon="4.55752">
        <ele>246.3</ele>
        <time>2019-07-31T10:08:25Z</time>
      </trkpt>
      <trkpt lat="44.1533" lon="4.55755">
        <ele>248.3</ele>
        <time>2019-07-31T10:08:30Z</time>
      </trkpt>
      <trkpt lat="44.15318" lon="4.5576">
        <ele>250</ele>
        <time>2019-07-31T10:08:35Z</time>
      </trkpt>
      <trkpt lat="44.1531" lon="4.55768">
        <ele>249.6</ele>
        <time>2019-07-31T10:08:40Z</time>
      </trkpt>
      <trkpt lat="44.15302" lon="4.55765">
        <ele>251.7</ele>
        <time>2019-07-31T10:08:45Z</time>
      </trkpt>
      <trkpt lat="44.15302" lon="4.5575">
        <ele>252</ele>
        <time>2019-07-31T10:08:50Z</time>
      </trkpt>
      <trkpt lat="44.15308" lon="4.5574">
        <ele>252.9</ele>
        <time>2019-07-31T10:08:55Z</time>
      </trkpt>
      <trkpt lat="44.15313" lon="4.55727">
        <ele>254.7</ele>
        <time>2019-07-31T10:09:00Z</time>
      </trkpt>
      <trkpt lat="44.15318" lon="4.55715">
        <ele>256.2</ele>
        <time>2019-07-31T10:09:05Z</time>
      </trkpt>
      <trkpt lat="44.15322" lon="4.55705">
        <ele>258.1</ele>
        <time>2019-07-31T10:09:10Z</time>
      </trkpt>
      <trkpt lat="44.15325" lon="4.55693">
        <ele>257.5</ele>
        <time>2019-07-31T10:09:15Z</time>
      </trkpt>
      <trkpt lat="44.15327" lon="4.5568">
        <ele>260.9</ele>
        <time>2019-07-31T10:09:20Z</time>
      </trkpt>
      <trkpt lat="44.15328" lon="4.55668">
        <ele>261.8</ele>
        <time>2019-07-31T10:09:25Z</time>
      </trkpt>
      <trkpt lat="44.15327" lon="4.55658">
        <ele>261.8</ele>
        <time>2019-07-31T10:09:30Z</time>
      </trkpt>
      <trkpt lat="44.15318" lon="4.55655">
        <ele>261.7</ele>
        <time>2019-07-31T10:09:35Z</time>
      </trkpt>
      <trkpt lat="44.15313" lon="4.55667">
        <ele>261.2</ele>
        <time>2019-07-31T10:09:40Z</time>
      </trkpt>
      <trkpt lat="44.1531" lon="4.55682">
        <ele>263</ele>
        <time>2019-07-31T10:09:45Z</time>
      </trkpt>
      <trkpt lat="44.15305" lon="4.55698">
        <ele>264.4</ele>
        <time>2019-07-31T10:09:50Z</time>
      </trkpt>
      <trkpt lat="44.15293" lon="4.55715">
        <ele>263.7</ele>
        <time>2019-07-31T10:09:55Z</time>
      </trkpt>
      <trkpt lat="44.15283" lon="4.55728">
        <ele>267</ele>
        <time>2019-07-31T10:10:00Z</time>
      </trkpt>
      <trkpt lat="44.15273" lon="4.5574">
        <ele>266</ele>
        <time>2019-07-31T10:10:05Z</time>
      </trkpt>
      <trkpt lat="44.15263" lon="4.55753">
        <ele>267.2</ele>
        <time>2019-07-31T10:10:10Z</time>
      </trkpt>
      <trkpt lat="44.15253" lon="4.55767">
        <ele>267.3</ele>
        <time>2019-07-31T10:10:15Z</time>
      </trkpt>
      <trkpt lat="44.15245" lon="4.55777">
        <ele>268.9</ele>
        <time>2019-07-31T10:10:20Z</time>
      </trkpt>
      <trkpt lat="44.15238" lon="4.55792">
        <ele>269.3</ele>
        <time>2019-07-31T10:10:25Z</time>
      </trkpt>
      <trkpt lat="44.1523" lon="4.55807">
        <ele>267.3</ele>
        <time>2019-07-31T10:10:30Z</time>
      </trkpt>
      <trkpt lat="44.1522" lon="4.5582">
        <ele>270.1</ele>
        <time>2019-07-31T10:10:35Z</time>
      </trkpt>
      <trkpt lat="44.15212" lon="4.55818">
        <ele>269.2</ele>
        <time>2019-07-31T10:10:40Z</time>
      </trkpt>
      <trkpt lat="44.15213" lon="4.55807">
        <ele>272.6</ele>
        <time>2019-07-31T10:10:45Z</time>
      </trkpt>
      <trkpt lat="44.15222" lon="4.55797">
        <ele>272.3</ele>
        <time>2019-07-31T10:10:50Z</time>
      </trkpt>
      <trkpt lat="44.15227" lon="4.55785">
        <ele>274.1</ele>
        <time>2019-07-31T10:10:55Z</time>
      </trkpt>
      <trkpt lat="44.15233" lon="4.5577">
        <ele>274.1</ele>
        <time>2019-07-31T10:11:00Z</time>
      </trkpt>
      <trkpt lat="44.1524" lon="4.55757">
        <ele>275.3</ele>
        <time>2019-07-31T10:11:05Z</time>
      </trkpt>
      <trkpt lat="44.15247" lon="4.55738">
        <ele>274.3</ele>
        <time>2019-07-31T10:11:10Z</time>
      </trkpt>
      <trkpt lat="44.15255" lon="4.55722">
        <ele>276.4</ele>
        <time>2019-07-31T10:11:15Z</time>
      </trkpt>
      <trkpt lat="44.1526" lon="4.55702">
        <ele>277.7</ele>
        <time>2019-07-31T10:11:20Z</time>
      </trkpt>
      <trkpt lat="44.15263" lon="4.5568">
        <ele>280.2</ele>
        <time>2019-07-31T10:11:25Z</time>
      </trkpt>
      <trkpt lat="44.1526" lon="4.55658">
        <ele>281.2</ele>
        <time>2019-07-31T10:11:30Z</time>
      </trkpt>
      <trkpt lat="44.15257" lon="4.55638">
        <ele>278.6</ele>
        <time>2019-07-31T10:11:35Z</time>
      </trkpt>
      <trkpt lat="44.1525" lon="4.55618">
        <ele>281.9</ele>
        <time>2019-07-31T10:11:40Z</time>
      </trkpt>
      <trkpt lat="44.15242" lon="4.55597">
        <ele>284.6</ele>
        <time>2019-07-31T10:11:45Z</time>
      </trkpt>
      <trkpt lat="44.15235" lon="4.55575">
        <ele>283</ele>
        <time>2019-07-31T10:11:50Z</time>
      </trkpt>
      <trkpt lat="44.15228" lon="4.55557">
        <ele>284.3</ele>
        <time>2019-07-31T10:11:55Z</time>
      </trkpt>
      <trkpt lat="44.15225" lon="4.5554">
        <ele>284.3</ele>
        <time>2019-07-31T10:12:00Z</time>
      </trkpt>
      <trkpt lat="44.15222" lon="4.55523">
        <ele>285.3</ele>
        <time>2019-07-31T10:12:05Z</time>
      </trkpt>
      <trkpt lat="44.1522" lon="4.55507">
        <ele>286</ele>
        <time>2019-07-31T10:12:10Z</time>
      </trkpt>
      <trkpt lat="44.15217" lon="4.55492">
        <ele>288.4</ele>
        <time>2019-07-31T10:12:15Z</time>
      </trkpt>
      <trkpt lat="44.1521" lon="4.55485">
        <ele>287.8</ele>
        <time>2019-07-31T10:12:20Z</time>
      </trkpt>
      <trkpt lat="44.15205" lon="4.55495">
        <ele>287.9</ele>
        <time>2019-07-31T10:12:25Z</time>
      </trkpt>
      <trkpt lat="44.1521" lon="4.5551">
        <ele>288.2</ele>
        <time>2019-07-31T10:12:30Z</time>
      </trkpt>
      <trkpt lat="44.15215" lon="4.55522">
        <ele>288.2</ele>
        <time>2019-07-31T10:12:35Z</time>
      </trkpt>
      <trkpt lat="44.15217" lon="4.55542">
        <ele>290.8</ele>
        <time>2019-07-31T10:12:40Z</time>
      </trkpt>
      <trkpt lat="44.15217" lon="4.55562">
        <ele>292.6</ele>
        <time>2019-07-31T10:12:45Z</time>
      </trkpt>
      <trkpt lat="44.15218" lon="4.55583">
        <ele>291.2</ele>
        <time>2019-07-31T10:12:50Z</time>
      </trkpt>
      <trkpt lat="44.15222" lon="4.55605">
        <ele>293</ele>
        <time>2019-07-31T10:12:55Z</time>
      </trkpt>
      <trkpt lat="44.15227" lon="4.55627">
        <ele>295</ele>
        <time>2019-07-31T10:13:00Z</time>
      </trkpt>
      <trkpt lat="44.1523" lon="4.5565">
        <ele>295.9</ele>
        <time>2019-07-31T10:13:05Z</time>
      </trkpt>
      <trkpt lat="44.1523" lon="4.55672">
        <ele>297.9</ele>
        <time>2019-07-31T10:13:10Z</time>
      </trkpt>
      <trkpt lat="44.15227" lon="4.55695">
        <ele>296.4</ele>
        <time>2019-07-31T10:13:15Z</time>
      </trkpt>
      <trkpt lat="44.15215" lon="4.55715">
        <ele>299.5</ele>
        <time>2019-07-31T10:13:20Z</time>
      </trkpt>
      <trkpt lat="44.15202" lon="4.55733">
        <ele>299.2</ele>
        <time>2019-07-31T10:13:25Z</time>
      </trkpt>
      <trkpt lat="44.15187" lon="4.5575">
        <ele>300.2</ele>
        <time>2019-07-31T10:13:30Z</time>
      </trkpt>
      <trkpt lat="44.15167" lon="4.55762">
        <ele>300.2</ele>
        <time>2019-07-31T10:13:35Z</time>
      </trkpt>
      <trkpt lat="44.15147" lon="4.55768">
        <ele>303.5</ele>
        <time>2019-07-31T10:13:40Z</time>
      </trkpt>
      <trkpt lat="44.15125" lon="4.55772">
        <ele>305.1</ele>
        <time>2019-07-31T10:13:45Z</time>
      </trkpt>
      <trkpt lat="44.15102" lon="4.55768">
        <ele>306.1</ele>
        <time>2019-07-31T10:13:50Z</time>
      </trkpt>
      <trkpt lat="44.1508" lon="4.55762">
        <ele>306.1</ele>
        <time>2019-07-31T10:13:55Z</time>
      </trkpt>
      <trkpt lat="44.15063" lon="4.55745">
        <ele>307.7</ele>
        <time>2019-07-31T10:14:00Z</time>
      </trkpt>
      <trkpt lat="44.1506" lon="4.55727">
        <ele>308.2</ele>
        <time>2019-07-31T10:14:05Z</time>
      </trkpt>
      <trkpt lat="44.15058" lon="4.55708">
        <ele>309.3</ele>
        <time>2019-07-31T10:14:10Z</time>
      </trkpt>
      <trkpt lat="44.15057" lon="4.55692">
        <ele>310</ele>
        <time>2019-07-31T10:14:15Z</time>
      </trkpt>
      <trkpt lat="44.15058" lon="4.55668">
        <ele>310.6</ele>
        <time>2019-07-31T10:14:20Z</time>
      </trkpt>
      <trkpt lat="44.15068" lon="4.55647">
        <ele>308.1</ele>
        <time>2019-07-31T10:14:25Z</time>
      </trkpt>
      <trkpt lat="44.15085" lon="4.55628">
        <ele>307.6</ele>
        <time>2019-07-31T10:14:30Z</time>
      </trkpt>
      <trkpt lat="44.15105" lon="4.55617">
        <ele>308.1</ele>
        <time>2019-07-31T10:14:35Z</time>
      </trkpt>
      <trkpt lat="44.15128" lon="4.55603">
        <ele>308.1</ele>
        <time>2019-07-31T10:14:40Z</time>
      </trkpt>
      <trkpt lat="44.15152" lon="4.55585">
        <ele>309.3</ele>
        <time>2019-07-31T10:14:45Z</time>
      </trkpt>
      <trkpt lat="44.15165" lon="4.55555">
        <ele>308.6</ele>
        <time>2019-07-31T10:14:50Z</time>
      </trkpt>
      <trkpt lat="44.15158" lon="4.55522">
        <ele>309.3</ele>
        <time>2019-07-31T10:14:55Z</time>
      </trkpt>
      <trkpt lat="44.15148" lon="4.55493">
        <ele>310.3</ele>
        <time>2019-07-31T10:15:00Z</time>
      </trkpt>
      <trkpt lat="44.15145" lon="4.55468">
        <ele>310.3</ele>
        <time>2019-07-31T10:15:05Z</time>
      </trkpt>
      <trkpt lat="44.15138" lon="4.55437">
        <ele>311.5</ele>
        <time>2019-07-31T10:15:10Z</time>
      </trkpt>
      <trkpt lat="44.15135" lon="4.55405">
        <ele>310.5</ele>
        <time>2019-07-31T10:15:15Z</time>
      </trkpt>
      <trkpt lat="44.15132" lon="4.5538">
        <ele>310.2</ele>
        <time>2019-07-31T10:15:20Z</time>
      </trkpt>
      <trkpt lat="44.15113" lon="4.55383">
        <ele>308.2</ele>
        <time>2019-07-31T10:15:25Z</time>
      </trkpt>
      <trkpt lat="44.1509" lon="4.55387">
        <ele>310.6</ele>
        <time>2019-07-31T10:15:30Z</time>
      </trkpt>
      <trkpt lat="44.15068" lon="4.55387">
        <ele>311.7</ele>
        <time>2019-07-31T10:15:35Z</time>
      </trkpt>
      <trkpt lat="44.15045" lon="4.55387">
        <ele>310.4</ele>
        <time>2019-07-31T10:15:40Z</time>
      </trkpt>
      <trkpt lat="44.1502" lon="4.55382">
        <ele>308.5</ele>
        <time>2019-07-31T10:15:45Z</time>
      </trkpt>
      <trkpt lat="44.14995" lon="4.5538">
        <ele>309.8</ele>
        <time>2019-07-31T10:15:50Z</time>
      </trkpt>
      <trkpt lat="44.14973" lon="4.55377">
        <ele>308.4</ele>
        <time>2019-07-31T10:15:55Z</time>
      </trkpt>
      <trkpt lat="44.14962" lon="4.5536">
        <ele>308.7</ele>
        <time>2019-07-31T10:16:00Z</time>
      </trkpt>
      <trkpt lat="44.1496" lon="4.55325">
        <ele>311</ele>
        <time>2019-07-31T10:16:05Z</time>
      </trkpt>
      <trkpt lat="44.14963" lon="4.55283">
        <ele>299.2</ele>
        <time>2019-07-31T10:16:10Z</time>
      </trkpt>
      <trkpt lat="44.14958" lon="4.55247">
        <ele>302.8</ele>
        <time>2019-07-31T10:16:15Z</time>
      </trkpt>
      <trkpt lat="44.14965" lon="4.55217">
        <ele>297.9</ele>
        <time>2019-07-31T10:16:20Z</time>
      </trkpt>
      <trkpt lat="44.14973" lon="4.5518">
        <ele>297.9</ele>
        <time>2019-07-31T10:16:25Z</time>
      </trkpt>
      <trkpt lat="44.14983" lon="4.55153">
        <ele>297.2</ele>
        <time>2019-07-31T10:16:30Z</time>
      </trkpt>
      <trkpt lat="44.1499" lon="4.55122">
        <ele>301.2</ele>
        <time>2019-07-31T10:16:35Z</time>
      </trkpt>
      <trkpt lat="44.14995" lon="4.55093">
        <ele>299.3</ele>
        <time>2019-07-31T10:16:40Z</time>
      </trkpt>
      <trkpt lat="44.15" lon="4.55063">
        <ele>297.3</ele>
        <time>2019-07-31T10:16:45Z</time>
      </trkpt>
      <trkpt lat="44.1499" lon="4.55043">
        <ele>296.2</ele>
        <time>2019-07-31T10:16:50Z</time>
      </trkpt>
      <trkpt lat="44.14973" lon="4.55055">
        <ele>297.3</ele>
        <time>2019-07-31T10:16:55Z</time>
      </trkpt>
      <trkpt lat="44.14963" lon="4.55067">
        <ele>296.4</ele>
        <time>2019-07-31T10:17:00Z</time>
      </trkpt>
      <trkpt lat="44.14958" lon="4.55067">
        <ele>295.4</ele>
        <time>2019-07-31T10:17:05Z</time>
      </trkpt>
      <trkpt lat="44.14958" lon="4.55067">
        <ele>295.3</ele>
        <time>2019-07-31T10:17:10Z</time>
      </trkpt>
      <trkpt lat="44.14958" lon="4.55067">
        <ele>295.9</ele>
        <time>2019-07-31T10:17:15Z</time>
      </trkpt>
      <trkpt lat="44.14957" lon="4.55063">
        <ele>296.1</ele>
        <time>2019-07-31T10:17:20Z</time>
      </trkpt>
    </trkseg>
  </trk>
  <rte>
      <rtept lat="44.1496" lon="4.55065">
        <ele>260</ele>
      </rtept>
      <rtept lat="44.14957" lon="4.55063">
        <ele>260</ele>
      </rtept>
    </rte>
</gpx>